[[{"header":{"parameterUnit":"m.s-1","parameterCategory":1,"la1":30.6,"la2":28.766,"lo1":-90.7593,"lo2":-88.6598,"dy":0.0162,"dx":0.0183,"nx":116,"ny":114,"refTime":"2023-06-13T18:00:00:Z","depth":0,"parameterNumber":2,"parameterNumberName":"U-component_of_WINDS"},"data":[0.0,0.0,0.0,0.0,0.0,0.0,0.0,0.0,0.0,0.0,0.0,0.0,0.0,0.0,0.0,0.0,0.0,0.0,0.0,0.0,0.0,0.0,0.0,0.0,0.0,0.0,0.0,0.0,0.0,0.0,0.0,0.0,0.0,0.0,0.0,0.0,0.0,0.0,0.0,0.0,0.0,0.0,0.0,0.0,0.0,0.0,0.0,0.0,0.0,0.0,0.0,0.0,0.0,0.0,0.0,0.0,0.0,0.0,0.0,0.0,0.0,0.0,0.0,0.0,0.0,0.0,0.0,0.0,0.0,0.0,0.0,0.0,0.0,0.0,0.0,0.0,0.0,0.0,0.0,0.0,0.0,0.0,0.0,0.0,0.0,0.0,0.0,0.0,0.0,0.0,0.0,0.0,0.0,0.0,0.0,0.0,0.0,0.0,0.0,0.0,0.0,0.0,0.0,0.0,0.0,0.0,0.0,0.0,0.0,0.0,0.0,0.0,0.0,0.0,0.0,0.0,0.0,0.0,0.0,0.0,0.0,0.0,0.0,0.0,0.0,0.0,0.0,0.0,0.0,0.0,0.0,0.0,0.0,0.0,0.0,0.0,0.0,0.0,0.0,0.0,0.0,0.0,0.0,0.0,0.0,0.0,0.0,0.0,0.0,0.0,0.0,0.0,0.0,0.0,0.0,0.0,0.0,0.0,0.0,0.0,0.0,0.0,0.0,0.0,0.0,0.0,0.0,0.0,0.0,0.0,0.0,0.0,0.0,0.0,0.0,0.0,0.0,0.0,0.0,0.0,0.0,0.0,0.0,0.0,0.0,0.0,0.0,0.0,0.0,0.0,0.0,0.0,0.0,0.0,0.0,0.0,0.0,0.0,0.0,0.0,0.0,0.0,0.0,0.0,0.0,0.0,0.0,0.0,0.0,0.0,0.0,0.0,0.0,0.0,0.0,0.0,0.0,0.0,0.0,0.0,0.0,0.0,0.0,0.0,0.0,0.0,0.0,0.0,0.0,0.0,0.0,0.0,0.0,0.0,0.0,0.0,0.0,0.0,0.0,0.0,0.0,0.0,0.0,0.0,0.0,0.0,0.0,0.0,0.0,0.0,0.0,0.0,0.0,0.0,0.0,0.0,0.0,0.0,0.0,0.0,0.0,0.0,0.0,0.0,0.0,0.0,0.0,0.0,0.0,0.0,0.0,0.0,0.0,0.0,0.0,0.0,0.0,0.0,0.0,0.0,0.0,0.0,0.0,0.0,0.0,0.0,0.0,0.0,0.0,0.0,0.0,0.0,0.0,0.0,0.0,0.0,0.0,0.0,0.0,0.0,0.0,0.0,0.0,0.0,0.0,0.0,0.0,0.0,0.0,0.0,0.0,0.0,0.0,0.0,0.0,0.0,0.0,0.0,0.0,0.0,0.0,0.0,0.0,0.0,0.0,0.0,0.0,0.0,0.0,0.0,0.0,0.0,0.0,0.0,0.0,0.0,0.0,0.0,0.0,0.0,0.0,0.0,0.0,0.0,0.0,0.0,0.0,0.0,0.0,0.0,0.0,0.0,0.0,0.0,0.0,0.0,0.0,0.0,0.0,0.0,0.0,0.0,0.0,0.0,0.0,0.0,0.0,0.0,0.0,0.0,0.0,0.0,0.0,0.0,0.0,0.0,0.0,0.0,0.0,0.0,0.0,0.0,0.0,0.0,0.0,0.0,0.0,0.0,0.0,0.0,0.0,0.0,0.0,0.0,0.0,0.0,0.0,0.0,0.0,0.0,0.0,0.0,0.0,0.0,0.0,0.0,0.0,0.0,0.0,0.0,0.0,0.0,0.0,0.0,0.0,0.0,0.0,0.0,0.0,0.0,0.0,0.0,0.0,0.0,0.0,0.0,0.0,0.0,0.0,0.0,0.0,0.0,0.0,0.0,0.0,0.0,0.0,0.0,0.0,0.0,0.0,0.0,0.0,0.0,0.0,0.0,0.0,0.0,0.0,0.0,0.0,0.0,0.0,0.0,0.0,0.0,0.0,0.0,0.0,0.0,0.0,0.0,0.0,0.0,0.0,0.0,0.0,0.0,0.0,0.0,0.0,0.0,0.0,0.0,0.0,0.0,0.0,0.0,0.0,0.0,0.0,0.0,0.0,0.0,0.0,0.0,0.0,0.0,0.0,0.0,0.0,0.0,0.0,0.0,0.0,0.0,0.0,0.0,0.0,0.0,0.0,0.0,0.0,0.0,0.0,0.0,0.0,0.0,0.0,0.0,0.0,0.0,0.0,0.0,0.0,0.0,0.0,0.0,0.0,0.0,0.0,0.0,0.0,0.0,0.0,0.0,0.0,0.0,0.0,0.0,0.0,0.0,0.0,0.0,0.0,0.0,0.0,0.0,0.0,0.0,0.0,0.0,0.0,0.0,0.0,0.0,0.0,0.0,0.0,0.0,0.0,0.0,0.0,0.0,0.0,0.0,0.0,0.0,0.0,0.0,0.0,0.0,0.0,0.0,0.0,0.0,0.0,0.0,0.0,0.0,0.0,0.0,0.0,0.0,0.0,0.0,0.0,0.0,0.0,0.0,0.0,0.0,0.0,0.0,0.0,0.0,0.0,0.0,0.0,0.0,0.0,0.0,0.0,0.0,0.0,0.0,0.0,0.0,0.0,0.0,0.0,0.0,0.0,0.0,0.0,0.0,0.0,0.0,0.0,0.0,0.0,0.0,0.0,0.0,0.0,0.0,0.0,0.0,0.0,0.0,0.0,0.0,0.0,0.0,0.0,0.0,0.0,0.0,0.0,0.0,0.0,0.0,0.0,0.0,0.0,0.0,0.0,0.0,0.0,0.0,0.0,0.0,0.0,0.0,0.0,0.0,0.0,0.0,0.0,0.0,0.0,0.0,0.0,0.0,0.0,0.0,0.0,0.0,0.0,0.0,0.0,0.0,0.0,0.0,0.0,0.0,0.0,0.0,0.0,0.0,0.0,0.0,0.0,0.0,0.0,0.0,0.0,0.0,0.0,0.0,0.0,0.0,0.0,0.0,0.0,0.0,0.0,0.0,0.0,0.0,0.0,0.0,0.0,0.0,0.0,0.0,0.0,0.0,0.0,0.0,0.0,0.0,0.0,0.0,0.0,0.0,0.0,0.0,0.0,0.0,0.0,0.0,0.0,0.0,0.0,0.0,0.0,0.0,0.0,0.0,0.0,0.0,0.0,0.0,0.0,0.0,0.0,0.0,0.0,0.0,0.0,0.0,0.0,0.0,0.0,0.0,0.0,0.0,0.0,0.0,0.0,0.0,0.0,0.0,0.0,0.0,0.0,0.0,0.0,0.0,0.0,0.0,0.0,0.0,0.0,0.0,0.0,0.0,0.0,0.0,0.0,0.0,0.0,0.0,0.0,0.0,0.0,0.0,0.0,0.0,0.0,0.0,0.0,0.0,0.0,0.0,0.0,0.0,0.0,0.0,0.0,0.0,0.0,0.0,0.0,0.0,0.0,0.0,0.0,0.0,0.0,0.0,0.0,0.0,0.0,0.0,0.0,0.0,0.0,0.0,0.0,0.0,0.0,0.0,0.0,0.0,0.0,0.0,0.0,0.0,0.0,0.0,0.0,0.0,0.0,0.0,0.0,0.0,0.0,0.0,0.0,0.0,0.0,0.0,0.0,0.0,0.0,0.0,0.0,0.0,0.0,0.0,0.0,0.0,0.0,0.0,0.0,0.0,0.0,0.0,0.0,0.0,0.0,0.0,0.0,0.0,0.0,0.0,0.0,0.0,0.0,0.0,0.0,0.0,0.0,0.0,0.0,0.0,0.0,0.0,0.0,0.0,0.0,0.0,0.0,0.0,0.0,0.0,0.0,0.0,0.0,0.0,0.0,0.0,0.0,0.0,0.0,0.0,0.0,0.0,0.0,0.0,0.0,0.0,0.0,0.0,0.0,0.0,0.0,0.0,0.0,0.0,0.0,0.0,0.0,0.0,0.0,0.0,0.0,0.0,0.0,0.0,0.0,0.0,0.0,0.0,0.0,0.0,0.0,0.0,0.0,0.0,0.0,0.0,0.0,0.0,0.0,0.0,0.0,0.0,0.0,0.0,0.0,0.0,0.0,0.0,0.0,0.0,0.0,0.0,0.0,0.0,0.0,0.0,0.0,0.0,0.0,0.0,0.0,0.0,0.0,0.0,0.0,0.0,0.0,0.0,0.0,0.0,0.0,0.0,0.0,0.0,0.0,0.0,0.0,0.0,0.0,0.0,0.0,0.0,0.0,0.0,0.0,0.0,0.0,0.0,0.0,0.0,0.0,0.0,0.0,0.0,0.0,0.0,0.0,0.0,0.0,0.0,0.0,0.0,0.0,0.0,0.0,0.0,0.0,0.0,0.0,0.0,0.0,0.0,0.0,0.0,0.0,0.0,0.0,0.0,0.0,0.0,0.0,0.0,0.0,0.0,0.0,0.0,0.0,0.0,0.0,0.0,0.0,0.0,0.0,0.0,0.0,0.0,0.0,0.0,0.0,0.0,0.0,0.0,0.0,0.0,0.0,0.0,0.0,0.0,0.0,0.0,0.0,0.0,0.0,0.0,0.0,0.0,0.0,0.0,0.0,0.0,0.0,0.0,0.0,0.0,0.0,0.0,0.0,0.0,0.0,0.0,0.0,0.0,0.0,0.0,0.0,0.0,0.0,0.0,0.0,0.0,0.0,0.0,0.0,0.0,0.0,0.0,0.0,0.0,0.0,0.0,0.0,0.0,0.0,0.0,0.0,0.0,0.0,0.0,0.0,0.0,0.0,0.0,0.0,0.0,0.0,0.0,0.0,0.0,0.0,0.0,0.0,0.0,0.0,0.0,0.0,0.0,0.0,0.0,0.0,0.0,0.0,0.0,0.0,0.0,0.0,0.0,0.0,0.0,0.0,0.0,0.0,0.0,0.0,0.0,0.0,0.0,0.0,0.0,0.0,0.0,0.0,0.0,0.0,0.0,0.0,0.0,0.0,0.0,0.0,0.0,0.0,0.0,0.0,0.0,0.0,0.0,0.0,0.0,0.0,0.0,0.0,0.0,0.0,0.0,0.0,0.0,0.0,0.0,0.0,0.0,0.0,0.0,0.0,0.0,0.0,0.0,0.0,0.0,0.0,0.0,0.0,0.0,0.0,0.0,0.0,0.0,0.0,0.0,0.0,0.0,0.0,0.0,0.0,0.0,0.0,0.0,0.0,0.0,0.0,0.0,0.0,0.0,0.0,0.0,0.0,0.0,0.0,0.0,0.0,0.0,0.0,0.0,0.0,0.0,0.0,0.0,0.0,0.0,0.0,0.0,0.0,0.0,0.0,0.0,0.0,0.0,0.0,0.0,0.0,0.0,0.0,0.0,0.0,0.0,0.0,0.0,0.0,0.0,0.0,0.0,0.0,0.0,0.0,0.0,0.0,0.0,0.0,0.0,0.0,0.0,0.0,0.0,0.0,0.0,0.0,0.0,0.0,0.0,0.0,0.0,0.0,0.0,0.0,0.0,0.0,0.0,0.0,0.0,0.0,0.0,0.0,0.0,0.0,0.0,0.0,0.0,0.0,0.0,0.0,0.0,0.0,0.0,0.0,0.0,0.0,0.0,0.0,0.0,0.0,0.0,0.0,0.0,0.0,0.0,0.0,0.0,0.0,0.0,0.0,0.0,0.0,0.0,0.0,0.0,0.0,0.0,0.0,0.0,0.0,0.0,0.0,0.0,0.0,0.0,0.0,0.0,0.0,0.0,0.0,0.0,0.0,0.0,0.0,0.0,0.0,0.0,0.0,0.0,0.0,0.0,0.0,0.0,0.0,0.0,0.0,0.0,0.0,0.0,0.0,0.0,0.0,0.0,0.0,0.0,0.0,0.0,0.0,0.0,0.0,0.0,0.0,0.0,0.0,0.0,0.0,0.0,0.0,0.0,0.0,0.0,0.0,0.0,0.0,0.0,0.0,0.0,0.0,0.0,0.0,0.0,0.0,0.0,0.0,0.0,0.0,0.0,0.0,0.0,0.0,0.0,0.0,0.0,0.0,0.0,0.0,0.0,0.0,0.0,0.0,0.0,0.0,0.0,0.0,0.0,0.0,0.0,0.0,0.0,0.0,0.0,0.0,0.0,-4.5026,-4.4558,0.0,0.0,0.0,0.0,0.0,0.0,0.0,0.0,0.0,0.0,0.0,0.0,0.0,0.0,0.0,0.0,0.0,0.0,0.0,0.0,0.0,0.0,0.0,0.0,0.0,0.0,0.0,0.0,0.0,0.0,0.0,0.0,0.0,0.0,0.0,0.0,0.0,0.0,0.0,0.0,0.0,0.0,0.0,0.0,0.0,0.0,0.0,0.0,0.0,0.0,0.0,0.0,0.0,0.0,0.0,0.0,0.0,0.0,0.0,0.0,0.0,0.0,0.0,0.0,0.0,0.0,0.0,0.0,0.0,0.0,0.0,0.0,0.0,0.0,0.0,0.0,0.0,0.0,0.0,0.0,0.0,0.0,0.0,0.0,0.0,0.0,0.0,0.0,0.0,0.0,0.0,0.0,0.0,0.0,0.0,0.0,0.0,0.0,0.0,0.0,0.0,0.0,0.0,0.0,0.0,0.0,0.0,0.0,0.0,0.0,0.0,0.0,0.0,0.0,-4.5698,-4.5364,0.0,0.0,0.0,0.0,0.0,0.0,0.0,0.0,0.0,0.0,0.0,0.0,0.0,0.0,0.0,0.0,0.0,0.0,0.0,0.0,0.0,0.0,0.0,0.0,0.0,0.0,0.0,0.0,0.0,0.0,0.0,0.0,0.0,0.0,0.0,0.0,0.0,0.0,0.0,0.0,0.0,0.0,0.0,0.0,0.0,0.0,0.0,0.0,0.0,0.0,0.0,0.0,0.0,0.0,0.0,0.0,0.0,0.0,0.0,0.0,0.0,0.0,0.0,0.0,0.0,0.0,0.0,0.0,0.0,0.0,0.0,0.0,0.0,0.0,0.0,0.0,0.0,0.0,0.0,0.0,0.0,0.0,0.0,0.0,0.0,0.0,0.0,0.0,0.0,0.0,0.0,0.0,0.0,0.0,0.0,0.0,0.0,0.0,0.0,0.0,0.0,0.0,0.0,0.0,0.0,0.0,0.0,0.0,-4.8333,-4.7922,-4.8972,-4.776,-4.7114,-4.6864,-4.6478,-4.6396,-4.6396,-4.517,0.0,0.0,0.0,0.0,0.0,0.0,0.0,0.0,0.0,0.0,0.0,0.0,0.0,0.0,0.0,0.0,0.0,0.0,0.0,0.0,0.0,0.0,0.0,0.0,0.0,0.0,0.0,0.0,0.0,0.0,0.0,0.0,0.0,0.0,0.0,0.0,0.0,0.0,-4.024,-4.005,-3.9239,-3.7971,0.0,0.0,0.0,0.0,0.0,0.0,0.0,0.0,0.0,0.0,0.0,0.0,0.0,0.0,0.0,0.0,0.0,0.0,0.0,0.0,0.0,0.0,0.0,0.0,0.0,0.0,0.0,0.0,0.0,0.0,0.0,0.0,0.0,0.0,0.0,0.0,0.0,0.0,0.0,0.0,0.0,0.0,0.0,0.0,-4.6545,-4.665,0.0,0.0,0.0,0.0,0.0,0.0,0.0,0.0,0.0,0.0,0.0,0.0,0.0,-4.8968,-4.9796,-4.951,-5.0129,-5.1636,-4.9564,-4.9256,-5.0543,-4.8874,-4.8121,-4.7992,-4.6813,0.0,-4.7115,-4.6367,0.0,0.0,0.0,0.0,0.0,0.0,0.0,0.0,0.0,0.0,0.0,0.0,0.0,0.0,0.0,0.0,0.0,0.0,0.0,0.0,0.0,0.0,0.0,0.0,0.0,0.0,0.0,0.0,0.0,0.0,0.0,0.0,0.0,0.0,0.0,0.0,-4.0865,-4.2388,-4.325,-4.3041,-4.2527,-4.1757,-4.1135,-3.8901,-3.5609,-3.5609,0.0,0.0,0.0,0.0,0.0,0.0,0.0,0.0,0.0,0.0,0.0,0.0,0.0,0.0,0.0,0.0,0.0,0.0,0.0,0.0,0.0,0.0,0.0,0.0,0.0,0.0,0.0,0.0,0.0,0.0,0.0,0.0,0.0,0.0,0.0,0.0,0.0,0.0,0.0,-4.6258,-4.7259,-4.6836,-4.7462,-4.7314,0.0,0.0,0.0,0.0,0.0,0.0,0.0,0.0,0.0,-4.9103,-4.9864,-5.0591,-5.1336,-5.1522,-5.2191,-5.3402,-5.1081,-5.0627,-5.1729,-4.9763,-4.888,-4.885,-4.8222,-4.7938,-4.7773,-4.6756,-4.5487,-4.4167,0.0,0.0,0.0,0.0,-3.8422,-3.8635,0.0,0.0,0.0,0.0,0.0,0.0,0.0,0.0,0.0,0.0,0.0,0.0,0.0,0.0,0.0,0.0,0.0,0.0,0.0,0.0,0.0,0.0,0.0,0.0,0.0,0.0,0.0,0.0,-4.2625,-4.4299,-4.5404,-4.4993,-4.4432,-4.3786,-4.2816,-4.0375,-3.6971,-3.6703,-3.5062,0.0,0.0,0.0,0.0,0.0,0.0,0.0,0.0,0.0,0.0,0.0,0.0,0.0,0.0,0.0,0.0,0.0,0.0,0.0,0.0,0.0,0.0,0.0,0.0,0.0,0.0,0.0,0.0,0.0,0.0,0.0,0.0,0.0,0.0,0.0,0.0,0.0,0.0,-4.7141,-4.7962,-4.7401,-4.8344,-4.8352,0.0,0.0,0.0,0.0,0.0,0.0,-4.846,-4.8984,-4.9712,-5.0625,-5.1589,-5.2435,-5.3162,-5.3682,-5.4309,-5.4991,-5.2693,-5.1942,-5.2514,-5.0308,-4.9314,-4.9284,-4.8955,-4.8491,-4.7967,-4.716,-4.6142,-4.5035,-4.4511,-4.3419,-4.201,-4.07,-4.0342,-4.028,0.0,0.0,0.0,0.0,0.0,0.0,0.0,0.0,0.0,0.0,0.0,0.0,0.0,0.0,0.0,0.0,0.0,0.0,0.0,0.0,0.0,0.0,0.0,0.0,0.0,0.0,0.0,-4.1153,-4.342,-4.4581,-4.4609,-4.3582,-4.3101,-4.3018,-4.1949,-4.0306,-3.8252,-3.7215,-3.5619,-3.3516,0.0,0.0,0.0,0.0,0.0,0.0,0.0,0.0,0.0,0.0,0.0,0.0,0.0,0.0,0.0,0.0,0.0,0.0,0.0,0.0,0.0,0.0,0.0,0.0,0.0,0.0,0.0,0.0,0.0,0.0,0.0,0.0,0.0,0.0,0.0,0.0,0.0,0.0,0.0,-4.8812,-5.0738,0.0,0.0,0.0,0.0,-4.7872,-4.8528,-4.9255,-4.9949,-5.0016,-5.0693,-5.2147,-5.3636,-5.4786,-5.553,-5.6237,-5.6442,-5.6117,-5.4237,-5.3186,-5.2805,-5.041,-4.9314,-4.9239,-4.7938,-4.7384,-4.7399,-4.7952,-4.7773,-4.6965,-4.5065,-4.4257,-4.4018,-4.2722,-4.1509,-4.0563,0.0,0.0,0.0,0.0,0.0,0.0,0.0,0.0,0.0,0.0,0.0,0.0,0.0,0.0,0.0,0.0,0.0,0.0,0.0,0.0,0.0,0.0,0.0,0.0,0.0,0.0,-3.9918,-4.1204,-4.2963,-4.3572,-4.3115,-4.2241,-4.1547,-4.0975,-4.0525,-3.9224,-3.7397,-3.7893,-3.6255,-3.322,-3.1915,-2.9604,0.0,0.0,0.0,0.0,0.0,0.0,0.0,0.0,0.0,0.0,0.0,0.0,0.0,0.0,0.0,0.0,0.0,0.0,0.0,0.0,0.0,0.0,0.0,0.0,0.0,0.0,0.0,0.0,0.0,0.0,0.0,0.0,0.0,0.0,0.0,0.0,0.0,-5.0254,-5.1089,0.0,-5.0472,-5.019,-4.9864,-4.9357,-5.0913,-5.1775,-5.1522,-5.2909,-5.3957,-5.4482,-5.5023,-5.5666,-5.641,-5.6207,-5.6265,-5.6556,-5.4036,-5.3025,-5.326,-5.0539,-4.9075,-4.8655,-4.8132,-4.7698,-4.7294,-4.71,-4.713,-4.7189,-4.6052,-4.5858,-4.5883,-4.3012,-4.1966,-4.164,0.0,0.0,0.0,0.0,0.0,0.0,0.0,0.0,0.0,0.0,0.0,0.0,0.0,0.0,0.0,0.0,0.0,0.0,0.0,0.0,0.0,0.0,0.0,0.0,0.0,-3.87,-4.0324,-4.1576,-4.2557,-4.2777,-4.2286,-4.1257,-4.0442,-3.9871,-3.8866,-3.7529,-3.6023,-3.6803,-3.5753,-3.3476,-3.2554,-3.0021,-2.6713,0.0,0.0,0.0,0.0,0.0,0.0,0.0,0.0,0.0,0.0,0.0,0.0,0.0,0.0,0.0,0.0,0.0,0.0,0.0,0.0,0.0,0.0,0.0,0.0,0.0,0.0,0.0,0.0,0.0,0.0,0.0,0.0,0.0,0.0,-4.8069,-5.0231,-5.1434,-5.2255,-5.2636,-5.2372,-5.1919,-5.1509,-5.1253,-5.2871,-5.3636,-5.3095,-5.4752,-5.5598,-5.5344,-5.5581,-5.5835,-5.6055,-5.5835,-5.5742,-5.5839,-5.3571,-5.2555,-5.2574,-5.0081,-4.8327,-4.7294,-4.7519,-4.6995,-4.5978,-4.5978,-4.6232,-4.6576,-4.6157,-4.602,-4.574,-4.3275,-4.208,-4.1396,0.0,0.0,0.0,0.0,0.0,0.0,0.0,0.0,0.0,0.0,0.0,0.0,0.0,0.0,0.0,0.0,0.0,0.0,0.0,0.0,0.0,0.0,0.0,0.0,-3.8903,-3.9039,-4.0121,-4.2252,-4.2252,-4.2236,-4.2192,-4.0596,-3.9822,-3.9714,-3.7127,-3.5386,-3.4341,-3.3951,-3.411,-3.4342,-3.169,-2.9276,-2.727,0.0,0.0,0.0,0.0,0.0,0.0,0.0,0.0,0.0,0.0,0.0,0.0,0.0,0.0,0.0,0.0,0.0,0.0,0.0,0.0,0.0,0.0,0.0,0.0,0.0,0.0,0.0,0.0,0.0,0.0,0.0,0.0,0.0,-4.5869,-4.9022,-5.1636,-5.236,-5.4361,-5.5434,-5.4727,-5.4649,-5.4325,-5.3632,-5.4237,-5.4617,-5.4617,-5.531,-5.5361,-5.4617,-5.5327,-5.5361,-5.46,-5.531,-5.5118,-5.4009,-5.2928,-5.183,-5.0723,-4.9004,-4.716,-4.5364,-4.6037,-4.5229,-4.3539,-4.4766,-4.5274,-4.5274,-4.5274,-4.4575,-4.3603,-4.3517,-4.1897,-3.958,0.0,0.0,0.0,0.0,0.0,0.0,0.0,0.0,0.0,0.0,0.0,0.0,0.0,0.0,0.0,0.0,0.0,0.0,0.0,0.0,0.0,0.0,0.0,0.0,-3.8937,-4.0054,-4.0882,-4.1508,-4.1508,-4.1221,-4.0679,-3.91,-3.8382,-3.828,-3.6194,-3.4675,-3.3633,-3.3362,-3.2867,-3.2222,-3.1375,-2.9718,-2.761,0.0,0.0,0.0,0.0,0.0,0.0,0.0,0.0,0.0,0.0,0.0,0.0,0.0,0.0,0.0,0.0,0.0,0.0,0.0,0.0,0.0,0.0,0.0,0.0,0.0,0.0,0.0,0.0,0.0,0.0,0.0,-4.3736,-4.7187,-4.9363,-5.1544,-5.3558,-5.5359,-5.5624,-5.5833,-5.6235,-5.5727,-5.5301,-5.5123,-5.527,-5.5412,-5.5413,-5.5598,-5.5361,-5.4617,-5.5327,-5.5361,-5.46,-5.4803,-5.4634,-5.4046,-5.1502,-5.0208,-5.0065,-4.7867,-4.6561,-4.6052,-4.6204,-4.5738,-4.4766,-4.4631,-4.4586,-4.4586,-4.4586,-4.4177,-4.3372,-4.1563,-3.9402,-3.713,0.0,0.0,0.0,0.0,0.0,0.0,0.0,0.0,0.0,0.0,0.0,0.0,0.0,0.0,0.0,0.0,0.0,0.0,0.0,0.0,0.0,0.0,0.0,-3.7483,-3.9436,-4.029,-4.073,-4.073,-4.073,-4.0365,-3.9584,-3.8374,-3.7424,-3.6614,-3.4806,-3.342,-3.2442,-3.1617,-3.0931,-3.0298,-2.9477,-2.8625,-2.781,-2.6809,-2.5738,-2.4697,-2.4126,-2.5172,-2.672,-2.6258,0.0,0.0,0.0,0.0,0.0,0.0,0.0,0.0,0.0,0.0,0.0,0.0,0.0,0.0,0.0,0.0,0.0,0.0,0.0,0.0,0.0,0.0,0.0,0.0,-4.5529,-4.9212,-5.2582,-5.3577,-5.4669,-5.6615,-5.6743,-5.6839,-5.7324,-5.6662,-5.606,-5.5732,-5.5699,-5.5556,-5.5261,-5.5547,-5.5226,-5.416,-5.4854,-5.4718,-5.3636,-5.3957,-5.4037,-5.3806,-5.1122,-4.9919,-5.0005,-4.7775,-4.6142,-4.5125,-4.5663,-4.505,-4.3673,-4.3838,-4.3898,-4.3817,0.0,0.0,0.0,0.0,-3.7553,-3.6229,0.0,0.0,0.0,0.0,0.0,0.0,0.0,0.0,0.0,0.0,0.0,0.0,0.0,0.0,0.0,0.0,0.0,0.0,0.0,0.0,0.0,-3.6481,-3.7328,-3.8437,-3.9935,-3.9952,-4.002,-4.0096,-4.0096,-3.9688,-3.8881,-3.8149,-3.6856,-3.5111,-3.3378,-3.2069,-3.1095,-2.9484,-2.8826,-2.8657,-2.69,-2.68,-2.7632,-2.6888,-2.6061,-2.5207,-2.4692,-2.4925,-2.5697,-2.6628,0.0,0.0,0.0,0.0,0.0,0.0,0.0,0.0,0.0,0.0,0.0,0.0,0.0,0.0,0.0,0.0,0.0,0.0,0.0,0.0,0.0,0.0,0.0,0.0,-4.8052,-5.1328,-5.5067,-5.5106,-5.5292,-5.6834,-5.7589,-5.7997,-5.7997,-5.7401,-5.6704,-5.5904,-5.5841,-5.5531,-5.477,-5.5277,0.0,0.0,0.0,-5.3771,-5.2317,-5.3112,-5.3382,-5.3127,-5.1201,-5.0201,-4.997,-4.8004,-4.5813,-4.3658,-4.4721,-4.3823,-4.1683,-4.2811,-4.317,-4.282,-4.1809,-4.0788,-3.961,-3.7037,-3.6204,-3.6216,0.0,0.0,0.0,0.0,0.0,0.0,0.0,0.0,0.0,0.0,0.0,0.0,0.0,0.0,0.0,0.0,0.0,0.0,0.0,0.0,-3.3494,-3.5722,-3.643,-3.7492,-3.9096,-3.9139,-3.9463,-4.0096,-4.0096,-3.9688,-3.8881,-3.8149,-3.6856,-3.5111,-3.3378,-3.2069,-3.1068,-2.9091,-2.8238,-2.8084,-2.6281,-2.6006,-2.6484,-2.5308,-2.4981,-2.5141,-2.5005,-2.589,-2.7031,-2.6347,-2.7093,-2.8454,-2.9343,0.0,0.0,0.0,0.0,0.0,0.0,0.0,0.0,0.0,0.0,0.0,0.0,0.0,0.0,0.0,0.0,0.0,0.0,0.0,0.0,-4.5169,-4.8479,-5.1905,-5.5141,-5.5485,-5.6003,-5.7591,-5.7909,-5.7997,-5.7997,-5.7862,-5.7488,-5.673,-5.6664,-5.6324,-5.5532,-5.5057,-5.4414,-5.3534,-5.3653,-5.3264,-5.2317,-5.3112,-5.2644,-5.0984,-5.0032,0.0,-4.7846,-4.6368,-4.5409,-4.4915,-4.4631,-4.3913,-4.2931,-4.3185,-4.2222,-4.0546,-4.0332,-4.0102,-3.9459,-3.5767,-3.4939,-3.5458,0.0,0.0,0.0,0.0,0.0,0.0,0.0,0.0,0.0,0.0,0.0,0.0,0.0,0.0,0.0,0.0,0.0,0.0,0.0,-3.4557,-3.5403,-3.6548,-3.7279,-3.7876,-3.833,-3.8358,-3.8734,-3.9489,-3.9129,-3.8734,-3.833,-3.7557,-3.6012,-3.3863,-3.2989,-3.1483,-2.9551,-2.7952,-2.6982,-2.6337,-2.4845,-2.4439,-2.4682,-2.4467,-2.4551,-2.4775,-2.5037,-2.5622,-2.6462,-2.7363,-2.8277,-2.9361,-3.0863,-3.0984,-3.0478,0.0,0.0,0.0,0.0,0.0,0.0,0.0,0.0,0.0,0.0,0.0,0.0,0.0,0.0,-3.8244,-3.936,0.0,-4.3638,-4.6708,-4.9271,-5.1992,-5.5167,-5.5941,-5.6638,-5.785,-5.7997,-5.7997,-5.7997,-5.7997,-5.785,-5.7522,-5.6738,-5.615,-5.5752,-5.4686,-5.3704,-5.2926,-5.3298,-5.3112,-5.2317,-5.3112,-5.2956,-5.1938,-5.0574,-4.9504,-4.8784,-4.6721,-4.5618,-4.5259,-4.4601,-4.3902,-4.329,-4.329,-4.2304,-4.0703,-4.0102,-3.9197,-3.7892,-3.5907,-3.5479,-3.5793,0.0,0.0,0.0,0.0,0.0,0.0,0.0,0.0,0.0,0.0,0.0,0.0,0.0,0.0,0.0,0.0,0.0,0.0,0.0,-3.6136,-3.7373,-3.7554,-3.8169,-3.8285,-3.7766,-3.7637,-3.7933,-3.869,-3.8092,-3.7719,-3.7544,-3.6737,-3.499,-3.2593,-3.2429,-3.0891,-2.8347,-2.7046,-2.5964,-2.4999,-2.3637,-2.3091,-2.3169,-2.3861,-2.4219,-2.4336,-2.4697,-2.492,-2.5357,-2.7899,-2.8888,-2.9477,-3.1704,-3.2247,-3.1823,-3.0618,-3.0259,0.0,0.0,0.0,0.0,0.0,0.0,0.0,0.0,-3.7635,-3.8488,-3.9073,-3.9428,-4.0222,-4.2141,-4.3025,-4.476,-4.8663,-5.0405,-5.2289,-5.5188,-5.6161,-5.6932,-5.7886,-5.7997,-5.7997,-5.7997,-5.8143,-5.8196,-5.8109,-5.7015,-5.6258,-5.6018,-5.4682,-5.3568,-5.2773,-5.3247,-5.3196,-5.2536,-5.3179,-5.3314,-5.2886,-5.1208,-5.0181,-4.9718,-4.725,-4.5813,-4.5244,-4.4466,-4.3783,-4.329,-4.329,-4.2508,-4.1169,-4.0275,-3.8482,-3.6405,-3.6405,-3.6342,-3.6144,0.0,0.0,0.0,0.0,0.0,0.0,0.0,0.0,0.0,0.0,0.0,0.0,0.0,0.0,0.0,0.0,0.0,0.0,-3.2766,-3.5155,-3.686,-3.7391,-3.7523,-3.7575,-3.7623,-3.7033,-3.7114,-3.7921,-3.7835,-3.7427,-3.6722,-3.5777,-3.4353,-3.2558,-3.1742,-3.072,-2.9456,-2.7383,-2.6442,-2.6099,-2.3973,-2.3091,-2.311,-2.3198,-2.3516,-2.3867,-2.3916,-2.418,-2.4677,-2.6024,-2.7181,-2.8315,-2.9577,-3.0673,-3.1284,-3.0305,-3.0637,-3.0863,-2.8836,-2.8485,-2.9509,-3.2965,-3.4797,-3.6771,0.0,-4.2699,-4.3752,-4.3836,-4.4874,-4.6068,-4.6916,-4.8188,-4.9457,-5.0572,-5.1978,-5.3573,-5.5335,-5.5688,-5.629,-5.7813,-5.7997,-5.7997,-5.7997,-5.8657,-5.8817,-5.8164,-5.852,-5.8211,-5.6851,-5.5945,-5.5124,-5.4363,-5.3788,-5.3467,-5.3365,-5.3467,-5.2574,-5.0741,-5.0512,-4.9432,-4.7621,-4.6104,-4.5364,-4.5229,-4.3947,-4.3364,-4.329,-4.329,-4.2044,-4.0073,-3.9942,-3.8482,-3.6405,-3.6405,-3.6056,-3.5583,0.0,0.0,0.0,0.0,0.0,0.0,0.0,0.0,0.0,0.0,0.0,0.0,0.0,0.0,0.0,0.0,0.0,0.0,-3.2467,-3.534,-3.73,-3.7943,-3.7614,-3.7259,-3.696,-3.6309,-3.6337,-3.7084,-3.6677,-3.6244,-3.5761,-3.4892,-3.3531,-3.1779,-3.1389,-2.9948,-2.7799,-2.6894,-2.5724,-2.4435,-2.3474,-2.3091,-2.3091,-2.3091,-2.3208,-2.3423,-2.3714,-2.3907,0.0,0.0,-2.7466,-2.8237,-3.007,-3.0603,-3.0495,-3.0108,-2.9947,-2.9711,-2.8917,-3.0306,-3.2497,-3.4561,-3.7311,-4.0176,-4.2945,-4.4438,-4.5348,-4.5771,-4.6363,-4.7151,-4.8242,-4.8522,-4.9272,-5.1321,-5.2528,-5.3775,-5.5354,-5.64,-5.7244,-5.7923,-5.7997,-5.7997,-5.7997,-5.8731,-5.9273,-5.9449,-5.891,-5.8477,-5.8325,-5.623,-5.4921,-5.46,-5.3873,-5.3501,-5.3501,-5.3501,-5.3076,-5.2186,-5.0984,-4.9947,-4.9013,-4.6864,-4.5469,-4.4676,-4.3693,-4.329,-4.329,-4.329,-4.1961,-3.9899,-3.9899,-3.8482,-3.6405,-3.6405,-3.6267,-3.6019,0.0,0.0,0.0,0.0,0.0,0.0,0.0,0.0,0.0,0.0,0.0,0.0,0.0,0.0,0.0,0.0,0.0,0.0,0.0,-3.5356,-3.7327,-3.7754,-3.7545,0.0,-3.6359,-3.5791,-3.5638,-3.5868,-3.535,-3.4879,-3.4471,-3.3599,-3.25,-3.118,-3.0932,-2.955,-2.7383,-2.6771,-2.5557,-2.3973,-2.3343,-2.3091,-2.3135,-2.3464,-2.3358,-2.3153,-2.3494,-2.3619,0.0,0.0,-2.7246,-2.7854,-2.9764,-3.0097,-2.9781,-2.9667,-2.8991,-2.8472,-2.9504,-3.1531,-3.3863,-3.5885,-3.9071,-4.231,-4.4529,-4.5694,-4.6532,-4.7242,-4.7411,-4.775,-4.8974,-4.9021,-4.9681,-5.2054,-5.3257,-5.4344,-5.5739,-5.6932,-5.7593,-5.7354,-5.7336,-5.7244,-5.7024,-5.8547,-5.9777,-6.0364,-5.9364,-5.8892,-5.9259,-5.6481,-5.4905,-5.4905,-5.3991,-5.3501,-5.3501,-5.3501,-5.3195,-5.2609,-5.1096,-4.9992,-4.9197,-4.6833,-4.514,-4.4018,-4.3499,-4.329,-4.329,-4.329,-4.1961,-3.9899,-3.9899,-3.8482,-3.6405,-3.6405,-3.6405,-3.6405,0.0,0.0,0.0,0.0,0.0,0.0,0.0,0.0,0.0,0.0,0.0,0.0,0.0,0.0,0.0,0.0,0.0,0.0,0.0,-3.4802,-3.6453,-3.6258,-3.6975,-3.6926,-3.5928,-3.5651,-3.5019,-3.4095,-3.4061,-3.3602,-3.2664,-3.1706,-3.1254,-3.118,-3.0241,-2.9792,-2.9546,-2.7395,-2.6483,-2.6182,-2.3973,-2.3091,-2.3222,-2.4339,-2.4075,-2.3112,-2.3102,0.0,0.0,0.0,-2.5619,-2.6668,-2.749,-2.8394,-2.9162,-2.8814,-2.7984,-2.7767,-3.0642,-3.1025,-3.1758,-3.646,-3.9358,-4.1999,-4.5613,-4.7154,-4.8054,-4.8781,-4.8934,-4.9144,-4.9827,-5.1152,-5.241,-5.3141,-5.4556,-5.5812,-5.6657,-5.6822,-5.6547,-5.5757,-5.5666,-5.5354,-5.4583,-5.807,-6.0382,-6.0401,-6.036,-5.9994,-5.9251,-5.6964,-5.5683,-5.5683,-5.4262,-5.3501,-5.3501,-5.3501,-5.2503,-5.0474,-5.0451,-4.9007,-4.6391,-4.4975,-4.3962,-4.3319,-4.3305,-4.329,-4.329,-4.329,-4.1961,-3.9899,-3.9899,-3.8482,-3.6405,-3.6405,-3.6405,-3.6405,0.0,0.0,0.0,0.0,0.0,0.0,0.0,0.0,0.0,0.0,0.0,0.0,0.0,0.0,0.0,0.0,0.0,0.0,0.0,-3.2151,-3.3748,-3.4562,-3.5508,-3.6165,-3.651,-3.4939,-3.4298,-3.4646,-3.3578,-3.2593,-3.1669,-3.1352,-3.0871,-3.0241,-2.9934,-2.8961,-2.7557,-2.6812,-2.6287,-2.5819,-2.4667,-2.4901,-2.5797,-2.5085,-2.456,-2.4113,0.0,0.0,0.0,0.0,-2.505,-2.5623,-2.7121,-2.7641,-2.7693,-2.7396,-2.7519,-2.8009,-2.9245,-3.1336,-3.4041,-3.7763,-4.0567,-4.3145,-4.6054,-4.7319,-4.7956,-4.824,-4.7496,-4.7101,-4.8137,-4.8398,-4.9162,-5.1275,-5.2511,-5.4051,-5.6473,-5.5886,-5.5702,-5.7024,-5.6712,-5.6712,-5.7519,-5.8327,-5.8798,-5.8802,-5.9352,-5.9298,-5.8456,-5.6234,-5.4972,-5.4972,-5.4008,-5.3501,-5.3501,-5.3501,-5.28,-5.1394,-4.9993,-4.8049,-4.5648,-4.5648,-4.4994,-4.3947,-4.3947,-4.3693,-4.329,-4.329,-4.1961,-3.9899,-3.9899,-3.8482,-3.6405,-3.6405,-3.6405,-3.6405,0.0,0.0,0.0,0.0,0.0,0.0,0.0,0.0,0.0,0.0,0.0,0.0,0.0,0.0,0.0,0.0,0.0,0.0,0.0,0.0,-3.0814,-3.1447,-3.2607,-3.3252,-3.3333,-3.2597,-3.2382,-3.2743,-3.2291,-3.1609,-3.0696,-3.0696,-3.0381,-2.9792,-2.9792,-2.9,-2.7637,-2.725,-2.6949,-2.6675,-2.531,-2.5568,-2.6558,-2.5299,-2.4532,0.0,0.0,0.0,0.0,0.0,-2.4627,-2.5326,-2.6202,-2.6478,-2.6743,-2.7991,-2.8151,-2.8338,-3.0203,-3.2377,-3.503,-3.8794,-4.1246,-4.3428,-4.6079,-4.7336,-4.7956,-4.8257,-4.7124,-4.63,-4.6986,-4.7252,-4.7931,-4.9689,-5.1355,-5.3353,-5.5996,-5.5482,-5.55,-5.7354,-5.7116,-5.7226,-5.823,-5.84,-5.8214,-5.7686,-5.8417,-5.8395,-5.7238,-5.5552,-5.4718,-5.4972,-5.4279,-5.3771,-5.3501,-5.3501,-5.28,-5.1357,-4.9005,-4.7141,-4.5663,-4.5618,-4.4885,-4.3629,-4.3868,-4.3464,-4.2671,-4.3095,-4.2208,-4.0447,-4.0073,-3.8693,-3.6977,-3.6534,-3.6405,-3.6405,0.0,0.0,0.0,0.0,0.0,0.0,0.0,0.0,0.0,0.0,0.0,0.0,0.0,0.0,0.0,0.0,0.0,0.0,0.0,0.0,0.0,-2.7299,-2.8662,-2.8715,-2.7227,-2.8962,-2.9444,-2.8637,-3.0151,-3.0475,-2.9578,-2.9616,-2.9628,-2.9628,-2.9628,-2.9577,-2.9449,-2.8388,-2.8238,-2.849,-2.587,-2.5167,-2.5633,-2.5018,0.0,0.0,0.0,0.0,0.0,-2.3138,-2.4381,-2.583,-2.4984,-2.5214,-2.6563,-3.0225,-2.9669,-2.8798,-3.3126,-3.3994,-3.4783,-3.9439,-4.1317,-4.2783,-4.5634,-4.7053,-4.7922,-4.8494,-4.7462,-4.6362,-4.5981,-4.7329,-4.8473,-4.8447,-5.103,-5.3683,-5.5409,-5.5633,-5.5904,-5.6767,-5.6914,-5.695,-5.6987,-5.8372,-5.8622,-5.7105,-5.7767,-5.7532,-5.5842,-5.5041,-5.4921,-5.5632,-5.4921,-5.4211,-5.3518,-5.3382,-5.2312,-5.0285,-4.7563,-4.6234,-4.6085,-4.4915,-4.3643,-4.2485,-4.3105,-4.2656,-4.1579,-4.2821,-4.2629,-4.1504,-4.0375,-3.9139,-3.7984,-3.6803,-3.6405,-3.6405,0.0,0.0,0.0,0.0,0.0,0.0,0.0,0.0,0.0,0.0,0.0,0.0,0.0,0.0,0.0,0.0,0.0,0.0,0.0,0.0,0.0,0.0,0.0,0.0,0.0,0.0,0.0,0.0,0.0,-2.6917,-2.6678,-2.714,-2.7341,0.0,-2.7341,-2.6889,-2.6057,-2.5741,-2.5963,-2.634,0.0,-2.5621,-2.6712,0.0,0.0,0.0,0.0,0.0,0.0,-2.3501,-2.4809,-2.7175,-2.8449,-2.9052,-2.916,-2.8712,-2.9849,-3.1285,-3.1465,-3.3574,-3.6288,-3.8637,-4.0245,-4.164,-4.3037,-4.4858,-4.5686,-4.3623,-4.2455,-4.1316,-3.9757,-4.1361,-4.3916,-4.6968,-4.9693,-5.2601,-5.6014,-5.5978,-5.6106,-5.7519,-5.8235,-5.8817,-5.9428,-5.9859,-5.9213,-5.7077,-5.8236,-5.8293,-5.661,-5.5314,-5.4685,-5.4871,-5.416,-5.3687,-5.3501,-5.1954,-5.0396,-4.8887,-4.7145,-4.5502,-4.4082,-4.4751,-4.4332,-4.312,-4.3738,-4.3599,-4.2826,-4.3155,-4.2629,-4.1504,-4.0375,-3.9139,-3.7984,-3.6803,-3.6405,-3.6405,0.0,0.0,0.0,0.0,0.0,0.0,0.0,0.0,0.0,0.0,0.0,0.0,0.0,0.0,0.0,0.0,0.0,0.0,0.0,0.0,0.0,0.0,0.0,0.0,0.0,0.0,0.0,0.0,0.0,0.0,0.0,-2.6336,-2.6499,-2.6499,-2.6499,-2.6129,-2.5534,0.0,0.0,0.0,0.0,0.0,0.0,0.0,0.0,0.0,0.0,0.0,-2.5922,-2.6554,-2.7203,-2.8337,-3.1592,-3.1649,-3.0627,-3.1329,-3.1973,-3.2542,-3.2662,-3.4799,-3.7407,-3.8905,-4.0444,-4.1621,-4.1782,-4.306,-4.3453,-4.0781,-3.9665,-3.8918,-3.8239,-3.965,-4.2187,-4.5973,-4.8696,-5.1484,-5.4759,-5.5133,-5.5794,-5.7758,-5.8712,-5.979,-6.1318,-6.1123,-6.0234,-5.8574,-5.8338,-5.7662,-5.6396,-5.5226,-5.4735,-5.5074,-5.4363,-5.3822,-5.3501,-5.1447,-4.9875,-4.8807,-4.7114,-4.5532,-4.4212,-4.4661,-4.4152,-4.294,-4.3599,-4.3344,-4.2521,-4.305,-4.29,-4.2249,-4.1085,-3.9915,-3.8738,-3.7599,-3.6849,-3.6405,0.0,0.0,0.0,0.0,0.0,0.0,0.0,0.0,0.0,0.0,0.0,0.0,0.0,0.0,0.0,0.0,0.0,0.0,0.0,0.0,0.0,0.0,0.0,0.0,0.0,0.0,0.0,0.0,0.0,0.0,0.0,0.0,0.0,0.0,0.0,0.0,0.0,0.0,0.0,0.0,0.0,0.0,0.0,0.0,0.0,0.0,0.0,0.0,-2.7328,-3.0677,-3.0509,-2.9726,-3.431,-3.3769,-3.2048,-3.528,-3.4771,-3.3484,-3.4966,-3.6493,-3.7996,-3.9465,-4.0991,-4.1956,-4.1335,-4.1625,-4.1339,-3.9022,-3.7889,-3.7587,-3.8509,-3.98,-4.1838,-4.5251,-4.8039,-5.0532,-5.2615,-5.4044,-5.5611,-5.7593,-5.8749,-6.0224,-6.2441,-6.1715,-6.0852,-6.0256,-5.8151,-5.6573,-5.5887,-5.5057,-5.4854,-5.5377,-5.4786,-5.4143,-5.3518,-5.1447,-5.0035,-4.924,-4.716,-4.5783,-4.5005,-4.4451,-4.3554,-4.256,-4.309,-4.2686,-4.1728,-4.2826,-4.329,-4.321,-4.207,-4.0916,-3.9768,-3.8559,-3.7368,-3.6405,0.0,0.0,0.0,0.0,0.0,0.0,0.0,0.0,0.0,0.0,-2.9733,-3.0212,0.0,0.0,0.0,0.0,0.0,0.0,0.0,0.0,0.0,0.0,0.0,0.0,0.0,0.0,0.0,-2.5245,-2.5971,0.0,0.0,0.0,0.0,0.0,0.0,0.0,0.0,0.0,0.0,0.0,0.0,0.0,0.0,0.0,0.0,0.0,0.0,-2.8956,0.0,0.0,-3.2972,-3.2332,-3.593,-3.6686,-3.6028,-3.51,-3.5654,-3.6282,-3.5028,-3.6039,-3.7698,-3.8678,-4.0071,-4.1225,-4.1189,-4.0816,-3.9656,-3.6766,-3.5131,-3.4359,-3.4923,-3.7304,-4.0543,-4.464,-4.785,-5.0163,-5.1235,-5.4848,-5.7281,-5.7042,-5.8896,-6.0621,-6.1706,-5.9892,-5.8835,-5.9273,-5.7758,-5.6756,-5.6613,-5.5327,-5.438,-5.3907,-5.3771,-5.3636,-5.3501,-5.1447,-4.9779,-4.8556,-4.6481,-4.484,-4.3618,-4.3514,-4.3334,-4.3125,-4.3245,-4.317,-4.2976,-4.32,-4.329,-4.321,-4.207,-4.0916,-3.9768,-3.8559,-3.7368,-3.6405,0.0,0.0,0.0,0.0,0.0,0.0,0.0,-3.1425,-3.1656,-3.226,-3.2344,-3.2205,-3.1847,-3.2705,-3.2935,0.0,0.0,0.0,0.0,0.0,0.0,0.0,0.0,0.0,0.0,-2.7117,-2.6847,-2.612,0.0,-2.6435,-2.6283,-2.6283,-2.6088,-2.5711,-2.5405,0.0,0.0,0.0,0.0,0.0,0.0,0.0,0.0,0.0,0.0,0.0,0.0,0.0,0.0,0.0,-3.3239,-3.3598,-3.7287,-3.8212,-3.7593,-3.5969,-3.6381,-3.7038,-3.541,-3.6723,-3.8806,-3.969,-4.1067,-4.1618,-3.9398,-3.8925,-3.7763,-3.3588,-3.2493,-3.2539,-3.3412,-3.5211,-3.833,-4.3792,-4.6359,-4.859,-5.1258,-5.4647,-5.6849,-5.6861,-5.8939,-6.0413,-6.044,-5.9034,-5.7907,-5.7424,-5.5962,-5.5598,-5.6748,-5.5395,-5.4262,-5.3518,-5.3501,-5.3061,-5.2164,-5.0639,-4.8929,-4.7076,-4.5529,-4.4272,-4.329,-4.329,-4.329,-4.329,-4.329,-4.2901,-4.2372,-4.3021,-4.2886,-4.2294,-4.2459,-4.1435,-3.9812,-3.9271,-3.7906,-3.6405,0.0,0.0,0.0,0.0,0.0,0.0,0.0,-3.2392,-3.2991,-3.4339,-3.4638,-3.423,-3.2959,-3.442,-3.4714,0.0,0.0,0.0,0.0,0.0,0.0,0.0,0.0,0.0,0.0,0.0,0.0,-2.7797,-2.7925,0.0,0.0,0.0,0.0,0.0,-2.7579,-2.7494,-2.7494,0.0,0.0,0.0,0.0,-2.843,0.0,0.0,0.0,0.0,0.0,-3.0432,-3.0926,-3.2273,-3.2976,-3.3904,-3.744,-3.8271,-3.7854,-3.715,-3.7514,-3.8037,-3.7436,-3.8788,-4.0587,-4.147,-4.2456,-4.2229,-3.833,-3.7566,-3.6366,-3.1765,-3.0886,-3.1465,-3.3108,-3.4011,-3.6544,-4.2777,-4.4423,-4.643,-5.084,-5.3649,-5.5606,-5.6498,-5.8681,-5.9901,-5.939,-5.8591,-5.7522,-5.6126,-5.4582,-5.4431,-5.6004,-5.4989,-5.4093,-5.3518,-5.3501,-5.2739,-5.1119,-5.011,-4.8447,-4.6082,-4.5006,-4.4107,-4.329,-4.329,-4.329,-4.329,-4.329,-4.2596,-4.1489,-4.2751,-4.2566,-4.1504,-4.2821,-4.2044,-4.0232,-3.9986,-3.8572,-3.6709,0.0,0.0,0.0,0.0,0.0,0.0,0.0,-3.2108,-3.2991,-3.4339,-3.5026,-3.5574,-3.6023,-3.572,-3.5409,0.0,0.0,0.0,0.0,0.0,0.0,0.0,0.0,0.0,0.0,0.0,0.0,-3.1961,-3.2556,0.0,0.0,0.0,0.0,0.0,0.0,-2.8163,-2.8113,-2.8113,0.0,0.0,0.0,0.0,0.0,0.0,0.0,0.0,0.0,-3.1869,-3.1615,-3.2961,-3.3051,-3.2946,-3.511,-3.6199,-3.6955,-3.8291,-3.9565,-4.0992,-4.2876,-4.2955,-4.2724,-4.362,-4.3406,-4.2413,-4.0054,-3.8178,-3.6186,-3.3626,-3.1562,-3.1058,-3.3863,-3.443,-3.6243,-4.1605,-4.2358,-4.3849,-4.8462,-5.1623,-5.4,-5.5542,-5.7782,-5.9205,-5.9114,-5.8345,-5.7499,-5.6739,-5.5346,-5.4296,-5.3839,-5.367,-5.3568,-5.3501,-5.3501,-5.2957,-5.1806,-5.0795,-4.9138,-4.6796,-4.5728,-4.4541,-4.329,-4.329,-4.329,-4.329,-4.329,-4.2596,-4.1489,-4.2751,-4.2566,-4.1504,-4.2821,-4.2548,-4.1337,-4.0275,-3.905,-3.7802,0.0,0.0,0.0,0.0,0.0,0.0,-3.2093,-3.2677,-3.3574,-3.4921,-3.5684,-3.6193,-3.6462,-3.6252,-3.5938,-3.5549,0.0,0.0,0.0,0.0,0.0,0.0,0.0,0.0,0.0,0.0,-3.3365,-3.3095,-3.3365,0.0,0.0,0.0,0.0,0.0,0.0,-3.1432,-3.1385,-3.1385,0.0,0.0,0.0,0.0,0.0,0.0,0.0,0.0,0.0,0.0,-3.2108,-3.2243,-3.2099,-3.1842,-3.1855,-3.2856,-3.4312,-3.5764,-3.7968,-3.9952,-4.0071,-4.205,-4.4179,-4.4657,-4.4624,-4.3721,-4.0662,-3.8673,-3.6552,-3.3389,-3.2036,-3.1765,-3.297,-3.3541,-3.4962,-3.8437,-3.9281,-4.1385,-4.6834,-4.9391,-5.2144,-5.5916,-5.7673,-5.8523,-5.8432,-5.7328,-5.5899,-5.4228,-5.3145,-5.2841,-5.3467,-5.3501,-5.3501,-5.3501,-5.3501,-5.2497,-5.0431,-5.0005,-4.8292,-4.5348,-4.4895,-4.4227,-4.329,-4.329,-4.329,-4.329,-4.329,-4.2109,-4.0367,-4.2423,-4.2049,-4.0412,-4.2467,-4.2589,-4.1462,-4.0318,-3.9139,-3.7939,0.0,0.0,0.0,0.0,0.0,-3.2258,-3.2452,-3.308,-3.4053,-3.5594,-3.6357,-3.6836,-3.703,-3.7045,-3.6791,-3.6133,-3.5729,0.0,0.0,0.0,0.0,0.0,0.0,0.0,0.0,0.0,-3.3993,-3.3784,-3.3993,-3.4083,0.0,0.0,-3.3978,-3.3784,0.0,0.0,0.0,0.0,0.0,0.0,0.0,0.0,0.0,0.0,0.0,0.0,0.0,0.0,0.0,0.0,0.0,-3.1617,-3.0912,0.0,0.0,-3.4364,-3.7383,-4.0197,-4.0183,-4.3182,-4.6398,-4.6539,-4.5653,-4.4018,-4.1019,-3.8723,-3.6349,-3.3254,-3.2632,-3.2632,-3.2632,-3.3051,-3.4218,-3.6705,-3.7885,-4.0194,-4.5106,-4.7447,-5.0206,-5.4376,-5.6022,-5.7035,-5.7583,-5.6517,-5.4982,-5.3128,-5.23,-5.2367,-5.345,-5.3501,-5.3501,-5.3501,-5.3501,-5.2173,-4.9438,-4.9384,-4.7675,-4.4317,-4.4317,-4.3763,-4.2776,-4.3125,-4.308,-4.2737,-4.3125,-4.2019,-4.0172,-4.2378,-4.1974,-4.0217,-4.2423,-4.2805,-4.1932,-4.0831,-3.9653,-3.8469,0.0,0.0,0.0,0.0,0.0,0.0,-3.2392,-3.308,-3.4218,-3.6207,-3.7015,-3.7644,-3.8302,-3.8362,-3.8108,-3.7449,-3.6237,0.0,0.0,0.0,0.0,0.0,0.0,0.0,0.0,0.0,-3.5145,-3.4503,-3.5145,-3.5489,-3.5489,-3.5489,-3.5115,-3.4503,0.0,0.0,0.0,0.0,0.0,0.0,0.0,0.0,0.0,0.0,0.0,0.0,0.0,0.0,0.0,0.0,0.0,0.0,0.0,-3.3027,0.0,0.0,-3.8915,-4.2919,-4.5877,-4.8206,-4.9748,-4.9748,-4.6404,-4.2725,-4.1238,-3.816,-3.5194,-3.3711,-3.3389,-3.3389,-3.3389,-3.3406,-3.4404,-3.7415,-3.8957,-4.0651,-4.3095,-4.5857,-4.8243,-4.9958,-5.218,-5.4414,-5.6596,-5.6139,-5.5395,-5.4617,-5.389,-5.3484,-5.3501,-5.3501,-5.3501,-5.3501,-5.3501,-5.2173,-4.9438,-4.9384,-4.7675,-4.4317,-4.4317,-4.3299,-4.1444,-4.2746,-4.2626,-4.1474,-4.2776,-4.2581,-4.1459,-4.2751,-4.2551,-4.1489,-4.2821,-4.329,-4.3155,-4.1988,-4.0873,-3.9724,0.0,0.0,0.0,0.0,0.0,0.0,0.0,-3.308,-3.4218,-3.6222,-3.703,-3.7659,-3.8317,-3.8392,-3.8123,-3.7464,-3.7045,0.0,0.0,0.0,0.0,0.0,0.0,0.0,0.0,0.0,-3.5833,-3.6477,-3.5833,-3.5729,-3.6163,-3.5714,-3.5385,-3.5175,-3.5175,-3.507,0.0,0.0,0.0,0.0,0.0,0.0,-3.5509,0.0,0.0,0.0,0.0,0.0,0.0,0.0,0.0,0.0,0.0,0.0,0.0,0.0,-3.6837,-3.9181,-4.0222,-4.2789,-4.5041,-4.458,-4.3501,-4.2043,-4.0055,-3.7949,-3.5977,-3.4472,-3.415,-3.415,-3.415,-3.4573,-3.574,-3.8244,-3.9397,-4.1342,-4.5173,-4.7352,-4.9722,-5.2807,-5.5598,-5.6951,-5.6139,-5.4938,-5.411,-5.3873,-5.2672,-5.2401,-5.345,-5.3501,-5.3501,-5.3501,-5.3501,-5.2173,-4.9438,-4.9384,-4.7675,-4.4317,-4.4317,-4.3284,-4.1429,-4.2731,-4.2611,-4.1444,-4.2776,-4.2596,-4.1489,-4.2751,-4.2566,-4.1504,-4.2821,-4.329,-4.3155,-4.2029,-4.1378,-4.0774,0.0,0.0,0.0,0.0,0.0,0.0,0.0,-3.3604,-3.4577,-3.6567,-3.7165,-3.7764,-3.8676,-3.8781,-3.8616,-3.8197,-3.8167,0.0,0.0,0.0,0.0,0.0,0.0,0.0,0.0,-3.6432,-3.6611,-3.7404,-3.6611,-3.6583,-3.7324,-3.6899,-3.688,-3.72,-3.6923,-3.6768,0.0,0.0,0.0,0.0,0.0,0.0,-3.6723,0.0,0.0,0.0,0.0,0.0,0.0,0.0,0.0,0.0,0.0,0.0,0.0,0.0,-3.6238,-3.6976,-3.8205,-4.1017,-4.3501,-4.3082,-4.2009,-4.0764,-3.9665,-3.7601,-3.5723,-3.5064,-3.5605,-3.5926,-3.5064,-3.5994,-3.7178,-3.8024,-3.9952,-4.2117,-4.4367,-4.6938,-4.9661,-5.2553,-5.5277,-5.6494,-5.5395,-5.4448,-5.3805,-5.3518,-5.2621,-5.2503,-5.345,-5.3213,-5.3061,-5.3061,-5.2707,-5.1392,-4.9037,-4.8407,-4.6664,-4.3902,-4.3902,-4.3045,-4.1429,-4.2731,-4.2611,-4.1444,-4.2776,-4.2826,0.0,-4.2961,-4.2811,-4.2207,-4.2976,-4.329,-4.321,-4.2508,-4.1988,-4.1378,0.0,0.0,0.0,0.0,0.0,0.0,0.0,-3.4503,-3.5207,-3.715,-3.7404,-3.7913,-3.9239,-3.9388,-3.9388,-3.9388,0.0,0.0,0.0,0.0,0.0,0.0,0.0,0.0,-3.7567,-3.7469,-3.7518,-3.7744,-3.7586,-3.795,-3.8774,-3.8727,-3.9157,-3.9909,-3.9207,-3.8889,0.0,0.0,0.0,0.0,-3.8405,-3.8248,0.0,0.0,0.0,0.0,0.0,0.0,0.0,0.0,0.0,0.0,0.0,0.0,0.0,0.0,0.0,0.0,0.0,-4.1839,-4.3972,-4.3972,-4.1322,-3.8937,-3.9623,-3.7094,0.0,-3.5667,-3.7533,-3.8345,-3.6225,-3.7702,-3.8734,-3.7269,-4.0612,-4.2936,-4.1644,-4.5331,-4.8646,-5.0016,-5.2283,-5.3923,-5.438,-5.4532,-5.4279,-5.3568,-5.3501,-5.3484,-5.3416,-5.2706,-5.225,-5.2116,-5.1155,-4.9883,-4.8352,-4.673,-4.4972,-4.3155,-4.3245,-4.2596,-4.1294,-4.2641,-4.2551,-4.1384,-4.2686,-4.323,-4.323,-4.3275,-4.329,-4.329,-4.329,-4.329,-4.329,-4.329,-4.2629,-4.1726,0.0,0.0,0.0,0.0,0.0,0.0,0.0,0.0,0.0,0.0,-3.7404,-3.7913,-3.9239,-3.9388,-3.9388,0.0,0.0,0.0,0.0,0.0,0.0,0.0,0.0,0.0,-3.9152,-3.8005,-3.8571,-4.0923,-3.9222,-3.8806,-3.9594,-3.9084,-3.8966,-3.9159,-3.8969,-3.8889,0.0,0.0,0.0,0.0,-3.8544,-3.8399,0.0,0.0,0.0,0.0,-3.658,-3.6162,0.0,0.0,0.0,0.0,0.0,0.0,0.0,0.0,-3.6789,-3.6535,-3.6637,0.0,-3.7736,-3.7736,-3.7036,-3.6428,0.0,0.0,0.0,0.0,0.0,-3.8836,-3.8294,-4.002,-4.1035,-3.9571,-4.1627,-4.3504,-4.3741,-4.7614,-5.0557,-5.0913,-5.3957,-5.5192,-5.3044,-5.3907,-5.4279,-5.3568,-5.3501,-5.323,-5.2604,-5.2401,-5.1715,-5.0422,-4.8947,-4.797,-4.7558,-4.6457,-4.4534,-4.1848,-4.2811,-4.2079,-3.9948,-4.1758,-4.1878,-4.0711,-4.2028,-4.262,-4.2626,-4.3135,-4.329,-4.329,-4.329,-4.329,-4.329,-4.329,-4.3115,-4.2765,0.0,0.0,0.0,0.0,0.0,0.0,0.0,0.0,0.0,0.0,0.0,0.0,0.0,0.0,0.0,0.0,0.0,0.0,0.0,0.0,0.0,0.0,0.0,-3.9284,-4.0132,-3.9321,-3.9913,-4.1997,-4.0467,-4.0133,-4.0943,-4.0229,-4.0091,-4.0461,-4.0104,-3.9972,-3.9923,-3.9155,-3.9238,-3.9836,-3.9571,0.0,0.0,0.0,0.0,0.0,-3.7444,-3.7044,0.0,-3.7185,-3.6789,-3.6332,0.0,0.0,0.0,0.0,-3.7567,-3.7212,-3.6766,-3.6417,-3.64,-3.7415,-3.6907,-3.6434,-3.7425,0.0,0.0,0.0,0.0,-3.9394,-3.9056,-4.0527,-4.1407,-4.0282,-4.166,-4.3656,-4.5805,-4.8477,-5.0202,-5.0202,-5.1995,-5.2858,-5.1894,-5.3196,-5.3923,-5.3534,-5.3501,-5.3162,-5.235,-5.1564,-5.0575,-4.9337,-4.7241,-4.6324,-4.6661,-4.5364,-4.3608,-4.1437,-4.2716,-4.2228,-4.0367,-4.1767,-4.2006,-4.1309,-4.1414,-4.1677,-4.1946,-4.1968,-4.2342,-4.2895,-4.2895,-4.3075,-4.329,-4.329,-4.329,-4.321,0.0,0.0,0.0,0.0,0.0,0.0,0.0,0.0,0.0,0.0,0.0,0.0,0.0,0.0,0.0,0.0,0.0,0.0,0.0,0.0,0.0,0.0,0.0,-4.0139,-4.0923,-4.079,-4.1158,-4.2056,-4.1273,-4.1302,-4.2047,-4.1345,-4.1427,-4.21,-4.1474,-4.1204,-4.1153,-4.0417,-4.0823,-4.1847,-4.0603,0.0,0.0,0.0,0.0,0.0,0.0,0.0,0.0,-3.8075,-3.7499,-3.7049,-3.8396,0.0,0.0,0.0,0.0,0.0,-3.777,-3.7516,-3.7777,-3.9774,-3.8606,-3.7533,-3.9758,0.0,0.0,0.0,0.0,-4.0316,-3.9918,-4.1339,-4.2066,-4.0536,-4.1694,-4.3961,-4.7276,-4.8663,-4.9255,-4.9035,-4.9509,-5.0219,-5.11,-5.2604,-5.3501,-5.3501,-5.323,-5.2758,-5.1949,-5.0338,-4.8995,-4.8119,-4.5965,-4.4991,-4.5379,-4.3907,-4.2536,-4.125,-4.2462,-4.2357,-4.11,-4.1796,-4.2096,-4.2051,-4.0995,0.0,-4.1205,-4.095,-4.1444,-4.241,-4.2515,-4.2851,-4.329,-4.329,-4.329,-4.329,0.0,0.0,0.0,0.0,0.0,0.0,0.0,0.0,0.0,0.0,0.0,0.0,0.0,0.0,0.0,0.0,0.0,0.0,0.0,0.0,0.0,-4.1609,-4.1609,-4.1725,-4.1964,-4.1259,-4.1306,-4.2238,-4.1399,-4.1109,-4.1341,-4.1223,-4.1251,-4.1373,-4.1255,-4.1204,-4.1153,-4.0417,-4.0231,-4.0417,-4.0197,0.0,0.0,0.0,0.0,0.0,0.0,0.0,0.0,-3.8819,-3.7946,-3.6948,-3.7804,0.0,0.0,0.0,0.0,0.0,-3.7127,-3.8251,-3.9825,-4.0781,-3.9377,-3.8311,-4.0544,0.0,0.0,0.0,-4.2804,-4.232,-4.3532,-4.6493,-4.7039,-4.1863,-4.3369,-4.5602,-4.6802,-4.9221,-5.0405,-4.9154,-5.1809,-5.3078,-5.1386,-5.2604,-5.3501,-5.3501,-5.2147,-5.0949,-5.0237,-4.8578,-4.6977,-4.5452,-4.5008,-4.4181,-4.2952,-4.2668,-4.1886,-4.0561,-4.1324,-4.098,-3.9738,-4.0397,-4.0711,-4.0726,-4.107,-4.0965,-4.0666,-4.2198,-4.2686,-4.2455,-4.297,-4.32,-4.329,-4.329,-4.329,-4.329,0.0,0.0,0.0,0.0,0.0,0.0,0.0,0.0,0.0,0.0,0.0,0.0,0.0,0.0,0.0,0.0,0.0,0.0,0.0,0.0,0.0,-4.2124,-4.2515,-4.2591,-4.2219,-4.1379,-4.1399,-4.2286,-4.1516,-4.1147,-4.1187,-4.0781,-4.0595,-4.0595,-4.0595,-4.0595,-4.0578,-4.0248,-4.0096,-4.0096,0.0,0.0,0.0,0.0,0.0,0.0,0.0,0.0,0.0,0.0,-3.7686,-3.6931,-3.7669,0.0,0.0,0.0,0.0,0.0,-3.7015,-3.8132,-4.0155,-4.2946,-4.1356,-4.018,-4.4451,-4.1255,-3.9106,-4.5145,-4.325,-4.1339,-4.4107,-4.5618,-4.6126,-4.501,-4.7699,-4.9593,-4.8697,-4.9746,-5.0202,-4.9137,-5.0879,-5.1758,-5.071,-5.2367,-5.3264,-5.2679,-5.1564,-5.0331,-4.906,-4.7431,-4.6006,-4.4827,-4.3945,-4.3144,-4.241,-4.1692,-4.0995,-4.0412,-4.107,-4.0876,-3.9963,-4.0262,-4.0397,-4.0382,0.0,-3.9798,-3.9948,-4.0808,-4.1459,-4.1931,-4.2551,-4.3015,-4.329,-4.329,-4.329,-4.329,0.0,0.0,0.0,0.0,0.0,0.0,0.0,0.0,0.0,0.0,0.0,0.0,0.0,0.0,0.0,0.0,0.0,0.0,0.0,0.0,-4.2812,-4.2249,-4.2662,-4.2606,-4.1967,-4.1375,-4.1288,-4.1779,-4.1221,-4.0933,-4.0933,-4.0367,-4.0096,-4.0096,-4.0096,-4.0096,-4.0096,-4.0096,-4.0096,-4.0096,0.0,0.0,0.0,0.0,0.0,0.0,0.0,0.0,0.0,0.0,0.0,0.0,0.0,0.0,0.0,-3.6502,-3.7043,-3.7516,-3.6965,-3.799,-4.0172,-4.3961,0.0,-4.1762,-4.8088,-4.3758,-4.0375,-4.7229,-4.435,-4.161,-4.4993,-4.484,-4.5167,-4.8176,-5.1099,-5.2536,-5.1319,-5.0997,-5.0676,-5.0118,-5.0541,-5.0815,-5.0554,-5.2085,-5.2596,-5.1405,-5.0484,-4.9317,-4.7819,-4.618,-4.5033,-4.4465,-4.3113,-4.2321,-4.2171,-4.098,-4.0397,-4.0397,-4.0756,-4.0651,-4.0172,-4.0172,-4.0172,-4.0127,-3.9245,-3.908,-3.9454,-3.9918,-4.0606,-4.1459,-4.2267,-4.2895,-4.329,-4.329,-4.329,-4.329,0.0,0.0,0.0,0.0,0.0,0.0,0.0,0.0,0.0,0.0,0.0,0.0,0.0,0.0,0.0,0.0,0.0,0.0,0.0,0.0,-4.2341,-4.2291,-4.1702,-4.133,-4.1278,-4.1227,-4.0881,-4.0265,-4.0214,-4.018,-4.018,-4.013,-4.0096,-4.0096,-4.0096,-4.0096,-4.0096,-4.0096,-4.0096,-4.0096,-4.0096,0.0,0.0,0.0,0.0,0.0,0.0,0.0,0.0,0.0,0.0,0.0,0.0,0.0,-3.5684,-3.5684,-3.6248,-3.688,-3.6812,-3.8379,-4.0443,-4.2117,-4.1314,-4.1999,-4.9373,-4.528,-4.2059,-4.9458,-4.7919,-4.594,-4.8257,-4.7513,-4.7513,-5.049,-5.12,-5.2063,-5.3991,-5.3687,-5.3247,-5.3179,-5.323,-5.2858,-5.1869,-5.1911,-5.1336,-4.97,-4.8069,-4.685,-4.6126,-4.4415,-4.3453,-4.3409,-4.274,-4.2111,-4.1497,-4.0756,-4.0397,-4.0382,-3.9828,-3.9529,-3.9448,-3.9448,-3.9448,-3.9514,-4.0038,-3.9933,-3.9523,-4.1384,-4.1886,-4.1504,-4.2776,-4.3245,-4.329,-4.329,-4.329,-4.329,0.0,0.0,0.0,0.0,0.0,0.0,0.0,0.0,0.0,0.0,0.0,0.0,0.0,0.0,0.0,0.0,0.0,0.0,0.0,-4.1856,-4.21,-4.1644,-4.1356,-4.0984,-4.0536,-4.0536,-4.0383,-4.0096,-4.0096,-4.0096,-4.0096,-4.0096,-4.0096,-4.0096,-4.0096,-4.0096,-4.0096,-4.0096,-4.0096,-4.0096,-4.0096,-4.0096,0.0,0.0,0.0,0.0,0.0,0.0,0.0,0.0,-3.6299,-3.6062,0.0,-3.5836,-3.56,-3.56,-3.5802,-3.6062,-3.6062,-3.7364,-3.9546,-4.2878,-4.1907,-4.2059,-4.9509,-4.6887,-4.4886,-5.186,-4.9255,-4.5821,-4.6177,-4.8054,-4.9915,-5.1031,-5.2401,-5.3619,-5.4465,-5.3957,-5.3501,-5.3501,-5.2904,-5.2364,-5.1921,-5.134,-5.0246,-4.8529,-4.7481,-4.6336,-4.4983,-4.3873,-4.315,-4.2746,-4.2087,-4.1467,-4.0771,-4.0113,-3.9783,-3.9783,-3.9508,-3.9634,-4.0023,-3.9604,-3.9388,-3.9388,-3.9679,-3.9649,-3.9508,-4.1115,-4.1647,-4.1504,-4.2821,-4.329,-4.329,-4.329,-4.329,-4.329,0.0,0.0,0.0,0.0,0.0,0.0,0.0,0.0,0.0,0.0,0.0,0.0,0.0,0.0,0.0,0.0,0.0,0.0,-4.0823,-4.1322,-4.1373,-4.0865,-4.0849,-4.0612,-4.0113,-4.0096,-4.0096,-4.0096,-4.0096,-4.0096,-4.0096,-4.0096,-4.0096,-4.0096,-4.0096,-4.0096,-4.0096,-4.0096,-4.0096,-4.0096,-4.0096,-4.0096,0.0,0.0,0.0,0.0,0.0,0.0,0.0,0.0,0.0,0.0,0.0,0.0,0.0,0.0,-3.5769,-3.5994,-3.5994,-3.7094,-3.914,-4.2939,0.0,-4.2388,-4.9864,-4.8122,-4.6718,-5.2959,-5.0997,-4.7868,-4.6853,-4.8968,-5.0947,-5.1151,-5.2253,-5.331,-5.3998,-5.3181,-5.2539,-5.2539,-5.1865,-5.1303,-5.0951,-5.0112,-4.8883,-4.7113,-4.6413,-4.5492,-4.4073,-4.3544,-4.303,-4.2425,-4.1767,-4.107,-4.0412,-3.9753,-3.9388,-3.9388,-3.9388,-3.9649,-4.0068,-3.9634,-3.9388,-3.9388,-3.9388,-3.9388,-3.9514,-4.0846,-4.1624,-4.2087,-4.2946,-4.329,-4.329,-4.329,-4.329,-4.329,0.0,0.0,0.0,0.0,0.0,0.0,0.0,0.0,0.0,0.0,0.0,0.0,0.0,0.0,0.0,0.0,0.0,0.0,-4.0096,-4.0096,-4.0096,-4.0096,-4.0096,-4.0096,-4.0096,-4.0096,-4.0096,-4.0096,-4.0096,-4.0096,-4.0096,-4.0096,-4.0096,-4.0096,-4.013,-4.013,-4.0096,-4.013,-4.013,-4.0096,-4.0096,-4.0096,-3.9943,0.0,0.0,0.0,0.0,0.0,0.0,0.0,-3.56,0.0,0.0,0.0,0.0,0.0,-3.6197,-3.6829,-3.6846,-3.7912,-3.9529,-4.1745,-4.1762,-4.3139,-5.0557,-4.8866,-4.7208,-5.2435,-5.3501,-5.301,-5.1438,-5.0608,-5.0355,-5.105,-5.0359,-5.0451,-5.2662,-5.148,-5.0397,-5.0397,-5.0397,-4.997,-4.8907,-4.8165,-4.7113,-4.5417,-4.4691,-4.3992,-4.3334,-4.329,-4.303,-4.241,-4.1752,-4.1055,-4.0382,-3.9738,-3.9373,-3.9394,-3.9373,-3.9373,-3.9373,-3.9388,-3.9388,-3.9373,-3.9388,-3.9388,-3.9514,-4.0846,-4.2147,-4.329,-4.329,-4.329,-4.329,-4.329,-4.329,-4.329,0.0,0.0,0.0,0.0,0.0,0.0,0.0,0.0,0.0,0.0,0.0,0.0,0.0,0.0,0.0,0.0,0.0,0.0,-4.0096,-4.0096,-4.0096,-4.0096,-4.0096,-4.0096,-4.0096,-4.0096,-4.0096,-4.0096,-4.0096,-4.0096,-4.0096,-4.0096,-4.0096,-4.018,-4.1728,-4.1559,-4.0197,-4.1762,-4.1508,-4.0062,-3.9554,-3.9326,-3.9182,0.0,0.0,0.0,0.0,0.0,0.0,0.0,0.0,0.0,0.0,0.0,0.0,-3.8456,-3.821,-3.7905,-3.9478,-3.9462,-3.9665,-4.2405,-4.2724,-4.3455,-4.7514,-4.8223,-4.9069,-5.2739,-5.2655,-5.1437,-4.9932,-5.0593,-5.092,-4.9609,-4.9834,-5.0413,-5.1081,-5.0717,-5.0397,-5.0397,-4.9734,-4.9135,-4.8825,-4.7572,-4.6328,-4.5376,-4.4691,-4.3992,-4.3334,-4.2895,-4.2381,-4.1737,-4.104,-4.0142,-3.899,-3.9275,-3.8945,-3.8018,-3.8482,-3.8691,-3.8706,-3.92,-3.9155,-3.8721,-3.9215,-3.9388,-3.9514,-4.0846,-4.1878,-4.2701,-4.315,-4.329,-4.329,-4.329,-4.329,-4.329,0.0,0.0,0.0,0.0,0.0,0.0,0.0,0.0,0.0,0.0,0.0,0.0,0.0,0.0,0.0,0.0,0.0,0.0,0.0,-4.0096,-4.0096,-4.0096,-4.0096,-4.0096,-4.0096,-4.0096,-4.0096,-4.0096,-4.0096,-4.0096,-4.0096,-4.0096,-4.0096,-4.018,-4.1796,-4.1457,-3.9774,-4.139,-4.0984,-3.9208,-3.9056,-3.8819,-3.8497,0.0,0.0,0.0,0.0,0.0,0.0,0.0,0.0,0.0,0.0,0.0,0.0,-3.9217,-3.9445,-3.986,-4.0772,-4.0625,-4.0967,-4.4368,-4.4302,-4.4105,-4.686,-4.8371,-5.0259,-5.3839,-5.3071,-5.146,-5.0549,-5.09,-5.0896,-4.9505,-4.9549,-4.9773,-4.9773,-4.9432,-4.9166,-4.9166,-4.861,-4.8118,-4.7843,-4.6641,-4.5633,-4.496,-4.4302,-4.3643,-4.2985,-4.262,-4.1976,-4.1025,-4.0606,-3.9753,-3.8407,-3.8796,-3.8467,-3.7404,-3.7808,-3.7868,-3.7674,-3.8586,-3.8781,-3.8422,-3.9125,-3.9574,-3.9888,-4.095,-4.1811,-4.247,-4.3075,-4.329,-4.329,-4.329,-4.329,-4.329,0.0,0.0,0.0,0.0,0.0,0.0,0.0,0.0,0.0,0.0,-4.0096,0.0,0.0,0.0,0.0,0.0,0.0,0.0,0.0,0.0,-4.0096,-4.0096,-4.0096,-4.0096,-4.0096,-4.0096,-4.0096,-4.0096,-4.0096,-4.0096,-4.0096,-4.0096,-4.0062,-4.0045,-4.0899,-4.0409,-3.8954,-3.9842,-3.9292,-3.7973,-3.8633,-3.8497,-3.7973,-3.8633,0.0,0.0,0.0,0.0,0.0,0.0,0.0,0.0,0.0,0.0,-4.0747,-3.8937,-4.024,-4.2141,-4.1564,-4.1756,-4.2997,-4.6801,-4.5981,-4.5079,-4.8201,-4.926,-5.0801,-5.499,-5.3878,-5.2221,-5.2389,-5.1214,-5.0242,-5.0242,-4.9336,-4.8677,-4.8677,-4.7876,-4.7309,-4.7309,-4.7249,-4.698,-4.6339,-4.5648,-4.496,-4.4362,-4.3663,-4.3045,-4.2425,-4.2336,-4.1737,-4.0442,-4.0277,-3.9589,-3.8317,-3.8302,-3.7943,-3.724,-3.73,-3.7,-3.6447,-3.7778,-3.8422,-3.8527,-3.9155,-3.9783,-4.0442,-4.1115,-4.1811,-4.247,-4.3075,-4.329,-4.329,-4.329,-4.329,-4.329,0.0,0.0,0.0,0.0,0.0,0.0,0.0,0.0,0.0,0.0,0.0,0.0,0.0,0.0,0.0,0.0,0.0,0.0,0.0,0.0,-4.0096,-4.0096,-4.0096,-4.0096,-4.0096,-4.0096,-4.0096,-4.0096,-4.0096,-4.0096,-4.0096,-4.0096,-3.9791,-3.9309,-4.1204,-4.0595,-3.8261,-4.0155,-3.9783,-3.7922,-3.8075,-3.8041,-3.7922,-3.8091,-3.8041,0.0,0.0,0.0,0.0,0.0,0.0,0.0,-3.8091,-3.9022,-4.0561,-4.1863,-4.2105,-4.2565,-4.5176,-4.4784,-4.3951,-4.5358,-4.5734,-4.6853,-5.102,-5.0736,-5.0297,-5.2781,-5.1458,-5.0217,-5.1476,-5.0287,-4.9135,-4.9135,-4.8293,-4.7609,-4.7609,-4.7424,-4.7309,-4.7309,-4.686,-4.6444,-4.6294,-4.5229,-4.4466,-4.4332,-4.3663,-4.3045,-4.2425,-4.1916,-4.122,-4.0427,-3.9379,-3.8437,-3.7629,-3.7629,-3.7045,-3.5923,-3.6432,-3.6342,-3.5774,-3.7569,-3.8691,-3.92,-3.9349,-3.9783,-4.0442,-4.1115,-4.1811,-4.247,-4.3075,-4.329,-4.329,-4.329,-4.329,-4.329,0.0,0.0,0.0,0.0,0.0,0.0,0.0,0.0,0.0,0.0,0.0,0.0,0.0,0.0,0.0,0.0,0.0,0.0,0.0,0.0,-4.0096,-4.0096,-4.0096,-4.0096,-4.0096,-4.0096,-4.0096,-4.0096,-4.0096,-3.9926,-3.9571,-3.9571,-3.9174,-3.8531,-4.0037,-3.9462,-3.7466,-3.8988,-3.8548,-3.685,-3.7601,-3.7702,-3.7483,-3.8548,-3.8717,-3.8464,-3.8819,0.0,0.0,0.0,0.0,0.0,0.0,0.0,-4.1627,-4.1373,-4.2215,-4.3335,-4.4023,-4.4529,-4.523,-4.6454,-4.7707,-4.9075,-5.0905,-5.0575,-5.0081,-5.0828,-5.0018,-4.9342,-4.9869,-4.8947,-4.8057,-4.8057,-4.7651,-4.7309,-4.7309,-4.7309,-4.7309,-4.7309,-4.6726,-4.6145,-4.5858,-4.4915,-4.4182,-4.3828,-4.324,-4.2581,-4.1976,-4.1265,-4.0606,-3.9948,-3.8931,-3.8078,-3.7419,-3.712,-3.6477,-3.5504,-3.5848,-3.6013,-3.6013,-3.733,-3.8287,-3.8945,-3.9275,-3.9619,-3.9978,-4.0636,-4.1332,-4.1991,-4.2611,-4.306,-4.329,-4.329,-4.329,-4.329,0.0,0.0,0.0,0.0,0.0,0.0,0.0,0.0,0.0,0.0,0.0,0.0,0.0,0.0,0.0,0.0,0.0,0.0,0.0,0.0,0.0,-4.0096,-4.0096,-4.0096,-4.0096,-4.0096,-4.0096,-4.0096,-3.9977,-3.9876,-3.9749,-3.9749,-3.9377,-3.8684,-3.9157,-3.8413,-3.6829,-3.7297,-3.6857,-3.5943,-3.7347,-3.7601,-3.7405,-3.9351,-3.9723,-3.9259,-3.9893,-4.0096,-4.0096,-4.0096,0.0,0.0,0.0,0.0,-4.2354,-3.9901,-4.1437,-4.3546,-4.1667,-4.3508,-4.6434,-4.8329,-4.9598,-5.0321,-4.9955,-4.9851,-4.9778,-4.9404,-4.9224,-4.894,-4.8237,-4.7668,-4.7309,-4.7309,-4.7309,-4.7309,-4.7309,-4.7309,-4.7264,-4.7145,-4.6561,-4.5873,-4.5185,-4.4526,-4.3888,-4.3334,-4.2559,-4.1903,-4.1414,-4.0487,-3.972,-3.9224,-3.8482,-3.7808,-3.7255,-3.6626,-3.6043,-3.5504,-3.5504,-3.5789,-3.6342,-3.6971,-3.7674,-3.8422,-3.9125,-3.9484,-3.9634,-4.0172,-4.0786,-4.1467,-4.2021,-4.2581,-4.3125,-4.3125,-4.32,-4.329,0.0,0.0,0.0,0.0,0.0,0.0,0.0,0.0,0.0,0.0,-4.0096,-4.0096,0.0,0.0,0.0,0.0,0.0,0.0,0.0,0.0,0.0,-4.0096,-4.0096,-4.0096,-4.0096,-4.0096,-4.0096,-4.0096,-3.9469,-4.0409,-4.2801,-4.2801,-4.2422,-4.1677,-4.1153,-3.9377,-3.6761,-3.6163,-3.6197,-3.6705,-3.7567,-3.8227,-3.8802,-3.974,-4.0045,-3.9977,-4.0062,-4.0096,-4.0096,-4.0096,-4.0096,0.0,0.0,0.0,-4.0468,-4.0079,-4.0608,-4.1493,-4.2381,-4.4585,-4.7123,-4.9083,-4.8343,-4.79,-5.0396,-4.9719,-4.8686,-4.9209,-4.8865,-4.8222,-4.7563,-4.7369,-4.7309,-4.7309,-4.7309,-4.7309,-4.7309,-4.7309,-4.71,-4.6516,-4.5843,-4.517,-4.4511,-4.3813,-4.3394,-4.3305,-4.1865,-4.114,-4.1376,-3.9323,-3.8281,-3.8521,-3.7375,-3.6701,-3.6611,-3.5953,-3.5594,-3.5504,-3.5504,-3.5549,-3.5669,-3.6312,-3.7255,-3.8422,-3.9125,-3.9738,-4.0277,-4.0367,-4.0786,-4.1384,-4.1512,-4.1946,-4.253,-4.253,-4.2851,-4.329,0.0,0.0,0.0,0.0,0.0,0.0,0.0,0.0,0.0,0.0,0.0,-4.0096,0.0,0.0,0.0,0.0,0.0,0.0,0.0,0.0,0.0,-4.0096,-4.0096,-4.0096,-4.0096,-4.0096,-3.991,-3.9486,-3.9157,-4.1153,-4.5314,-4.5737,-4.4637,-4.2337,-4.3301,-4.1373,-3.7466,-3.8362,-3.8227,-3.7432,-3.777,-3.8345,-3.9039,-3.9343,-3.974,-4.0096,-4.0096,-4.0096,-4.0096,-4.0096,-4.0096,-4.0028,-3.9622,0.0,0.0,0.0,-3.9588,-4.0906,-4.3282,-4.3876,-4.4822,-4.8941,-4.8195,-4.728,-5.0483,-4.9703,-4.8581,-4.9598,-4.9,-4.8087,-4.7429,-4.7309,-4.7309,-4.7309,-4.7309,-4.7309,-4.7309,-4.7309,-4.7055,-4.6396,-4.5723,-4.5035,-4.4377,-4.3678,-4.329,-4.329,-4.1408,-4.0336,-4.0466,-3.7944,-3.6552,-3.6716,-3.5533,-3.5131,-3.5644,-3.4999,-3.4953,-3.5504,-3.5504,-3.5504,-3.5534,-3.6193,-3.6985,-3.7883,-3.8556,-3.923,-3.9843,-3.9843,-4.0232,-4.0876,-4.1235,-4.1587,-4.1946,-4.2641,-4.2865,-4.2836,0.0,0.0,0.0,0.0,0.0,0.0,0.0,0.0,0.0,0.0,0.0,0.0,0.0,0.0,0.0,0.0,0.0,0.0,0.0,0.0,0.0,-3.9842,-4.0011,-4.0011,-3.9825,-3.9825,-3.9469,-3.8717,-3.8531,-4.1128,-4.629,-4.7394,-4.6718,-4.4621,-4.5957,-4.4282,-4.0493,-4.1187,-4.0646,-3.9292,-3.9089,-3.9005,-3.9005,-3.9191,-3.9622,-4.0079,-3.9893,-3.9943,-4.0045,-3.9673,-3.9791,-3.9943,-3.9005,-3.9249,0.0,0.0,0.0,-3.9604,-4.2398,-4.2241,-4.24,-4.7059,-4.689,-4.6307,-4.909,-4.8716,-4.8057,-4.9,-4.8865,-4.8282,-4.7459,-4.7309,-4.7309,-4.7309,-4.7309,-4.7309,-4.7309,-4.7309,-4.6995,-4.6157,-4.5603,-4.4975,-4.4152,-4.3574,-4.317,-4.29,-4.0717,-3.9382,-3.9342,-3.6573,-3.5002,-3.5159,-3.4108,-3.3942,-3.4733,-3.4511,-3.4758,-3.5504,-3.5504,-3.5504,-3.5519,-3.6013,-3.6671,-3.7449,-3.8108,-3.8781,-3.9388,-3.9388,-3.9709,-4.0202,-4.0696,-4.0995,-4.125,-4.2222,-4.2491,-4.247,0.0,0.0,0.0,0.0,0.0,0.0,0.0,0.0,0.0,0.0,0.0,0.0,-4.0096,-4.0096,-4.0096,-4.0096,-4.0096,0.0,0.0,0.0,0.0,-3.9089,-3.974,0.0,-3.9056,-3.9056,-3.87,-3.7973,-3.7246,-3.9588,-4.4767,-4.6904,-4.8903,-5.0661,-4.9407,-4.8291,-4.7145,-4.3707,-4.2591,-4.3037,-4.2354,-4.0832,-3.9073,-3.9791,-4.0079,-4.0011,-3.9292,-3.952,-3.9893,-3.8481,-3.8937,-3.9859,-3.8413,-3.8464,-3.8751,0.0,0.0,0.0,-3.8379,-3.9752,-4.0977,-4.2423,-4.3204,-4.3898,-4.5289,-4.6037,-4.6399,-4.6474,-4.7967,-4.8865,-4.7534,-4.7309,-4.7309,-4.7309,-4.7309,-4.7309,-4.7309,-4.7309,-4.6815,-4.5514,-4.5319,-4.4796,-4.3469,-4.3319,-4.286,-4.1767,-3.9575,-3.8214,-3.809,-3.5345,-3.4005,-3.4434,-3.3762,-3.3625,-3.4051,-3.4968,-3.5439,-3.5504,-3.5504,-3.5504,-3.5504,-3.5549,-3.6237,-3.7449,-3.8108,-3.8781,-3.9388,-3.9388,-3.9403,-3.9469,-3.9514,-3.9903,-4.0457,-4.0531,-4.1324,-4.2396,0.0,0.0,0.0,0.0,0.0,0.0,0.0,0.0,0.0,0.0,0.0,0.0,0.0,-4.0096,-4.0096,-4.0096,-4.0096,0.0,0.0,0.0,0.0,-3.9723,-3.996,-3.9977,-3.9723,-3.9225,-3.8633,-3.7905,-3.7144,-3.8742,-4.2455,-4.4215,-4.6452,-4.9207,-5.2536,-5.1217,-4.6532,-4.7073,-4.4959,-4.1457,-4.3623,-4.2557,-3.9842,-4.106,-4.1796,-4.1999,-4.0307,-4.0781,-4.1931,-3.9969,-3.9673,-3.9842,-3.8362,-3.8413,-3.8802,-3.7804,-3.6647,-3.612,-3.8057,-3.7655,-3.76,-4.1438,-4.1302,-4.1085,-4.4511,-4.5828,-4.6202,-4.5753,-4.7578,-4.8745,-4.6995,-4.7025,-4.7309,-4.7309,-4.7309,-4.7309,-4.7309,-4.7309,-4.6965,-4.6067,-4.5559,-4.4945,-4.4047,-4.288,-4.2029,-4.1629,-3.8638,-3.6907,-3.7012,-3.3821,-3.2136,-3.2462,-3.2162,-3.2635,-3.3993,-3.4986,-3.5504,-3.5504,-3.5504,-3.5504,-3.5519,-3.5953,-3.6596,-3.7449,-3.8108,-3.8781,-3.9388,-3.9388,-3.9388,-3.9454,-3.9888,-4.0187,-4.0502,-4.1392,-4.1991,-4.247,0.0,0.0,0.0,0.0,0.0,0.0,0.0,0.0,-4.0096,-4.0096,0.0,0.0,0.0,0.0,-4.0096,-4.0096,-4.0096,-3.9994,-3.9757,-3.996,-3.9994,-3.974,-3.9977,-3.9994,-3.974,-3.9242,-3.8514,-3.7533,-3.7049,-3.7946,-4.0138,-4.2117,-4.4384,-4.6989,-5.1454,-5.1674,-4.8781,-5.0219,-4.8257,-4.4282,-4.5551,-4.457,-4.2448,-4.3149,-4.3758,-4.4035,-4.3064,-4.3183,-4.3589,-4.211,-4.128,-4.0561,-3.9106,-3.8294,-3.7821,-3.7601,-3.6323,-3.5315,-3.686,-3.5748,-3.5132,-3.9101,-3.905,-3.8931,-4.2222,-4.4362,-4.5394,-4.4496,-4.6785,-4.8476,-4.6935,-4.701,-4.7309,-4.7309,-4.7309,-4.7309,-4.7309,-4.7309,-4.7055,-4.6396,-4.5723,-4.5035,-4.4377,-4.267,-4.142,-4.1042,-3.8035,-3.6149,-3.5887,-3.3237,-3.1782,-3.1875,-3.2038,-3.2749,-3.3993,-3.4986,-3.5504,-3.5504,-3.5504,-3.5624,-3.5848,-3.6297,-3.6941,-3.7764,-3.8197,-3.8781,-3.9388,-3.9388,-3.9508,-3.9768,-3.9993,-4.0337,-4.0816,-4.1459,-4.2021,-4.247,0.0,0.0,0.0,0.0,0.0,0.0,0.0,0.0,-4.0096,-4.0096,0.0,0.0,0.0,0.0,0.0,-4.0096,-4.0096,-3.9808,-3.9073,-3.9706,-3.9791,-3.9056,0.0,0.0,-3.9005,-3.8971,-3.8268,-3.6795,-3.6778,-3.7127,-3.7905,-4.0781,-4.2956,-4.4479,-4.5974,-4.9492,-5.4177,-5.279,-5.2097,-5.1657,-4.8325,-4.6836,-4.6532,-4.6024,-4.5754,-4.5838,-4.7344,-4.6481,-4.4666,-4.4666,-4.365,-4.21,-4.0535,-3.8017,-3.5769,-3.6552,-3.5275,-3.3768,0.0,0.0,0.0,-3.5115,-3.6387,-3.7509,-3.8182,-4.1369,-4.3838,-4.2605,-4.5495,-4.7997,-4.7369,-4.7279,-4.7309,-4.7309,-4.7309,-4.7309,-4.7309,-4.7309,-4.707,-4.6384,-4.5738,-4.5065,-4.4407,-4.2643,-4.1099,-3.9986,-3.7755,-3.5944,-3.4758,-3.369,-3.3024,-3.283,-3.3589,-3.4027,-3.4027,-3.5019,-3.5504,-3.5504,-3.5504,-3.5833,-3.6462,-3.6492,-3.7195,-3.8362,-3.8407,-3.8796,-3.9388,-3.9388,-3.9798,-4.0307,-3.9694,-4.0247,-4.1309,-4.0681,-4.128,-4.2425,0.0,0.0,0.0,0.0,0.0,-4.0096,-4.0096,-4.0096,-4.0096,0.0,0.0,0.0,-4.0096,-4.0096,-4.0096,-4.0096,-4.0096,-4.0011,-3.9808,-3.9994,-4.0011,-3.9808,-3.9994,-3.9757,-3.9005,-3.8481,-3.7736,-3.6795,-3.6214,-3.6045,-3.6259,-3.7669,-3.8819,-3.9851,-4.2405,-4.4637,-4.6667,-4.8951,-4.7411,-4.3955,-4.9441,-4.775,-4.2465,-4.7107,-4.687,-4.4316,-4.638,-4.6701,-4.6177,-4.6177,-4.5207,-4.343,-4.029,-3.799,-3.6415,-3.6119,-3.4856,-3.3664,-3.39,0.0,0.0,0.0,0.0,0.0,-3.6746,-3.9334,-4.1384,-4.1025,-4.3703,-4.6067,-4.5888,-4.6651,-4.7309,-4.7309,-4.7309,-4.7309,-4.7309,-4.7309,-4.7234,-4.7055,-4.6441,-4.5768,-4.5095,-4.2596,-4.0735,-3.997,-3.6804,-3.4839,-3.472,-3.3533,-3.3014,-3.3224,-3.372,-3.4361,-3.51,-3.5359,-3.5504,-3.5504,-3.5504,-3.5609,-3.5804,-3.6731,-3.7345,-3.7734,-3.8706,-3.9245,-3.9388,-3.9388,-3.9493,-3.9723,-4.0023,-4.0651,-4.1452,-4.1752,-4.2342,-4.306,0.0,0.0,0.0,0.0,0.0,-4.0096,-4.0096,-4.0096,-4.0096,0.0,0.0,0.0,-4.0096,-4.0096,-4.0096,-4.0096,-4.0096,-4.0096,-4.0096,-4.0096,-4.0096,-4.0096,-4.0096,-3.991,-3.9462,-3.8734,-3.799,-3.7246,-3.6485,-3.5943,-3.5616,-3.6079,-3.6535,-3.7026,-3.8751,-3.9935,-4.0849,-4.3978,-4.4891,-4.4632,-4.8629,-4.8595,-4.6527,-4.9763,-4.939,-4.7428,-4.9695,-5.0118,-4.9593,-4.9593,-4.7767,-4.4953,-4.1703,-3.9538,-3.7956,-3.678,-3.5523,-3.4335,-3.3466,-3.2381,-3.1824,-3.317,0.0,0.0,-3.5774,-3.8317,-4.0472,-4.0756,-4.3434,-4.5559,-4.499,-4.5529,-4.6052,-4.6052,-4.6052,-4.6352,-4.7189,-4.7309,-4.7309,-4.7309,-4.6726,-4.5826,-4.4691,-4.2278,-4.0329,-3.9224,-3.6468,-3.4871,-3.5032,-3.4016,-3.3737,-3.4419,-3.4551,-3.4905,-3.5504,-3.5504,-3.5504,-3.5504,-3.5504,-3.5789,-3.6327,-3.706,-3.7719,-3.8287,-3.908,-3.9388,-3.9388,-3.9388,-3.9574,-3.9873,-4.0247,-4.0965,-4.1841,-4.1946,-4.2536,-4.3245,0.0,0.0,-4.0096,-4.0096,-4.0096,-4.0096,-4.0096,-4.0096,-4.0096,0.0,-4.0096,-4.0096,-4.0096,-4.0096,-4.0096,-4.0096,-4.0096,-4.0096,-4.0096,-4.0096,-4.0096,-4.0096,-4.0096,-4.0062,-3.9977,-3.9351,-3.8633,0.0,0.0,0.0,0.0,-3.5718,-3.5718,-3.5718,-3.5633,-3.6045,-3.6931,-3.8903,-4.3369,-4.8917,-4.6887,-4.9154,-5.3636,-5.2773,-5.2131,-5.2029,-5.4566,-5.4465,-5.3129,-5.323,-5.0409,-4.6417,-4.3866,-4.1627,-3.9603,-3.7838,-3.6486,-3.5117,-3.3142,-3.2068,-3.1795,-3.2976,-3.338,0.0,-3.5011,-3.7659,-4.0083,-4.0891,-4.3389,-4.514,-4.4167,-4.3988,-4.3988,-4.3988,-4.3988,-4.4691,-4.6696,-4.716,-4.7219,-4.6995,-4.6651,-4.5687,-4.3777,-4.1954,-4.0175,-3.8419,-3.6741,-3.5705,-3.5502,-3.4908,-3.4962,-3.5885,-3.572,-3.5579,-3.5504,-3.5504,-3.5504,-3.5504,-3.5504,-3.6133,-3.73,-3.7375,-3.8108,-3.9305,-3.9394,-3.9388,-3.9388,-3.9388,-3.9768,-4.0307,-4.0367,-4.1115,-4.2111,-4.1602,-4.2162,-4.3135,0.0,-4.0096,-4.0096,-4.0096,-4.0096,-4.0096,-4.0096,-4.0096,-4.0096,-4.0096,-4.0096,-4.0096,-4.0096,-4.0096,-4.0096,-4.0096,-4.0096,-4.0096,-4.0096,-4.0096,-4.0096,-4.0096,-4.0096,-3.9825,-3.9249,-3.9056,-3.8633,-3.7905,0.0,0.0,0.0,-3.6575,-3.6575,-3.6535,-3.5893,-3.6045,-3.6829,-3.7269,-3.9563,-4.325,-4.6887,-4.8342,-4.868,-5.1995,-5.1014,-4.8392,-5.2469,-5.257,-5.0845,-5.1454,-4.9787,-4.6955,-4.4193,-4.1311,-3.8575,-3.664,-3.5102,-3.38,-3.2779,-3.2016,-3.157,-3.1824,-3.2706,0.0,-3.3829,-3.522,-3.6941,-3.8631,-3.9484,-4.0352,-4.1713,-4.1953,-4.1953,-4.1953,-4.1953,-4.2641,-4.4616,-4.6292,-4.6711,-4.5095,-4.6217,-4.6177,-4.382,-4.2378,-4.1031,-3.9662,-3.8351,-3.7003,-3.5561,-3.6022,-3.6176,-3.5899,-3.6148,-3.6043,-3.5504,-3.5504,-3.5504,-3.5504,-3.5504,-3.5908,-3.6686,-3.718,-3.7838,-3.8616,-3.9185,-3.9388,-3.9388,-3.9388,-3.9499,-3.9664,-4.0187,-4.0561,-4.0831,-4.1235,-4.1916,-4.2575,-4.018,-4.0417,-4.0527,-4.0163,-4.0096,-4.0096,-4.0096,-4.0096,-4.0096,-4.0096,-4.0096,-4.0096,-4.0096,-4.0096,-4.0096,-4.0096,-4.0096,-4.0096,-4.0096,-4.0096,-4.0096,-4.0096,-4.0096,-3.9943,-3.9571,-3.9174,-3.8819,-3.8447,0.0,0.0,0.0,0.0,-3.7168,-3.6795,-3.6755,-3.6552,-3.6231,-3.6643,-3.8497,-4.1559,-4.5703,-4.7784,-4.8815,-5.2215,-5.2097,-5.0439,-5.2689,-5.2773,-5.1725,-5.1352,-5.0276,-4.8709,-4.6252,-4.3803,-4.1271,-3.8088,-3.6232,-3.4838,-3.2999,-3.2004,-3.1585,-3.1914,-3.2766,0.0,0.0,-3.5265,-3.6821,-3.8123,-3.8916,-3.9499,-3.9828,-3.9888,-3.9888,-3.9888,-3.9888,-4.0232,-4.122,-4.3928,-4.5813,-4.5813,-4.6696,-4.6325,-4.382,-4.305,-4.1896,-4.0039,-3.8766,-3.7938,-3.7579,-3.7076,-3.6744,-3.6661,-3.6554,-3.6178,-3.5519,-3.5504,-3.5504,-3.5504,-3.5504,-3.5848,-3.6507,-3.712,-3.7764,-3.8422,-3.9125,-3.9388,-3.9388,-3.9388,-3.9388,-3.9484,-4.0142,-4.0397,-4.0442,-4.0771,-4.1557,-4.2351,-4.0485,-4.0781,-4.0967,-4.0231,-4.0096,-4.0096,-4.0096,-4.0096,-4.0096,-4.0096,-4.0096,-4.0214,-4.0502,-4.0146,-4.0062,-4.0502,-4.04,-4.0265,-4.0113,-4.0367,-4.0333,-3.991,-4.0028,-4.0028,-3.9893,-3.9453,-3.9208,-3.9208,0.0,0.0,0.0,0.0,-3.7787,-3.7252,-3.755,-3.7398,-3.6918,-3.7432,-3.936,-4.2337,-4.5348,-4.7716,-4.9746,-5.2469,-5.323,-5.2892,-5.3179,-5.3365,-5.323,-5.1403,-5.046,-4.9758,-4.7686,-4.57,-4.339,-3.9812,-3.7772,-3.6135,-3.3575,-3.2392,-3.2019,-3.2572,-3.32,-3.3829,0.0,0.0,0.0,-3.7719,-3.8691,-3.9125,-3.8033,-3.7838,-3.7838,-3.7838,-3.7838,-3.7958,-3.8347,-4.1145,-4.3823,-4.5574,-4.5783,-4.4961,-4.2866,-4.2424,-4.1624,-4.0027,-3.8949,-3.8735,-3.9556,-3.813,-3.7396,-3.7579,-3.6985,-3.6357,-3.5699,-3.5564,-3.5504,-3.5504,-3.5624,-3.6028,-3.6686,-3.7315,-3.7958,-3.8616,-3.917,-3.9388,-3.9388,-3.9388,-3.9388,-3.9433,-4.0008,-4.0217,-4.0232,-4.0352,-4.1145,-4.2156,-4.1356,-4.1136,-4.0967,-4.0231,-4.0096,-4.0096,-4.0096,-4.0096,-4.0096,-4.0096,-4.0096,-4.0603,-4.1897,-4.029,-3.9901,-4.1863,-4.1457,-4.0798,-4.0146,-4.1331,-4.1153,-3.9208,-3.9757,-3.9791,-3.914,-3.969,-3.9977,-3.9977,0.0,0.0,0.0,0.0,-3.8819,-3.8684,-3.7472,-3.8657,-4.1491,-4.0933,-4.2439,-4.5449,-4.8409,-4.8612,-4.7631,-5.1894,-5.2249,-5.0659,-5.1961,-5.2892,-5.3061,-5.0219,-4.8671,-4.7655,-4.5994,-4.3141,-4.0284,-3.9655,-3.7744,-3.5613,-3.4561,-3.3769,-3.329,-3.3365,-3.3873,-3.4414,-3.4488,0.0,-3.5744,-3.5818,0.0,-3.6013,-3.5863,0.0,0.0,-3.5833,-3.5833,-3.6432,-3.8153,-3.8781,-3.9379,-4.0217,-4.0322,-4.0032,-3.9308,-3.8287,-3.8283,-3.9788,-3.9603,-3.9462,-3.9581,-3.9289,-3.8868,-3.8302,-3.7644,-3.7,-3.6372,-3.5804,-3.5504,-3.5519,-3.6088,-3.6701,-3.733,-3.7973,-3.8646,-3.9305,-3.9394,-3.9388,-3.9388,-3.9388,-3.9388,-3.9388,-3.9463,-3.9493,-3.9604,-4.0187,-4.0861,-4.1602,-4.1491,-4.1542,-4.1457,-4.0299,-4.0096,-4.0096,-4.0096,-4.0096,-4.0096,-4.0096,-4.0096,-4.0815,-4.2726,-4.2117,-4.2455,-4.4705,-4.4621,-4.4316,-4.3995,-4.3335,-4.2523,-4.1593,-4.0612,-3.996,-3.9656,-3.9943,-4.0096,-4.0096,-4.0096,0.0,0.0,0.0,-3.9419,-3.8988,-3.8809,-3.9825,-4.1677,-4.1779,-4.3335,-4.5771,-4.6566,-4.6853,-4.7242,-5.1268,-5.1944,-5.0659,-4.9999,-5.0794,-5.1589,-4.7733,-4.7636,-4.8512,-4.5064,-4.3057,-4.1787,-4.1007,-3.8324,-3.572,-3.6084,-3.5714,-3.531,-3.5684,-3.5968,-3.6267,-3.6656,-3.6103,-3.5504,-3.5504,0.0,0.0,0.0,0.0,0.0,0.0,-3.5504,-3.5789,-3.6596,-3.6372,-3.7225,-4.0202,-4.0217,-4.0047,-4.0241,-3.8416,-3.8014,-4.0043,-3.975,-3.9289,-3.8907,-3.9587,-3.9499,-3.8422,-3.8123,-3.7494,-3.6492,-3.6207,-3.5878,-3.5519,-3.6178,-3.6626,-3.6911,-3.7928,-3.8542,-3.8841,-3.9245,-3.9388,-3.9388,-3.9388,-3.9388,-3.9388,-3.9388,-3.9388,-3.9499,-4.0157,-4.0816,-4.1512,-4.2066,-4.2236,-4.2134,-4.0671,-4.0417,-4.0333,-4.013,-4.062,-4.0984,-4.0984,-4.0984,-4.1779,-4.3826,-4.3115,-4.3589,-4.6261,-4.6498,-4.6498,-4.6498,-4.4959,-4.3832,-4.3409,-4.1271,-4.0197,-4.0417,-4.0214,-4.0096,-4.0096,-4.0096,0.0,0.0,0.0,0.0,-3.9334,-3.9656,-4.0527,-4.188,-4.2828,-4.4654,-4.6921,-4.6989,-4.7411,-4.8257,-5.0541,-5.1319,-5.0948,-4.9171,-4.9678,-5.0559,-4.6279,-4.6766,-4.8477,-4.4477,-4.3117,-4.2864,-4.2032,-3.9524,-3.7154,-3.8004,-3.7898,-3.7584,-3.7659,-3.7674,-3.7659,-3.7614,-3.6507,-3.5504,-3.5504,-3.5504,0.0,0.0,0.0,-3.5504,-3.5504,0.0,-3.5504,-3.5504,-3.507,-3.6073,-3.9655,-3.9498,-3.929,-3.9753,-3.7771,-3.7266,-3.9194,-3.8896,-3.8504,-3.8153,-3.9394,-3.9679,-3.8691,-3.8497,-3.7943,-3.7015,-3.6836,-3.6492,-3.6043,-3.6686,-3.7015,-3.7045,-3.8167,-3.8676,-3.8691,-3.92,-3.9388,-3.9388,-3.9388,-3.9388,-3.9388,-3.9388,-3.9388,-3.9514,-4.0367,-4.1085,-4.1782,-4.3504,-4.3341,-4.2885,-4.1424,-4.117,-4.0916,-4.0214,-4.1914,-4.3291,-4.3291,-4.3291,-4.391,-4.5466,-4.2371,-4.1704,-4.5415,-4.5737,-4.5737,-4.5737,-4.5669,-4.4976,-4.346,-4.1271,-4.0434,-4.1153,-4.0485,-4.0096,-4.0096,-4.0096,0.0,0.0,0.0,0.0,-4.0028,-3.9326,-4.0629,-4.3426,-4.4959,-4.7276,-5.0135,-5.2334,-5.235,-5.093,-4.961,-4.9982,-5.1083,-5.0304,-5.0541,-5.0615,-4.6689,-4.5926,-4.6257,-4.4152,-4.2704,-4.1834,-4.2265,-4.1465,-4.0413,-4.0317,-4.0292,-3.9963,-3.8676,-3.8362,-3.7868,-3.6028,-3.5549,-3.5504,-3.5504,-3.5504,-3.5504,-3.5504,-3.5504,-3.5504,-3.5504,-3.5504,0.0,0.0,-3.5489,-3.5759,-3.6552,-3.6172,-3.5795,-3.5705,-3.4732,-3.4829,-3.6507,-3.6741,-3.6976,-3.7411,-3.8686,-3.9388,-3.9394,-3.8736,-3.8362,-3.8332,-3.7704,-3.7375,-3.736,-3.8018,-3.8332,-3.8347,-3.9065,-3.9394,-3.9394,-3.9373,-3.9388,-3.9388,-3.9388,-3.9388,-3.9388,-3.9388,-3.9388,-3.9574,-4.0876,-4.1796,-4.2455,-4.4434,-4.4181,-4.3707,-4.2185,-4.1525,-4.095,-4.0214,-4.1153,-4.2277,-4.3257,-4.3859,-4.5314,-4.8291,-4.7462,-4.7411,-4.9204,-5.0287,-5.0219,-4.8697,-4.8595,-4.7953,-4.6435,-4.5196,-4.3707,-4.1965,-4.2168,-4.1559,-4.0096,-4.0096,-4.0096,0.0,0.0,0.0,-4.0096,-3.9842,-4.0815,-4.2844,-4.5348,-4.7293,-4.8714,-4.9492,-4.9204,-4.8392,-4.9357,-4.9729,-4.9712,-4.9458,-4.9145,-4.8479,-4.6154,-4.5643,-4.5588,-4.3495,-4.2539,-4.2345,-4.3377,-4.2152,-4.0734,-4.203,-4.2686,-4.288,-4.2432,-4.1324,-4.0202,-3.9544,-3.7375,-3.5504,-3.5504,-3.5504,-3.5504,-3.5504,-3.5504,-3.5504,-3.5504,-3.5504,-3.5504,0.0,-3.5115,-3.4906,-3.5162,-3.4614,-3.4593,-3.5427,-3.3595,-3.2954,-3.4394,-3.4137,-3.3809,-3.3529,-3.6417,-3.7898,-3.7494,-3.8512,-3.8856,-3.8392,-3.8167,-3.7838,-3.7419,-3.8078,-3.8392,-3.8407,-3.9095,-3.9388,-3.9388,-3.9388,-3.9388,-3.9388,-3.9388,-3.9388,-3.9388,-3.9388,-3.9694,-4.0172,-4.1055,-4.1557,-4.1901,-4.4902,-4.4615,-4.4209,-4.2912,-4.1863,-4.1305,-4.1653,-4.2083,-4.3217,-4.55,-4.5788,-4.687,-4.9779,-4.9627,-4.9729,-5.0727,-5.1488,-5.1606,-5.093,-4.9407,-4.8578,-4.868,-4.6701,-4.506,-4.3927,-4.3318,-4.2709,-4.211,-4.0756,-4.0502,0.0,0.0,0.0,-4.0096,-4.0096,-4.0485,-4.1356,-4.4908,-4.6532,-4.6786,-4.731,-4.7699,-4.8003,-4.8392,-4.8883,-4.9357,-4.9086,-4.8401,-4.7408,-4.6143,-4.5566,-4.5086,-4.3341,-4.2735,-4.2925,-4.4003,-4.312,-4.2117,-4.3658,-4.4362,0.0,-4.3793,-4.2671,-4.1647,-4.113,-3.9065,-3.7315,-3.7539,-3.7599,-3.73,-3.6357,-3.6372,-3.6222,-3.5295,-3.534,-3.5504,0.0,-3.4711,-3.4307,-3.4786,-3.4317,-3.397,-3.405,-3.2981,-3.2136,-3.178,-3.2228,-3.2093,-3.1182,-3.4936,-3.6896,-3.6492,-3.8392,-3.92,-3.8751,-3.8751,-3.8542,-3.8138,-3.8556,-3.8751,-3.8766,-3.9215,-3.9388,-3.9388,-3.9388,-3.9388,-3.9388,-3.9388,-3.9388,-3.9388,-3.9388,-3.9828,-4.0472,-4.113,-4.1683,-4.2192,-4.4902,-4.4615,-4.435,-4.3578,-4.2337,-4.2134,-4.4276,-4.4699,-4.6036,-4.9526,-4.8883,-4.8612,-4.9999,-4.8984,-4.8697,-4.9932,-4.9475,-4.9965,-5.1944,-4.8257,-4.7208,-4.9965,-4.6092,-4.4773,-4.6752,-4.4045,-4.3639,-4.5703,-4.2033,-4.1339,0.0,0.0,0.0,0.0,-4.0096,-3.9673,-3.9242,-4.372,-4.524,-4.4761,-4.6058,-4.7919,-4.9627,-4.6786,-4.753,-4.9999,-4.9255,-4.837,-4.7406,-4.6488,-4.5525,-4.4548,-4.3591,-4.329,-4.3424,-4.4077,-4.4287,-4.4451,-4.508,-4.5274,-4.4855,-4.3054,-4.25,-4.2081,-4.0831,-4.0472,-4.0576,-4.1205,-4.1324,-4.0576,-3.8063,-3.8003,-3.7539,-3.5102,-3.5145,-3.5504,-3.5504,-3.4352,-3.3963,-3.525,-3.486,-3.3733,-3.1841,-3.2794,-3.2182,-2.8931,-3.0911,-3.1749,-3.0567,-3.4188,-3.6357,-3.6492,-3.8272,-3.9254,-3.9388,-3.9313,-3.9313,-3.9388,-3.9388,-3.9388,-3.9388,-3.9388,-3.9388,-3.9388,-3.9388,-3.9388,-3.9388,-3.9388,-3.9388,-3.9388,-3.9454,-3.9888,-4.0576,-4.119,-4.2192,-4.32,-4.4902,-4.4615,-4.4547,-4.4344,-4.4434,-4.457,-4.4598,-4.5991,-4.7394,-4.8359,-4.9576,-5.0507,-5.0896,-5.1606,-5.1319,-4.9458,-5.0118,-5.0185,-4.912,-4.9526,-4.9881,-5.0084,-5.005,-4.9018,-4.6836,-4.7124,-4.6769,-4.5703,-4.3589,-4.2844,-4.3341,0.0,0.0,0.0,-4.0096,-3.9402,-3.8466,-4.2815,-4.4884,-4.5095,-4.394,-4.5128,-4.7496,-4.621,-4.753,-4.9999,-4.9255,-4.795,-4.6523,-4.6279,-4.5085,-4.363,-4.3369,-4.329,-4.3319,-4.3499,-4.3888,-4.4347,-4.4526,-4.493,-4.5289,-4.5304,-4.3823,-4.244,0.0,-4.1444,-4.0442,-4.0621,-4.0651,-4.0591,-4.0397,-3.8871,-3.7599,-3.7419,-3.6327,-3.5504,-3.5504,-3.4352,-3.3619,-3.3963,-3.257,-3.2138,-3.3573,-3.2273,-3.0967,-3.0076,-2.928,-2.9352,-3.0447,-3.2422,-3.4442,-3.6432,-3.6507,-3.7449,-3.9394,-3.8422,-3.8422,-3.9388,-3.9388,-3.9388,-3.9388,-3.9388,-3.9388,-3.9388,-3.9388,-3.9388,-3.9388,-3.9388,-3.9388,-3.9433,-3.9963,-4.0846,-4.1916,-4.2081,-4.2013,-4.2028,-4.4902,-4.4615,-4.4615,-4.4615,-4.6007,-4.7005,-4.6583,-4.731,-4.848,-5.012,-5.0862,-5.1438,-5.2147,-5.2993,-5.2824,-5.1116,-5.0524,-5.0287,-5.0355,-4.9359,-4.934,-5.0541,-5.0456,-4.9255,-4.6836,-4.7614,-4.775,-4.7141,-4.4316,-4.3589,-4.4823,0.0,0.0,0.0,-4.0096,-3.9469,-3.8601,-4.1893,-4.4103,-4.5235,-4.329,-4.4139,0.0,-4.4981,-4.6085,-4.8349,-4.7902,-4.7104,-4.6138,-4.5742,-4.4555,-4.329,-4.329,-4.329,-4.3349,-4.3633,-4.4018,-4.4317,-4.4317,-4.4586,-4.4885,-4.4949,-4.4107,-4.3314,-4.3673,-4.3135,-4.2536,-4.2536,-4.2536,-4.2297,-4.1519,-3.9918,-3.8362,-3.73,-3.6207,-3.54,-3.51,-3.4906,-3.4487,-3.3604,-3.3021,-3.3051,-3.3963,-3.139,-2.9789,-3.0073,-2.9097,-2.8828,-2.9624,-3.2302,-3.3978,-3.4307,-3.5908,-3.7075,-3.7704,-3.724,-3.7524,-3.8542,-3.8542,-3.882,-3.9388,-3.9388,-3.9388,-3.9388,-3.9388,-3.9388,-3.9388,-3.9388,-3.9388,-3.9484,-4.0142,-4.1025,-4.1976,-4.1976,-4.2096,-4.2219,-4.4767,-4.453,-4.4632,-4.4733,-4.6938,-4.8849,-4.9238,-4.8934,-4.9714,-5.2807,-5.2215,-5.1912,-5.3078,-5.3382,-5.3416,-5.323,-5.0811,-5.0405,-5.3044,-4.8849,-4.7767,-5.105,-4.9289,-4.7851,-4.709,-4.7175,-4.7902,-4.9289,-4.4891,-4.413,0.0,0.0,0.0,-4.0096,-3.991,-3.9648,-3.948,-4.0861,-4.2906,-4.5107,-4.3459,-4.4092,-4.5736,-4.3946,-4.4471,-4.6173,-4.6083,-4.6012,-4.5905,-4.5079,-4.4143,-4.329,-4.329,-4.329,-4.3409,-4.4018,-4.4182,-4.4182,-4.4182,-4.4182,-4.4062,-4.3544,-4.3783,-4.4212,-4.4287,-4.4751,-4.517,-4.517,-4.517,-4.4496,-4.2297,-4.101,-3.9275,-3.6252,-3.5549,-3.51,-3.4354,-3.5519,-3.5684,-3.3499,-3.4352,0.0,-3.3365,-3.0582,-2.9131,-2.9789,-2.9696,-2.94,-2.8996,-3.2721,-3.3948,-3.1959,-3.5624,-3.706,-3.5893,-3.6207,-3.6851,-3.7793,-3.7539,-3.8108,-3.9388,-3.9388,-3.9388,-3.9388,-3.9388,-3.9388,-3.9388,-3.9388,-3.9433,-3.9604,-4.0172,-4.0801,-4.1407,-4.128,-4.1951,-4.2614,-4.4045,-4.413,-4.4801,-4.5399,-4.643,-4.8003,-5.0456,-5.1792,-5.2317,-5.1691,-5.2486,-5.2723,-5.1725,-5.2756,-5.2993,-5.1725,-5.1133,-5.1048,-5.1589,-5.0185,-4.9881,-5.1134,-5.0253,-4.9373,-4.8629,-4.9204,-4.9949,-5.0828,-4.6989,-4.5686,-4.6684,-4.1576,-3.9537,-4.0045,-3.8819,-3.9469,-4.1354,-3.9237,-4.0746,-4.4386,-4.3266,-4.3541,-4.4689,-4.5357,-4.5853,-4.6103,-4.5322,-4.5058,-4.502,-4.4849,-4.4143,-4.329,-4.329,-4.329,-4.3319,-4.3424,-4.3469,-4.3469,-4.3469,-4.3469,-4.3559,-4.4032,-4.3783,-4.3604,-4.4182,-4.4407,-4.4481,-4.4481,-4.4481,-4.4511,-4.4586,-4.1863,-3.9035,-3.7345,-3.5714,-3.4233,-3.3021,-3.4951,-3.534,-3.2213,-3.2542,-3.2706,-3.1929,-3.0836,-3.0462,-3.1122,-3.0193,-2.9998,-3.0943,-3.1255,-3.2168,0.0,-3.3694,-3.4936,0.0,0.0,-3.709,-3.9858,-3.8197,-3.8108,-3.9388,-3.9388,-3.9388,-3.9388,-3.9388,-3.9388,-3.9388,-3.9388,-3.9738,-4.0247,-4.0352,-4.0801,-4.1309,-4.0771,-4.0518,-4.0437,-4.4739,-4.3944,-4.3623,-4.4384,-4.6092,-4.7986,-4.9796,-5.2029,-5.323,-5.2503,-5.3044,-5.323,-5.2486,-5.3061,-5.3213,-5.2469,-5.1674,-5.1369,-5.1758,-5.0355,-4.9864,-5.0608,-4.9915,-4.9001,-4.7885,-4.8951,-4.9695,-5.0067,-4.6752,-4.55,-4.6126,-4.1255,-3.8988,-3.8971,-3.9428,-4.0346,-4.1594,-4.1634,-4.2873,-4.4798,-4.4108,-4.4148,-4.4572,-4.4674,-4.469,-4.4653,-4.4167,-4.4028,-4.4028,-4.4028,-4.3708,-4.329,-4.329,-4.329,-4.329,-4.329,-4.329,-4.329,-4.329,-4.329,-4.3364,-4.3678,-4.3783,-4.3798,-4.3768,-4.4062,-4.4212,-4.3828,-4.3768,-4.3688,-4.3329,-4.1998,-4.0397,-3.8721,-3.7075,-3.5549,-3.4247,-3.5175,-3.5115,-3.2826,-3.3754,-3.4038,-3.2677,-3.2258,-3.1629,-3.0597,-3.0238,-3.0043,-3.0013,-3.1629,-3.2841,0.0,0.0,0.0,-3.6881,0.0,-3.6971,-3.8841,-3.7868,-3.8108,-3.9388,-3.9388,-3.9388,-3.9388,-3.9388,-3.9388,-3.9388,-3.9388,-3.9813,-4.0367,-4.0023,-4.0502,-4.1212,-3.9645,-3.9334,-3.9621,-4.5821,-4.4604,-4.3775,-4.4671,-4.6667,-4.8562,-4.9779,-5.1691,-5.3129,-5.3467,-5.3501,-5.3501,-5.3501,-5.3501,-5.3382,-5.3044,-5.2215,-5.1674,-5.1606,-5.027,-4.9593,-4.9847,-4.9306,-4.846,-4.7276,-4.8409,-4.9086,-4.9238,-4.6583,-4.5432,-4.5618,-4.1576,-3.914,-3.822,-4.0415,-4.1586,0.0,0.0,-4.5544,-4.6103,-4.5385,-4.5079,-4.4968,-4.3989,-4.3472,-4.329,-4.329,-4.329,-4.329,-4.329,-4.329,-4.329,-4.329,-4.329,-4.329,-4.329,-4.329,-4.329,-4.329,-4.329,-4.329,-4.329,-4.3678,-4.3932,-4.3409,-4.3693,-4.3958,-4.3409,-4.329,-4.3021,-4.2162,-4.2006,0.0,-3.9694,-3.8063,-3.6462,-3.4876,-3.5265,-3.5115,-3.3484,-3.5055,-3.5429,-3.3275,-3.308,-3.2048,-2.9564,-2.9953,-2.9998,-2.9265,-3.1898,-3.3155,0.0,0.0,-3.6073,-3.6118,0.0,-3.709,-3.8242,-3.7674,-3.8108,-3.9388,-3.9388,-3.9388,-3.9388,-3.9388,-3.9388,-3.9388,-3.9388,-3.9723,-4.0142,-3.9619,-3.9891,-4.0402,-3.8629,-3.83,-3.8549,-4.6667,-4.7073,-4.7834,-4.9221,-4.9154,-4.9847,-5.2655,-5.2147,-5.1928,-5.3331,-5.3501,-5.3501,-5.3501,-5.3501,-5.2942,-5.1555,-5.257,-5.2147,-4.9492,-5.0388,-5.0439,-4.9171,-4.9035,-4.8934,-4.8798,-4.8934,-4.9323,-4.9982,-4.8392,-4.6955,-4.5652,-4.3149,-4.0882,-3.8997,0.0,0.0,0.0,-4.4384,-4.6053,-4.8517,-4.6767,-4.6083,-4.5977,-4.5005,-4.4105,-4.329,-4.329,-4.329,-4.329,-4.329,-4.329,-4.329,-4.329,-4.329,-4.329,-4.329,-4.329,-4.329,-4.329,-4.329,-4.329,-4.329,-4.3349,-4.3364,-4.3305,-4.3349,-4.3364,-4.3305,-4.329,-4.3439,-4.3958,-4.2147,-4.0337,-3.9544,-3.7315,-3.4801,-3.2228,-3.4502,-3.5459,-3.2916,-3.4382,-3.4577,-3.1944,-3.169,-3.0838,-2.8846,-2.9295,-3.0133,-3.1167,-3.0477,-3.0791,-3.2437,-3.3903,-3.5806,-3.8108,-3.703,-3.8003,-4.098,-3.8556,-3.8108,-3.9388,-3.9388,-3.9388,-3.9388,-3.9388,-3.9388,-3.9388,-3.9388,-3.9454,-3.9514,-3.9403,-3.8892,-3.8187,-3.852,-3.7459,-3.592,-4.868,-4.7953,-4.7581,-4.8612,-4.9272,-5.0219,-5.1877,-5.2384,-5.2807,-5.3416,-5.3501,-5.3501,-5.3501,-5.3501,-5.3264,-5.2638,-5.3145,-5.2604,-5.0473,-5.0847,-5.0557,-4.9069,-4.9001,-4.9001,-4.9001,-4.9001,-4.9357,-5.0084,-4.7276,-4.5618,-4.4976,-4.2262,0.0,0.0,0.0,-4.4611,-4.5336,-4.6579,-4.7849,-4.8829,-4.6952,-4.6208,-4.6032,-4.4495,-4.3669,-4.329,-4.329,-4.329,-4.329,-4.329,-4.329,-4.329,-4.329,-4.329,-4.329,-4.329,-4.329,-4.329,-4.329,-4.329,-4.329,-4.329,-4.329,-4.329,-4.329,-4.329,-4.329,-4.329,-4.329,-4.3379,-4.3633,-4.3195,-4.2147,-4.0307,-3.9454,-3.8093,-3.5429,-3.5878,-3.6372,-3.6073,-3.5011,-3.4352,-3.4502,-3.2676,-3.1346,-3.0986,-3.1195,-3.1405,-3.1496,-3.2153,-3.3425,-3.5385,0.0,-3.6731,-4.0157,-3.8093,-3.8302,-4.0771,-3.932,-3.8901,-3.9388,-3.9388,-3.9388,-3.9388,-3.9388,-3.9388,-3.9388,-3.9388,-3.9649,-3.9963,-3.9574,-3.8981,-3.8342,-3.7907,-3.6975,-3.5956,-5.0591,-4.9492,-4.8663,-4.9424,-5.0405,-5.1116,-5.12,-5.252,-5.3348,-5.2892,-5.323,-5.3501,-5.3501,-5.3501,-5.323,-5.2553,-5.3112,-5.2486,-5.0067,-5.0744,-5.0424,-4.8765,-4.8883,-4.9001,-4.9001,-4.9001,-4.9154,-4.9458,-4.7056,-4.5461,-4.4564,0.0,0.0,0.0,-4.5038,-4.6279,-4.6464,-4.8257,-4.8829,-4.8465,-4.7138,-4.6295,-4.5634,-4.4266,-4.3551,-4.329,-4.329,-4.329,-4.329,-4.329,-4.329,-4.329,-4.329,-4.329,-4.329,-4.329,-4.329,-4.329,-4.329,-4.329,-4.329,-4.329,-4.329,-4.329,-4.329,-4.329,-4.329,-4.329,-4.329,-4.329,-4.329,-4.3678,-4.3284,-4.104,-4.092,-4.0292,-3.8018,-3.715,-3.703,-3.7749,-3.5444,-3.4262,-3.5489,-3.3484,-3.2108,-3.2183,-3.2766,-3.2632,-3.157,-3.2856,0.0,0.0,0.0,0.0,-4.0457,-3.8437,-3.8616,-4.0965,-4.0307,-3.9888,-3.9709,-3.9514,-3.9388,-3.9388,-3.9388,-3.9388,-3.9388,-3.9388,-3.9694,-4.0046,-3.9402,-3.8693,-3.7937,-3.7318,-3.6553,-3.5823,-5.2131,-5.2249,-5.2486,-5.3298,-5.345,-5.2959,-5.1454,-5.252,-5.2959,-5.1454,-5.257,-5.3501,-5.3501,-5.3501,-5.2587,-5.0338,-5.2198,-5.1606,-4.7141,-4.9593,-5.0236,-4.799,-4.8612,-4.9001,-4.9001,-4.9001,-4.8663,-4.7922,-4.8612,-4.7462,-4.4587,0.0,-4.4358,-4.4671,-4.667,-4.7696,-4.7906,-4.868,-4.8465,-4.7622,-4.7589,-4.647,-4.4812,-4.4774,-4.4182,-4.329,-4.329,-4.329,-4.329,-4.329,-4.329,-4.329,-4.329,-4.329,-4.329,-4.329,-4.329,-4.329,-4.329,-4.329,-4.329,-4.329,-4.329,-4.329,-4.329,-4.329,-4.329,-4.329,-4.329,-4.329,-4.329,-4.3305,-4.2871,-4.1594,0.0,-3.9933,-3.8571,-3.7808,-3.718,-3.6582,-3.5327,-3.4249,-3.3589,-3.3499,-3.2931,-3.1615,-3.335,-3.3589,-3.1615,0.0,0.0,-3.2557,-3.3185,0.0,-3.8392,-3.7749,-3.9065,-4.2366,-4.1707,-4.101,-4.0367,-3.9709,-3.9388,-3.9388,-3.9388,-3.9388,-3.9388,-3.9388,-3.9388,-3.9375,-3.8812,-3.7646,-3.6313,-3.6881,-3.6064,-3.4876,-5.0202,-5.1708,-5.2875,-5.208,-5.2807,-5.3331,-5.2858,-5.3179,-5.3331,-5.2841,-5.3213,-5.3501,-5.3501,-5.3501,-5.2993,-5.1708,-5.1336,-5.0574,-4.9137,-4.9001,-4.8852,-4.8663,-4.7902,-4.7496,-4.7496,-4.7496,-4.7378,-4.7141,-4.7378,0.0,0.0,-4.5795,-4.6329,-4.6891,-4.8049,-4.8601,-4.868,-4.89,-4.8829,-4.8433,-4.7172,-4.6295,-4.5618,-4.4266,-4.3591,-4.329,-4.329,-4.329,-4.329,-4.329,-4.329,-4.329,-4.329,-4.329,-4.329,-4.329,-4.329,-4.329,-4.329,-4.329,-4.329,-4.329,-4.329,-4.329,-4.329,-4.329,-4.329,-4.329,-4.329,-4.329,-4.329,-4.329,-4.2722,-4.0995,-4.1654,-4.1624,-3.9409,-3.8497,-3.7838,-3.7195,-3.4756,-3.3589,-3.4756,-3.4038,-3.3499,-3.3529,-3.4562,-3.4696,0.0,0.0,0.0,0.0,-3.6537,0.0,-4.1093,-3.908,-3.9514,-4.2396,-4.1737,-4.104,-4.0382,-3.9723,-3.9388,-3.9388,-3.9388,-3.9388,-3.9388,-3.9388,-3.898,-3.8285,-3.8121,-3.7091,-3.5797,-3.6356,-3.6,-3.5345,-5.0879,-5.2215,-5.3213,-5.2249,-5.2875,-5.3315,-5.2723,-5.3129,-5.3298,-5.2723,-5.3145,-5.3501,-5.3501,-5.323,-5.2739,-5.1961,-5.1048,-5.027,-4.9712,-4.9086,-4.8815,-4.9001,-4.8122,-4.7631,-4.7631,-4.7631,0.0,-4.7208,-4.6938,-4.6549,-4.6126,-4.687,-4.7462,-4.7922,-4.868,-4.9001,-4.9001,-4.9001,-4.8576,-4.7836,-4.6678,-4.5746,-4.4974,-4.3756,-4.329,-4.329,-4.329,-4.329,-4.329,-4.329,-4.3125,-4.3015,-4.3215,-4.3125,-4.3015,-4.3215,-4.329,-4.329,-4.329,-4.329,-4.329,-4.329,-4.329,-4.329,-4.329,-4.329,-4.329,-4.329,-4.329,-4.329,-4.329,-4.329,-4.2886,-4.1698,-4.2497,-4.2632,-4.0786,-3.929,-3.8242,-3.7823,-3.51,-3.4038,-3.6028,-3.5459,-3.504,-3.5252,-3.5639,-3.5789,0.0,0.0,-3.6941,-3.7913,-3.7599,-3.8766,-4.1632,-3.9978,-4.0352,-4.2716,-4.2096,-4.1265,-4.0382,-3.9978,-3.9649,-3.9388,-3.9388,-3.9388,-3.9388,-3.9388,-3.8782,-3.7796,-3.7831,-3.6905,-3.5568,-3.6111,-3.5973,-3.5583,-5.3213,-5.3365,-5.3467,-5.3365,-5.3433,-5.3027,-5.1589,-5.2587,-5.2993,-5.154,-5.2621,-5.3501,-5.3501,-5.2739,-5.1961,-5.1268,0.0,0.0,-4.9086,-4.9543,-4.961,-4.9035,-4.89,-4.8849,-4.8849,-4.8849,-4.8578,-4.7973,-4.7293,-4.6938,-4.6955,-4.7665,-4.7973,-4.799,-4.8697,-4.9001,-4.9001,-4.894,-4.7901,-4.6279,-4.6154,-4.5011,-4.3409,-4.3329,-4.329,-4.329,-4.329,-4.329,-4.329,-4.329,-4.294,-4.2575,-4.3135,-4.291,-4.259,-4.3125,-4.329,-4.329,-4.329,-4.329,-4.329,-4.329,-4.329,-4.329,-4.329,-4.329,-4.329,-4.329,-4.329,-4.329,-4.329,-4.329,-4.329,-4.329,-4.329,-4.3006,-4.2246,-3.9984,-3.8302,-3.8078,-3.6046,0.0,-3.7225,-3.7494,-3.7315,-3.6731,-3.6686,0.0,0.0,0.0,-3.6552,-3.5938,-3.706,-3.8601,-4.0516,-4.0531,-4.1474,-4.329,-4.2671,-4.1767,-4.0531,-4.0442,-4.0068,-3.9484,-3.9403,-3.9388,-3.9388,-3.9301,-3.8671,-3.7715,-3.7728,-3.6803,-3.5499,-3.6121,-3.6006,-3.5621,0.0,-5.1928,-5.3129,-5.1961,-5.2723,-5.3382,-5.301,-5.3281,-5.3382,-5.301,-5.3281,-5.3501,-5.3501,-5.2283,-5.1403,-5.1202,-4.9647,-4.8781,-4.8984,-4.8105,-4.8003,-4.8968,-4.7919,-4.731,-4.731,-4.731,-4.7784,-4.8748,-4.8562,-4.8477,-4.8477,-4.8663,-4.8748,-4.8748,-4.8934,-4.9001,-4.894,-4.8225,-4.7655,-4.7138,-4.5706,-4.4871,-4.4373,-4.3591,-4.329,-4.329,-4.329,-4.329,-4.329,-4.329,-4.32,-4.3135,-4.3245,-4.3185,-4.3135,-4.3245,-4.329,-4.329,-4.329,-4.329,-4.329,-4.329,-4.329,-4.329,-4.329,-4.329,-4.329,-4.329,-4.329,-4.329,-4.329,-4.329,-4.329,-4.329,-4.329,-4.2348,-3.9709,-3.8781,-3.7464,-3.4951,-3.5459,-3.6372,-3.7315,-3.8347,-3.8886,0.0,-3.8721,-3.8796,-3.8931,-3.9753,-4.0157,-3.9993,-4.0292,-4.092,-4.1931,-4.1931,-4.2387,-4.329,-4.2671,-4.2231,-4.1901,-4.0861,-4.0307,-4.0142,-3.9634,-3.9388,-3.9337,-3.8509,-3.7534,-3.6517,-3.6209,-3.5587,-3.4958,-3.5521,-3.5918,-3.6119,-5.1217,-5.2384,-5.3247,-5.2418,-5.2942,-5.3501,-5.3501,-5.3501,-5.3501,-5.3501,-5.3501,-5.3501,-5.3501,-5.2131,-5.1185,-5.1185,-4.9509,-4.8578,-4.8984,-4.8257,-4.8156,-4.8968,-4.824,-4.78,-4.78,-4.78,-4.8206,-4.9001,-4.9001,-4.9001,-4.9001,-4.9001,-4.9001,-4.9001,-4.9001,-4.9001,-4.897,-4.8482,-4.7982,-4.7523,-4.6486,-4.5577,-4.4737,-4.4182,-4.3708,-4.329,-4.329,-4.329,-4.329,-4.329,-4.3135,-4.294,-4.32,-4.3135,-4.294,-4.32,-4.329,-4.329,-4.329,-4.329,-4.329,-4.329,-4.329,-4.329,-4.329,-4.329,-4.329,-4.329,-4.329,-4.329,-4.329,-4.329,-4.32,-4.294,-4.2387,-4.1145,-3.8736,-3.7629,-3.6731,-3.5833,-3.6432,-3.7524,-3.908,-3.9888,-4.0307,-4.0307,-4.0038,0.0,-4.0726,-4.116,-4.1557,-4.1856,-4.2117,-4.2447,-4.2806,-4.2806,-4.2836,-4.2895,-4.2836,-4.2491,-4.1931,-4.1175,-4.0681,-4.0367,-3.9709,-3.9388,-3.9337,-3.8782,-3.8063,-3.7369,-3.7357,-3.6614,-3.5589,-3.6154,-3.6047,-3.5604,-5.3501,-5.3501,-5.3501,-5.3501,-5.3501,-5.3501,-5.3501,-5.3501,-5.3501,-5.3501,-5.3501,-5.3501,-5.3501,-5.2232,-5.1303,-5.1202,-4.9965,-4.912,-4.9018,-4.9001,-4.9001,-4.9001,-4.9001,-4.9001,-4.9001,-4.9001,-4.9001,-4.9001,-4.9001,-4.9001,-4.9001,-4.9001,-4.9001,-4.9001,-4.9001,-4.9001,-4.9001,-4.8861,-4.8338,-4.7589,-4.7456,-4.6435,-4.5005,-4.4874,-4.438,-4.3702,-4.3431,-4.3437,-4.3512,-4.3369,-4.297,-4.265,-4.3125,-4.2955,-4.2626,-4.3125,-4.329,-4.329,-4.329,-4.329,-4.329,-4.329,-4.329,-4.329,-4.329,-4.329,-4.329,-4.329,-4.329,-4.329,-4.329,-4.329,-4.309,-4.2366,-4.119,-3.9858,-3.8317,0.0,-3.6626,-3.8078,-3.8093,-3.8931,-4.1332,-4.1482,-4.1459,-4.1654,-4.107,-4.1235,-4.2485,-4.2021,-4.1938,-4.253,-4.3045,-4.329,-4.329,-4.329,-4.3045,-4.2545,-4.3075,-4.2746,-4.1669,-4.1564,-4.1175,-4.0502,-3.9843,-3.9514,-3.9388,-3.9333,-3.909,-3.8837,-3.9059,-3.8048,-3.6532,-3.6814,-3.5968,-3.4788,-5.3501,-5.3501,-5.3501,-5.3501,-5.3501,-5.3501,-5.3501,-5.3501,-5.3501,-5.3501,-5.3501,-5.3501,-5.3501,-5.2689,-5.1894,-5.1236,-5.0422,-4.9661,-4.9035,-4.9001,-4.9001,-4.9001,-4.9001,-4.9001,-4.9001,-4.9001,-4.9001,-4.9001,-4.9001,-4.9001,-4.9001,-4.9001,-4.9001,-4.9001,-4.9001,-4.9001,-4.894,-4.8144,-4.7721,-4.7523,-4.6747,-4.6244,-4.5913,-4.5304,-4.5326,-4.5559,-4.4167,-4.4018,-4.4434,-4.3591,-4.323,-4.317,-4.326,-4.323,-4.317,-4.326,-4.329,-4.329,-4.329,-4.329,-4.329,-4.329,-4.329,-4.329,-4.329,-4.329,-4.329,-4.329,-4.329,-4.329,-4.329,-4.329,-4.294,-4.1728,-4.0891,-3.9559,-3.712,0.0,-3.8497,-3.7659,-3.9454,-4.1183,-4.2156,-4.1752,-4.1848,-4.2901,-4.2432,-4.2387,-4.3135,-4.305,-4.3035,-4.314,-4.3245,-4.329,-4.329,-4.329,-4.3245,-4.314,-4.3245,-4.3185,-4.2976,-4.2462,-4.1886,-4.119,-4.0531,-3.9933,-3.9382,-3.9004,-3.8847,-3.8667,-3.7441,-3.6767,-3.6405,-3.5449,-3.4924,-3.4726,-5.3501,-5.3501,-5.3501,-5.3501,-5.3501,-5.3501,-5.3501,-5.3501,-5.3501,-5.3501,-5.3501,-5.3501,-5.3501,-5.279,-5.2164,-5.1826,-5.1133,-5.0388,-4.9644,-4.9221,-4.9001,-4.9001,-4.9001,-4.9001,-4.9001,-4.9001,-4.9001,-4.9001,-4.9001,-4.9001,-4.9001,-4.9001,-4.9001,-4.9001,-4.9001,-4.9001,-4.897,-4.8545,-4.8353,-4.8338,-4.7868,-4.7423,-4.6919,-4.656,-4.6022,-4.5348,-4.4588,-4.4173,-4.3927,-4.3448,-4.329,-4.329,-4.329,-4.329,-4.329,-4.329,-4.329,-4.329,-4.329,-4.329,-4.329,-4.329,-4.329,-4.329,-4.329,-4.329,-4.329,-4.329,-4.329,-4.329,-4.329,-4.329,-4.3015,-4.2111,-4.0771,-3.9454,-3.8242,-3.8527,-3.8901,-3.9005,-4.0741,-4.2201,-4.2821,-4.2611,-4.2686,-4.3245,-4.3045,-4.3015,-4.329,-4.329,-4.329,-4.329,-4.329,-4.329,-4.329,-4.329,-4.329,-4.329,-4.329,-4.315,-4.2791,-4.2132,-4.1512,-4.0816,-4.0157,-3.9709,-3.9397,-3.9602,-3.9871,-4.0079,-3.8771,-3.7924,-3.7265,-3.6101,-3.5079,-3.4361,-5.3501,-5.3501,-5.3501,-5.3501,-5.3501,-5.3501,-5.3501,-5.3501,-5.3501,-5.3501,-5.3501,-5.3501,-5.3501,-5.2959,-5.2503,-5.2317,-5.1792,-5.1082,-5.0152,-4.956,-4.9187,-4.9018,-4.9001,-4.9001,-4.9001,-4.9001,-4.9001,-4.9001,-4.9001,-4.9001,-4.9001,-4.9001,-4.9001,-4.9001,-4.9001,-4.9001,-4.9001,-4.9001,-4.9001,-4.9001,-4.9001,-4.8576,-4.7884,-4.7473,-4.6548,-4.5379,-4.4759,-4.4159,-4.363,-4.3369,-4.329,-4.329,-4.329,-4.329,-4.329,-4.329,-4.329,-4.329,-4.329,-4.329,-4.329,-4.329,-4.329,-4.329,-4.329,-4.329,-4.329,-4.329,-4.329,-4.329,-4.329,-4.329,-4.3075,-4.2306,0.0,-3.9649,-3.9649,-3.92,-3.9349,-4.0696,-4.1878,-4.2776,-4.3245,-4.329,-4.329,-4.329,-4.329,-4.329,-4.329,-4.329,-4.329,-4.329,-4.329,-4.329,-4.329,-4.329,-4.329,-4.329,-4.329,-4.3075,-4.2605,-4.1946,-4.1287,-4.0591,-4.0098,-3.9709,-3.9499,-4.0457,-4.0965,-4.1047,-3.9869,-3.8839,-3.78,-3.6396,-3.5048,-3.4035,-5.3501,-5.3501,-5.3501,-5.3501,-5.3501,-5.3501,-5.3501,-5.3501,-5.3501,-5.3501,-5.3501,-5.3501,-5.3501,-5.345,-5.3112,-5.2367,-5.2249,-5.1623,-5.0185,-5.0033,-4.9712,-4.9035,-4.9001,-4.9001,-4.9001,-4.9001,-4.9001,-4.9001,-4.9001,-4.9001,-4.9001,-4.9001,-4.9001,-4.9001,-4.9001,-4.9001,-4.9001,-4.9001,-4.9001,-4.9001,-4.9001,-4.897,-4.8714,-4.7172,-4.6914,-4.709,-4.4656,-4.4158,-4.4548,-4.363,-4.329,-4.329,-4.329,-4.329,-4.329,-4.329,-4.329,-4.329,-4.329,-4.329,-4.329,-4.329,-4.329,-4.329,-4.329,-4.329,-4.329,-4.329,-4.329,-4.329,-4.329,-4.329,-4.2886,-4.1654,0.0,0.0,-4.0337,-4.0277,-4.0741,-4.2096,-4.2836,-4.3245,-4.329,-4.329,-4.329,-4.329,-4.329,-4.329,-4.329,-4.329,-4.329,-4.329,-4.329,-4.329,-4.329,-4.329,-4.329,-4.329,-4.329,-4.3275,-4.32,-4.2581,-4.1976,-4.1309,-4.125,-4.0546,-3.9574,-4.1482,-4.1572,-4.033,-3.8859,-3.7881,-3.7016,-3.49,-3.4023,-3.3985,-5.3501,-5.3501,-5.3501,-5.3501,-5.3501,-5.3501,-5.3501,-5.3501,-5.3501,-5.3501,-5.3501,-5.3501,-5.3501,-5.3501,-5.3179,-5.2367,-5.23,-5.1674,-5.0185,-5.0084,-4.9763,-4.9035,-4.9001,-4.9001,-4.9001,-4.9001,-4.9001,-4.9001,-4.9001,-4.9001,-4.9001,-4.9001,-4.9001,-4.9001,-4.9001,-4.9001,-4.9001,-4.9001,-4.9001,-4.9001,-4.9001,-4.9001,-4.8937,-4.8274,-4.7847,-4.7374,-4.5815,-4.5065,-4.4662,-4.363,-4.329,-4.329,-4.329,-4.329,-4.329,-4.329,-4.329,-4.329,-4.329,-4.329,-4.329,-4.329,-4.329,-4.329,-4.329,-4.329,-4.329,-4.329,-4.329,-4.329,-4.329,-4.329,-4.3125,-4.2671,0.0,-4.1758,-4.2162,-4.1878,-4.1953,-4.2851,-4.314,-4.329,-4.329,-4.329,-4.329,-4.329,-4.329,-4.329,-4.329,-4.329,-4.329,-4.329,-4.329,-4.329,-4.329,-4.329,-4.329,-4.329,-4.329,-4.312,-4.2701,-4.2081,-4.1384,-4.0756,-4.0337,-3.9888,-3.9514,-4.0666,-4.0846,-4.0263,-3.9038,-3.8416,-3.8048,-3.6917,-3.6019,-3.5486,-5.3501,-5.3501,-5.3501,-5.3501,-5.3501,-5.3501,-5.3501,-5.3501,-5.3501,-5.3501,-5.3501,-5.3501,-5.3501,-5.3501,-5.3179,-5.2367,-5.23,-5.1674,-5.0185,-4.9864,-4.9526,-4.9018,-4.9001,-4.9001,-4.9001,-4.9001,-4.9001,-4.9001,-4.9001,-4.9001,-4.9001,-4.9001,-4.9001,-4.9001,-4.9001,-4.9001,-4.9001,-4.9001,-4.9001,-4.9001,-4.9001,-4.9001,-4.897,-4.8688,-4.8161,-4.7489,-4.6539,-4.5635,-4.4767,-4.377,-4.3454,-4.3391,-4.3094,-4.3125,-4.329,-4.329,-4.329,-4.329,-4.329,-4.329,-4.329,-4.329,-4.329,-4.329,-4.329,-4.329,-4.329,-4.329,-4.329,-4.329,-4.329,-4.329,-4.329,-4.329,-4.2955,-4.2821,-4.323,-4.294,-4.2836,-4.3245,-4.329,-4.329,-4.329,-4.329,-4.329,-4.329,-4.329,-4.329,-4.329,-4.329,-4.329,-4.329,-4.329,-4.329,-4.329,-4.329,-4.329,-4.329,-4.329,-4.309,-4.2641,-4.1773,-4.113,-4.0666,-4.0008,-3.9568,-3.9484,-4.0352,-4.0472,-3.9987,-3.9144,-3.8818,-3.8667,-3.7661,-3.6891,-3.6332,-5.3501,-5.3501,-5.3501,-5.3501,-5.3501,-5.3501,-5.3501,-5.3501,-5.3501,-5.3501,-5.3501,-5.3501,-5.3501,-5.3501,-5.3179,-5.2367,-5.23,-5.1674,-5.0185,-4.9407,-4.9001,-4.9001,-4.9001,-4.9001,-4.9001,-4.9001,-4.9001,-4.9001,-4.9001,-4.9001,-4.9001,-4.9001,-4.9001,-4.9001,-4.9001,-4.9001,-4.9001,-4.9001,-4.9001,-4.9001,-4.9001,-4.9001,-4.8892,-4.7966,-4.7605,-4.7473,-4.6523,-4.5741,-4.4992,-4.4106,-4.3774,-4.3547,-4.2689,-4.2821,-4.329,-4.329,-4.329,-4.329,-4.329,-4.329,-4.329,-4.329,-4.329,-4.329,-4.329,-4.329,-4.329,-4.329,-4.329,-4.329,-4.329,-4.329,-4.329,-4.329,-4.329,-4.329,-4.329,-4.329,-4.329,-4.329,-4.329,-4.329,-4.329,-4.329,-4.329,-4.329,-4.329,-4.329,-4.329,-4.329,-4.329,-4.329,-4.329,-4.329,-4.329,-4.329,-4.329,-4.329,-4.329,-4.329,-4.3245,-4.1983,-4.1422,-4.1324,-4.0681,-4.0023,-3.9514,-4.0831,-4.0591,-3.9361,-3.897,-3.8803,-3.8517,-3.6345,-3.5933,-3.6256,-5.3298,-5.3044,-5.2841,-5.3399,-5.3501,-5.3501,-5.3501,-5.3501,-5.3501,-5.3501,-5.3501,-5.3501,-5.3501,-5.3501,-5.2976,-5.1657,-5.1539,-5.0913,-4.9424,-4.912,-4.9001,-4.9001,-4.9001,-4.9001,-4.9001,-4.9001,-4.9001,-4.9001,-4.9001,-4.9001,-4.9001,-4.9001,-4.9001,-4.9001,-4.9001,-4.9001,-4.9001,-4.9001,-4.9001,-4.9001,-4.9001,-4.8697,-4.821,-4.7931,-4.779,-4.768,-4.675,-4.6196,-4.5729,-4.4804,-4.4013,-4.3367,-4.3109,-4.314,-4.329,-4.329,-4.329,-4.329,-4.329,-4.329,-4.329,-4.329,-4.329,-4.329,-4.329,-4.329,-4.329,-4.329,-4.329,-4.329,-4.329,-4.329,-4.329,-4.329,-4.329,-4.329,-4.329,-4.329,-4.329,-4.329,-4.329,-4.329,-4.329,-4.329,-4.329,-4.329,-4.329,-4.329,-4.329,-4.329,-4.329,-4.329,-4.329,-4.329,-4.329,-4.329,-4.329,-4.329,-4.329,-4.309,-4.2626,-4.1773,-4.113,-4.0651,-3.9993,-3.9568,-3.9454,-3.9843,-3.9768,-3.9448,-3.978,-3.9639,-3.9202,-3.9107,-3.8159,-3.6795,-5.279,-5.2638,-5.2553,-5.3365,-5.3501,-5.3501,-5.3501,-5.3501,-5.3501,-5.3501,-5.323,-5.3027,-5.3027,-5.3027,-5.2418,-5.0913,-5.0507,-4.9965,-4.9069,-4.9001,-4.9001,-4.9001,-4.9001,-4.9001,-4.9001,-4.9001,-4.9001,-4.9001,-4.9001,-4.9001,-4.9001,-4.8714,-4.8578,-4.8562,-4.8257,-4.8139,-4.8156,-4.8443,-4.8578,-4.8578,-4.8578,-4.8308,-4.7855,-4.7581,-4.7462,-4.7402,-4.6817,-4.6305,-4.5735,-4.4828,-4.3804,-4.3,-4.32,-4.329,-4.329,-4.329,-4.329,-4.329,-4.329,-4.329,-4.329,-4.329,-4.329,-4.329,-4.329,-4.329,-4.329,-4.329,-4.329,-4.329,-4.329,-4.329,-4.329,-4.329,-4.329,-4.329,-4.329,-4.329,-4.329,-4.329,-4.329,-4.329,-4.329,-4.329,-4.329,-4.329,-4.329,-4.329,-4.329,-4.329,-4.329,-4.329,-4.329,-4.329,-4.329,-4.329,-4.329,-4.329,-4.3075,-4.2746,-4.2366,-4.1452,-4.0771,-4.0367,-3.9709,-3.9388,-3.9388,-3.9388,-3.9388,-3.9454,-3.9858,-3.9933,-3.9786,-3.9867,-3.8976,-3.769,-5.2147,-5.2249,-5.2452,-5.3264,-5.3399,-5.3382,-5.3315,-5.3348,-5.3365,-5.3315,-5.2655,-5.2198,-5.2198,-5.2198,-5.1623,-5.0202,-4.9424,-4.9001,-4.9001,-4.9001,-4.9001,-4.9001,-4.9001,-4.9001,-4.9001,-4.9001,-4.9001,-4.9001,-4.9001,-4.9001,-4.8984,-4.8257,-4.7889,-4.7855,-4.7124,-4.6786,-4.6836,-4.753,-4.7787,-4.7787,-4.7787,-4.7753,-4.7618,-4.6955,-4.6701,-4.6701,-4.6701,-4.6163,-4.5371,-4.4507,-4.3416,-4.2526,-4.3148,-4.3279,-4.32,-4.32,-4.32,-4.32,-4.32,-4.32,-4.3215,-4.329,-4.329,-4.329,-4.329,-4.329,-4.329,-4.329,-4.329,-4.329,-4.329,-4.329,-4.329,-4.329,-4.329,-4.329,-4.329,-4.329,-4.329,-4.329,-4.329,-4.329,-4.329,-4.329,-4.329,-4.329,-4.329,-4.329,-4.329,-4.329,-4.329,-4.329,-4.3245,-4.3245,-4.329,-4.3185,-4.3185,-4.329,-4.2731,-4.2455,-4.2366,-4.113,-4.0502,-4.0367,-3.9828,-3.9493,-3.9388,-3.9448,-3.9514,-3.9514,-3.9514,-3.9873,-4.0286,-3.9237,-3.8779,-3.8523,-5.216,-5.1843,-5.1691,-5.2435,-5.2553,-5.2384,-5.1809,-5.2198,-5.235,-5.1775,-5.1555,-5.1454,-5.1454,-5.1454,-5.1082,-5.0168,-4.9424,-4.9001,-4.9001,-4.9001,-4.9001,-4.9001,-4.9001,-4.9001,-4.9001,-4.9001,-4.9001,-4.9001,-4.9001,-4.9001,-4.8984,-4.8257,-4.7889,-4.7855,-4.7124,-4.6786,-4.6802,-4.6972,-4.7039,-4.7039,-4.7039,-4.6684,-4.6177,-4.6007,-4.594,-4.594,-4.594,-4.6079,-4.6126,-4.5198,-4.3871,-4.2759,-4.3398,-4.3138,-4.262,-4.262,-4.262,-4.262,-4.262,-4.262,-4.2701,-4.317,-4.329,-4.329,-4.329,-4.329,-4.329,-4.329,-4.329,-4.329,-4.329,-4.329,-4.329,-4.329,-4.329,-4.329,-4.329,-4.329,-4.329,-4.329,-4.329,-4.329,-4.329,-4.329,-4.329,-4.329,-4.329,-4.329,-4.329,-4.329,-4.329,-4.329,-4.2836,-4.2821,-4.329,-4.2312,-4.2312,-4.329,-4.3155,-4.2865,-4.2396,-4.2111,-4.1407,-4.0427,-4.0786,-4.0367,-3.9454,-3.9978,-4.0187,-4.0187,-4.0187,-4.0277,-4.033,-3.9654,-3.8841,-3.7763,-5.2117,-5.1657,-5.1429,-5.2164,-5.2,-5.1657,-5.1268,-5.1539,-5.1657,-5.1236,-5.0896,-5.0676,-5.0676,-5.0676,-5.0524,-5.0118,-4.9424,-4.9001,-4.9001,-4.9001,-4.9001,-4.9001,-4.9001,-4.9001,-4.9001,-4.9001,-4.9001,-4.9001,-4.9001,-4.9001,-4.8984,-4.7902,-4.7394,-4.7344,-4.6227,-4.5766,-4.5783,-4.6126,-4.6278,-4.6278,-4.6278,-4.6041,-4.5669,-4.5314,-4.5179,-4.5213,-4.5568,-4.5828,-4.5847,-4.4891,-4.4037,-4.3329,-4.3242,-4.2907,-4.2455,-4.2031,-4.1931,-4.1931,-4.1931,-4.2171,-4.2485,-4.2776,-4.3105,-4.329,-4.329,-4.329,-4.329,-4.329,-4.329,-4.329,-4.329,-4.329,-4.329,-4.329,-4.329,-4.329,-4.329,-4.329,-4.329,-4.329,-4.329,-4.329,-4.329,-4.329,-4.329,-4.329,-4.329,-4.3155,-4.2895,-4.3125,-4.3155,-4.288,-4.2836,-4.2985,-4.329,-4.2656,-4.2656,-4.329,-4.2701,-4.2387,-4.2381,-4.1752,-4.1055,-4.0397,-4.0427,-4.0053,-3.9454,-3.9783,-3.9933,-3.9933,-3.9933,-3.9933,-3.9934,-3.9967,-3.9252,-3.7987,-5.2104,-5.1756,-5.1558,-5.2184,-5.1699,-5.1155,-5.1019,-5.0994,-5.098,-5.083,-5.0287,-4.9898,-4.9898,-4.9898,-4.9898,-4.9898,-4.9357,-4.9001,-4.9001,-4.9001,-4.9001,-4.9001,-4.9001,-4.9001,-4.9001,-4.9001,-4.9001,-4.9001,-4.9001,-4.8934,-4.8781,-4.7428,-4.6718,-4.6549,-4.5207,-4.4615,-4.4649,-4.5246,-4.5517,-4.5517,-4.5517,-4.5517,-4.5449,-4.4852,-4.4615,-4.4682,-4.528,-4.5399,-4.5148,-4.4513,-4.4004,-4.3556,-4.2942,-4.256,-4.218,-4.1452,-4.1205,-4.1235,-4.1354,-4.1811,-4.2291,-4.2515,-4.294,-4.329,-4.329,-4.329,-4.329,-4.329,-4.329,-4.329,-4.329,-4.329,-4.329,-4.329,-4.329,-4.329,-4.329,-4.329,-4.329,-4.329,-4.32,-4.317,-4.329,-4.32,-4.317,-4.329,-4.329,-4.309,-4.259,-4.3045,-4.309,-4.259,-4.294,-4.3185,-4.329,-4.3065,-4.3065,-4.3275,-4.1998,-4.1826,-4.253,-4.1399,-4.0786,-4.0546,-4.0113,-3.9723,-3.9388,-3.9508,-3.9553,-3.9574,-3.9433,-3.9448,-3.9634,-4.0068,-3.9413,-3.8157,-5.229,-5.2138,-5.212,-5.2181,-5.1649,-5.0966,-5.0264,-5.0195,-5.0016,-4.939,-4.9221,-4.9154,-4.9154,-4.9154,-4.9154,-4.9154,-4.9069,-4.9001,-4.9001,-4.9001,-4.9001,-4.9001,-4.9001,-4.9001,-4.9001,-4.9001,-4.9001,-4.9001,-4.9001,-4.868,-4.8024,-4.7192,-4.6447,-4.5821,-4.4987,-4.4615,-4.4615,-4.4716,-4.475,-4.475,-4.475,-4.475,-4.475,-4.4649,-4.4615,-4.4615,-4.4716,-4.4733,-4.4788,-4.5295,-4.4035,-4.2349,-4.2825,-4.1922,-4.0701,-4.0569,-4.0531,-4.0651,-4.122,-4.1482,-4.1788,-4.291,-4.323,-4.329,-4.329,-4.329,-4.329,-4.329,-4.329,-4.329,-4.329,-4.329,-4.329,-4.329,-4.329,-4.329,-4.329,-4.329,-4.329,-4.329,-4.2836,-4.2716,-4.3245,-4.2821,-4.2731,-4.3245,-4.329,-4.3245,-4.317,-4.3245,-4.3245,-4.317,-4.2746,-4.2761,-4.329,-4.2207,-4.2207,-4.3275,-4.1998,-4.2013,-4.3155,-4.2976,-4.2312,-4.1265,-4.1796,-4.0995,-3.9433,-4.0038,-4.0262,-4.0217,-3.9649,-3.9768,-4.0217,-3.9723,-3.826,-3.652,-5.2808,-5.2419,-5.2137,-5.2137,-5.1573,-5.1012,-5.0661,-5.0299,-4.994,-4.9615,-4.9226,-4.9001,-4.9001,-4.9001,-4.9001,-4.9001,-4.9001,-4.9001,-4.9001,-4.9001,-4.9001,-4.9001,-4.9001,-4.9001,-4.9001,-4.9001,-4.8798,-4.8392,-4.8392,-4.824,-4.7855,-4.6735,-4.6007,-4.5669,-4.4925,-4.4615,-4.4615,-4.4615,-4.4615,-4.4615,-4.4615,-4.4615,-4.4615,-4.4615,-4.4615,-4.4615,-4.4615,-4.484,-4.5196,-4.5111,-4.4361,-4.3399,-4.3222,-4.2639,-4.1818,-4.0858,-4.0832,-4.107,-4.089,-4.1407,-4.2111,-4.2641,-4.306,-4.329,-4.329,-4.329,-4.329,-4.329,-4.329,-4.329,-4.329,-4.329,-4.329,-4.329,-4.329,-4.329,-4.329,-4.329,-4.329,-4.329,-4.2761,-4.2626,-4.323,-4.2746,-4.2626,-4.3245,-4.329,-4.3125,-4.2821,-4.3135,-4.3125,-4.2806,-4.2865,-4.3045,-4.329,-4.2761,-4.2761,-4.329,-4.2746,-4.2581,-4.2761,-4.2028,-4.1384,-4.0831,-4.0756,-4.0232,-3.9403,-3.9738,-3.9843,-3.9828,-3.9529,-3.9589,-3.9813,-3.9493,-3.842,-3.7021]},{"header":{"parameterUnit":"m.s-1","parameterCategory":1,"la1":30.6,"la2":28.766,"lo1":-90.7593,"lo2":-88.6598,"dy":0.0162,"dx":0.0183,"nx":116,"ny":114,"refTime":"2023-06-13T18:00:00:Z","depth":0,"parameterNumber":3,"parameterNumberName":"V-component_of_WINDS"},"data":[0.0,0.0,0.0,0.0,0.0,0.0,0.0,0.0,0.0,0.0,0.0,0.0,0.0,0.0,0.0,0.0,0.0,0.0,0.0,0.0,0.0,0.0,0.0,0.0,0.0,0.0,0.0,0.0,0.0,0.0,0.0,0.0,0.0,0.0,0.0,0.0,0.0,0.0,0.0,0.0,0.0,0.0,0.0,0.0,0.0,0.0,0.0,0.0,0.0,0.0,0.0,0.0,0.0,0.0,0.0,0.0,0.0,0.0,0.0,0.0,0.0,0.0,0.0,0.0,0.0,0.0,0.0,0.0,0.0,0.0,0.0,0.0,0.0,0.0,0.0,0.0,0.0,0.0,0.0,0.0,0.0,0.0,0.0,0.0,0.0,0.0,0.0,0.0,0.0,0.0,0.0,0.0,0.0,0.0,0.0,0.0,0.0,0.0,0.0,0.0,0.0,0.0,0.0,0.0,0.0,0.0,0.0,0.0,0.0,0.0,0.0,0.0,0.0,0.0,0.0,0.0,0.0,0.0,0.0,0.0,0.0,0.0,0.0,0.0,0.0,0.0,0.0,0.0,0.0,0.0,0.0,0.0,0.0,0.0,0.0,0.0,0.0,0.0,0.0,0.0,0.0,0.0,0.0,0.0,0.0,0.0,0.0,0.0,0.0,0.0,0.0,0.0,0.0,0.0,0.0,0.0,0.0,0.0,0.0,0.0,0.0,0.0,0.0,0.0,0.0,0.0,0.0,0.0,0.0,0.0,0.0,0.0,0.0,0.0,0.0,0.0,0.0,0.0,0.0,0.0,0.0,0.0,0.0,0.0,0.0,0.0,0.0,0.0,0.0,0.0,0.0,0.0,0.0,0.0,0.0,0.0,0.0,0.0,0.0,0.0,0.0,0.0,0.0,0.0,0.0,0.0,0.0,0.0,0.0,0.0,0.0,0.0,0.0,0.0,0.0,0.0,0.0,0.0,0.0,0.0,0.0,0.0,0.0,0.0,0.0,0.0,0.0,0.0,0.0,0.0,0.0,0.0,0.0,0.0,0.0,0.0,0.0,0.0,0.0,0.0,0.0,0.0,0.0,0.0,0.0,0.0,0.0,0.0,0.0,0.0,0.0,0.0,0.0,0.0,0.0,0.0,0.0,0.0,0.0,0.0,0.0,0.0,0.0,0.0,0.0,0.0,0.0,0.0,0.0,0.0,0.0,0.0,0.0,0.0,0.0,0.0,0.0,0.0,0.0,0.0,0.0,0.0,0.0,0.0,0.0,0.0,0.0,0.0,0.0,0.0,0.0,0.0,0.0,0.0,0.0,0.0,0.0,0.0,0.0,0.0,0.0,0.0,0.0,0.0,0.0,0.0,0.0,0.0,0.0,0.0,0.0,0.0,0.0,0.0,0.0,0.0,0.0,0.0,0.0,0.0,0.0,0.0,0.0,0.0,0.0,0.0,0.0,0.0,0.0,0.0,0.0,0.0,0.0,0.0,0.0,0.0,0.0,0.0,0.0,0.0,0.0,0.0,0.0,0.0,0.0,0.0,0.0,0.0,0.0,0.0,0.0,0.0,0.0,0.0,0.0,0.0,0.0,0.0,0.0,0.0,0.0,0.0,0.0,0.0,0.0,0.0,0.0,0.0,0.0,0.0,0.0,0.0,0.0,0.0,0.0,0.0,0.0,0.0,0.0,0.0,0.0,0.0,0.0,0.0,0.0,0.0,0.0,0.0,0.0,0.0,0.0,0.0,0.0,0.0,0.0,0.0,0.0,0.0,0.0,0.0,0.0,0.0,0.0,0.0,0.0,0.0,0.0,0.0,0.0,0.0,0.0,0.0,0.0,0.0,0.0,0.0,0.0,0.0,0.0,0.0,0.0,0.0,0.0,0.0,0.0,0.0,0.0,0.0,0.0,0.0,0.0,0.0,0.0,0.0,0.0,0.0,0.0,0.0,0.0,0.0,0.0,0.0,0.0,0.0,0.0,0.0,0.0,0.0,0.0,0.0,0.0,0.0,0.0,0.0,0.0,0.0,0.0,0.0,0.0,0.0,0.0,0.0,0.0,0.0,0.0,0.0,0.0,0.0,0.0,0.0,0.0,0.0,0.0,0.0,0.0,0.0,0.0,0.0,0.0,0.0,0.0,0.0,0.0,0.0,0.0,0.0,0.0,0.0,0.0,0.0,0.0,0.0,0.0,0.0,0.0,0.0,0.0,0.0,0.0,0.0,0.0,0.0,0.0,0.0,0.0,0.0,0.0,0.0,0.0,0.0,0.0,0.0,0.0,0.0,0.0,0.0,0.0,0.0,0.0,0.0,0.0,0.0,0.0,0.0,0.0,0.0,0.0,0.0,0.0,0.0,0.0,0.0,0.0,0.0,0.0,0.0,0.0,0.0,0.0,0.0,0.0,0.0,0.0,0.0,0.0,0.0,0.0,0.0,0.0,0.0,0.0,0.0,0.0,0.0,0.0,0.0,0.0,0.0,0.0,0.0,0.0,0.0,0.0,0.0,0.0,0.0,0.0,0.0,0.0,0.0,0.0,0.0,0.0,0.0,0.0,0.0,0.0,0.0,0.0,0.0,0.0,0.0,0.0,0.0,0.0,0.0,0.0,0.0,0.0,0.0,0.0,0.0,0.0,0.0,0.0,0.0,0.0,0.0,0.0,0.0,0.0,0.0,0.0,0.0,0.0,0.0,0.0,0.0,0.0,0.0,0.0,0.0,0.0,0.0,0.0,0.0,0.0,0.0,0.0,0.0,0.0,0.0,0.0,0.0,0.0,0.0,0.0,0.0,0.0,0.0,0.0,0.0,0.0,0.0,0.0,0.0,0.0,0.0,0.0,0.0,0.0,0.0,0.0,0.0,0.0,0.0,0.0,0.0,0.0,0.0,0.0,0.0,0.0,0.0,0.0,0.0,0.0,0.0,0.0,0.0,0.0,0.0,0.0,0.0,0.0,0.0,0.0,0.0,0.0,0.0,0.0,0.0,0.0,0.0,0.0,0.0,0.0,0.0,0.0,0.0,0.0,0.0,0.0,0.0,0.0,0.0,0.0,0.0,0.0,0.0,0.0,0.0,0.0,0.0,0.0,0.0,0.0,0.0,0.0,0.0,0.0,0.0,0.0,0.0,0.0,0.0,0.0,0.0,0.0,0.0,0.0,0.0,0.0,0.0,0.0,0.0,0.0,0.0,0.0,0.0,0.0,0.0,0.0,0.0,0.0,0.0,0.0,0.0,0.0,0.0,0.0,0.0,0.0,0.0,0.0,0.0,0.0,0.0,0.0,0.0,0.0,0.0,0.0,0.0,0.0,0.0,0.0,0.0,0.0,0.0,0.0,0.0,0.0,0.0,0.0,0.0,0.0,0.0,0.0,0.0,0.0,0.0,0.0,0.0,0.0,0.0,0.0,0.0,0.0,0.0,0.0,0.0,0.0,0.0,0.0,0.0,0.0,0.0,0.0,0.0,0.0,0.0,0.0,0.0,0.0,0.0,0.0,0.0,0.0,0.0,0.0,0.0,0.0,0.0,0.0,0.0,0.0,0.0,0.0,0.0,0.0,0.0,0.0,0.0,0.0,0.0,0.0,0.0,0.0,0.0,0.0,0.0,0.0,0.0,0.0,0.0,0.0,0.0,0.0,0.0,0.0,0.0,0.0,0.0,0.0,0.0,0.0,0.0,0.0,0.0,0.0,0.0,0.0,0.0,0.0,0.0,0.0,0.0,0.0,0.0,0.0,0.0,0.0,0.0,0.0,0.0,0.0,0.0,0.0,0.0,0.0,0.0,0.0,0.0,0.0,0.0,0.0,0.0,0.0,0.0,0.0,0.0,0.0,0.0,0.0,0.0,0.0,0.0,0.0,0.0,0.0,0.0,0.0,0.0,0.0,0.0,0.0,0.0,0.0,0.0,0.0,0.0,0.0,0.0,0.0,0.0,0.0,0.0,0.0,0.0,0.0,0.0,0.0,0.0,0.0,0.0,0.0,0.0,0.0,0.0,0.0,0.0,0.0,0.0,0.0,0.0,0.0,0.0,0.0,0.0,0.0,0.0,0.0,0.0,0.0,0.0,0.0,0.0,0.0,0.0,0.0,0.0,0.0,0.0,0.0,0.0,0.0,0.0,0.0,0.0,0.0,0.0,0.0,0.0,0.0,0.0,0.0,0.0,0.0,0.0,0.0,0.0,0.0,0.0,0.0,0.0,0.0,0.0,0.0,0.0,0.0,0.0,0.0,0.0,0.0,0.0,0.0,0.0,0.0,0.0,0.0,0.0,0.0,0.0,0.0,0.0,0.0,0.0,0.0,0.0,0.0,0.0,0.0,0.0,0.0,0.0,0.0,0.0,0.0,0.0,0.0,0.0,0.0,0.0,0.0,0.0,0.0,0.0,0.0,0.0,0.0,0.0,0.0,0.0,0.0,0.0,0.0,0.0,0.0,0.0,0.0,0.0,0.0,0.0,0.0,0.0,0.0,0.0,0.0,0.0,0.0,0.0,0.0,0.0,0.0,0.0,0.0,0.0,0.0,0.0,0.0,0.0,0.0,0.0,0.0,0.0,0.0,0.0,0.0,0.0,0.0,0.0,0.0,0.0,0.0,0.0,0.0,0.0,0.0,0.0,0.0,0.0,0.0,0.0,0.0,0.0,0.0,0.0,0.0,0.0,0.0,0.0,0.0,0.0,0.0,0.0,0.0,0.0,0.0,0.0,0.0,0.0,0.0,0.0,0.0,0.0,0.0,0.0,0.0,0.0,0.0,0.0,0.0,0.0,0.0,0.0,0.0,0.0,0.0,0.0,0.0,0.0,0.0,0.0,0.0,0.0,0.0,0.0,0.0,0.0,0.0,0.0,0.0,0.0,0.0,0.0,0.0,0.0,0.0,0.0,0.0,0.0,0.0,0.0,0.0,0.0,0.0,0.0,0.0,0.0,0.0,0.0,0.0,0.0,0.0,0.0,0.0,0.0,0.0,0.0,0.0,0.0,0.0,0.0,0.0,0.0,0.0,0.0,0.0,0.0,0.0,0.0,0.0,0.0,0.0,0.0,0.0,0.0,0.0,0.0,0.0,0.0,0.0,0.0,0.0,0.0,0.0,0.0,0.0,0.0,0.0,0.0,0.0,0.0,0.0,0.0,0.0,0.0,0.0,0.0,0.0,0.0,0.0,0.0,0.0,0.0,0.0,0.0,0.0,0.0,0.0,0.0,0.0,0.0,0.0,0.0,0.0,0.0,0.0,0.0,0.0,0.0,0.0,0.0,0.0,0.0,0.0,0.0,0.0,0.0,0.0,0.0,0.0,0.0,0.0,0.0,0.0,0.0,0.0,0.0,0.0,0.0,0.0,0.0,0.0,0.0,0.0,0.0,0.0,0.0,0.0,0.0,0.0,0.0,0.0,0.0,0.0,0.0,0.0,0.0,0.0,0.0,0.0,0.0,0.0,0.0,0.0,0.0,0.0,0.0,0.0,0.0,0.0,0.0,0.0,0.0,0.0,0.0,0.0,0.0,0.0,0.0,0.0,0.0,0.0,0.0,0.0,0.0,0.0,0.0,0.0,0.0,0.0,0.0,0.0,0.0,0.0,0.0,0.0,0.0,0.0,0.0,0.0,0.0,0.0,0.0,0.0,0.0,0.0,0.0,0.0,0.0,0.0,0.0,0.0,0.0,0.0,0.0,0.0,0.0,0.0,0.0,0.0,0.0,0.0,0.0,0.0,0.0,0.0,0.0,0.0,0.0,0.0,0.0,0.0,0.0,0.0,0.0,0.0,0.0,0.0,0.0,0.0,0.0,0.0,0.0,0.0,0.0,0.0,0.0,0.0,0.0,0.0,0.0,0.0,0.0,0.0,0.0,0.0,0.0,0.0,0.0,0.0,0.0,0.0,0.0,0.0,0.0,0.0,0.0,0.0,0.0,0.0,0.0,0.0,0.0,0.0,0.0,0.0,0.0,0.0,0.0,0.0,0.0,0.0,0.0,0.0,0.0,0.0,0.0,0.0,0.0,0.0,0.0,0.0,0.0,0.0,0.0,0.0,0.0,0.0,0.0,0.0,0.0,0.0,0.0,0.0,0.0,0.0,0.0,0.0,0.0,0.0,0.0,0.0,0.0,0.0,0.0,0.0,0.0,-3.6137,-3.6002,0.0,0.0,0.0,0.0,0.0,0.0,0.0,0.0,0.0,0.0,0.0,0.0,0.0,0.0,0.0,0.0,0.0,0.0,0.0,0.0,0.0,0.0,0.0,0.0,0.0,0.0,0.0,0.0,0.0,0.0,0.0,0.0,0.0,0.0,0.0,0.0,0.0,0.0,0.0,0.0,0.0,0.0,0.0,0.0,0.0,0.0,0.0,0.0,0.0,0.0,0.0,0.0,0.0,0.0,0.0,0.0,0.0,0.0,0.0,0.0,0.0,0.0,0.0,0.0,0.0,0.0,0.0,0.0,0.0,0.0,0.0,0.0,0.0,0.0,0.0,0.0,0.0,0.0,0.0,0.0,0.0,0.0,0.0,0.0,0.0,0.0,0.0,0.0,0.0,0.0,0.0,0.0,0.0,0.0,0.0,0.0,0.0,0.0,0.0,0.0,0.0,0.0,0.0,0.0,0.0,0.0,0.0,0.0,0.0,0.0,0.0,0.0,0.0,0.0,-3.6923,-3.7147,0.0,0.0,0.0,0.0,0.0,0.0,0.0,0.0,0.0,0.0,0.0,0.0,0.0,0.0,0.0,0.0,0.0,0.0,0.0,0.0,0.0,0.0,0.0,0.0,0.0,0.0,0.0,0.0,0.0,0.0,0.0,0.0,0.0,0.0,0.0,0.0,0.0,0.0,0.0,0.0,0.0,0.0,0.0,0.0,0.0,0.0,0.0,0.0,0.0,0.0,0.0,0.0,0.0,0.0,0.0,0.0,0.0,0.0,0.0,0.0,0.0,0.0,0.0,0.0,0.0,0.0,0.0,0.0,0.0,0.0,0.0,0.0,0.0,0.0,0.0,0.0,0.0,0.0,0.0,0.0,0.0,0.0,0.0,0.0,0.0,0.0,0.0,0.0,0.0,0.0,0.0,0.0,0.0,0.0,0.0,0.0,0.0,0.0,0.0,0.0,0.0,0.0,0.0,0.0,0.0,0.0,0.0,0.0,-3.2601,-3.3477,-3.249,-3.391,-3.5423,-3.7027,-3.8314,-3.8931,-3.8931,-3.7902,0.0,0.0,0.0,0.0,0.0,0.0,0.0,0.0,0.0,0.0,0.0,0.0,0.0,0.0,0.0,0.0,0.0,0.0,0.0,0.0,0.0,0.0,0.0,0.0,0.0,0.0,0.0,0.0,0.0,0.0,0.0,0.0,0.0,0.0,0.0,0.0,0.0,0.0,-2.3232,-2.5026,-2.628,-2.7084,0.0,0.0,0.0,0.0,0.0,0.0,0.0,0.0,0.0,0.0,0.0,0.0,0.0,0.0,0.0,0.0,0.0,0.0,0.0,0.0,0.0,0.0,0.0,0.0,0.0,0.0,0.0,0.0,0.0,0.0,0.0,0.0,0.0,0.0,0.0,0.0,0.0,0.0,0.0,0.0,0.0,0.0,0.0,0.0,-2.7076,-2.6934,0.0,0.0,0.0,0.0,0.0,0.0,0.0,0.0,0.0,0.0,0.0,0.0,0.0,-2.8271,-2.875,-3.0488,-3.1782,-3.258,-3.5517,-3.7286,-3.7915,-3.905,-3.9668,-3.9915,-3.9194,0.0,-3.9534,-3.8906,0.0,0.0,0.0,0.0,0.0,0.0,0.0,0.0,0.0,0.0,0.0,0.0,0.0,0.0,0.0,0.0,0.0,0.0,0.0,0.0,0.0,0.0,0.0,0.0,0.0,0.0,0.0,0.0,0.0,0.0,0.0,0.0,0.0,0.0,0.0,0.0,-2.3594,-2.4473,-2.4971,-2.6764,-2.8215,-2.9375,-3.0927,-3.0943,-2.988,-2.988,0.0,0.0,0.0,0.0,0.0,0.0,0.0,0.0,0.0,0.0,0.0,0.0,0.0,0.0,0.0,0.0,0.0,0.0,0.0,0.0,0.0,0.0,0.0,0.0,0.0,0.0,0.0,0.0,0.0,0.0,0.0,0.0,0.0,0.0,0.0,0.0,0.0,0.0,0.0,-2.718,-2.7285,-2.7041,-2.7402,-2.7386,0.0,0.0,0.0,0.0,0.0,0.0,0.0,0.0,0.0,-2.835,-2.8789,-2.9209,-2.9639,-3.1728,-3.2613,-3.2246,-3.6352,-3.8064,-3.7756,-3.9939,-4.0924,-4.0899,-4.0463,-4.0224,-4.0086,-3.9233,-3.8253,-3.7061,0.0,0.0,0.0,0.0,-3.4824,-3.6264,0.0,0.0,0.0,0.0,0.0,0.0,0.0,0.0,0.0,0.0,0.0,0.0,0.0,0.0,0.0,0.0,0.0,0.0,0.0,0.0,0.0,0.0,0.0,0.0,0.0,0.0,0.0,0.0,-2.4609,-2.5576,-2.628,-2.832,-2.9829,-3.0802,-3.2558,-3.2477,-3.1022,-3.1278,-3.0816,0.0,0.0,0.0,0.0,0.0,0.0,0.0,0.0,0.0,0.0,0.0,0.0,0.0,0.0,0.0,0.0,0.0,0.0,0.0,0.0,0.0,0.0,0.0,0.0,0.0,0.0,0.0,0.0,0.0,0.0,0.0,0.0,0.0,0.0,0.0,0.0,0.0,0.0,-2.7217,-2.7552,-2.6682,-2.7631,-2.7775,0.0,0.0,0.0,0.0,0.0,0.0,-2.7978,-2.8281,-2.8701,-2.9228,-2.9785,-3.0273,-3.0693,-3.2575,-3.3199,-3.2635,-3.664,-3.826,-3.7805,-4.0196,-4.1288,-4.1263,-4.0987,-4.0689,-4.0249,-3.9572,-3.8718,-3.7789,-3.7349,-3.6433,-3.5407,-3.6087,-3.721,-3.8644,0.0,0.0,0.0,0.0,0.0,0.0,0.0,0.0,0.0,0.0,0.0,0.0,0.0,0.0,0.0,0.0,0.0,0.0,0.0,0.0,0.0,0.0,0.0,0.0,0.0,0.0,0.0,-2.376,-2.5068,-2.5674,-2.582,-2.8778,-3.018,-3.0332,-3.3293,-3.3671,-3.2168,-3.3216,-3.271,-3.1186,0.0,0.0,0.0,0.0,0.0,0.0,0.0,0.0,0.0,0.0,0.0,0.0,0.0,0.0,0.0,0.0,0.0,0.0,0.0,0.0,0.0,0.0,0.0,0.0,0.0,0.0,0.0,0.0,0.0,0.0,0.0,0.0,0.0,0.0,0.0,0.0,0.0,0.0,0.0,-2.5681,-2.8197,0.0,0.0,0.0,0.0,-2.7708,-2.8018,-2.8437,-2.8838,-2.8877,-2.9268,-3.0107,-3.0967,-3.1631,-3.206,-3.2632,-3.3747,-3.5579,-3.7015,-3.8642,-4.0427,-4.1004,-4.1288,-4.1225,-4.0224,-3.976,-3.9772,-4.0237,-4.0086,-3.9408,-3.7814,-3.7136,-3.6935,-3.5927,-3.7787,-4.0919,0.0,0.0,0.0,0.0,0.0,0.0,0.0,0.0,0.0,0.0,0.0,0.0,0.0,0.0,0.0,0.0,0.0,0.0,0.0,0.0,0.0,0.0,0.0,0.0,0.0,0.0,-2.3047,-2.3789,-2.4805,-2.5156,-2.4893,-2.6716,-2.7958,-2.8824,-3.0956,-3.2406,-3.3305,-3.4419,-3.4631,-3.4251,-3.4225,-3.2951,0.0,0.0,0.0,0.0,0.0,0.0,0.0,0.0,0.0,0.0,0.0,0.0,0.0,0.0,0.0,0.0,0.0,0.0,0.0,0.0,0.0,0.0,0.0,0.0,0.0,0.0,0.0,0.0,0.0,0.0,0.0,0.0,0.0,0.0,0.0,0.0,0.0,-2.8143,-2.9126,0.0,-2.8193,-2.8613,-2.8789,-2.8496,-2.9394,-2.9893,-2.9746,-3.0547,-3.1152,-3.1455,-3.1768,-3.2139,-3.2568,-3.2451,-3.2895,-3.3899,-3.6021,-3.7561,-3.8607,-4.0471,-4.1087,-4.0736,-4.0388,-4.0023,-3.9685,-3.9521,-3.9546,-3.9597,-3.8642,-3.8479,-3.8843,-3.9327,-4.0526,-4.2189,0.0,0.0,0.0,0.0,0.0,0.0,0.0,0.0,0.0,0.0,0.0,0.0,0.0,0.0,0.0,0.0,0.0,0.0,0.0,0.0,0.0,0.0,0.0,0.0,0.0,-2.2344,-2.3281,-2.4004,-2.457,-2.4697,-2.4414,-2.5969,-2.7151,-2.7983,-3.0229,-3.2266,-3.4109,-3.5385,-3.6145,-3.6533,-3.6235,-3.4383,-3.1765,0.0,0.0,0.0,0.0,0.0,0.0,0.0,0.0,0.0,0.0,0.0,0.0,0.0,0.0,0.0,0.0,0.0,0.0,0.0,0.0,0.0,0.0,0.0,0.0,0.0,0.0,0.0,0.0,0.0,0.0,0.0,0.0,0.0,0.0,-2.7127,-2.7701,-2.7781,-2.8151,-2.8061,-2.7263,-2.8116,-2.8699,-2.8557,-3.0142,-3.0967,-3.0654,-3.1611,-3.21,-3.1953,-3.209,-3.2236,-3.2363,-3.2236,-3.259,-3.3386,-3.5626,-3.7142,-3.8022,-4.0105,-4.0551,-3.9685,-3.9873,-3.9433,-3.858,-3.858,-3.8793,-3.9082,-3.873,-3.9045,-3.9849,-4.0709,-4.1805,-4.3054,0.0,0.0,0.0,0.0,0.0,0.0,0.0,0.0,0.0,0.0,0.0,0.0,0.0,0.0,0.0,0.0,0.0,0.0,0.0,0.0,0.0,0.0,0.0,0.0,-2.2461,-2.2539,-2.3164,-2.4394,-2.4394,-2.4385,-2.4421,-2.6743,-2.7883,-2.8002,-3.1291,-3.3361,-3.4491,-3.6091,-3.7143,-3.7725,-3.6941,-3.5045,-3.2572,0.0,0.0,0.0,0.0,0.0,0.0,0.0,0.0,0.0,0.0,0.0,0.0,0.0,0.0,0.0,0.0,0.0,0.0,0.0,0.0,0.0,0.0,0.0,0.0,0.0,0.0,0.0,0.0,0.0,0.0,0.0,0.0,0.0,-2.6018,-2.641,-2.5956,-2.4555,-2.5349,-2.5117,-2.2879,-2.6066,-2.8205,-2.7845,-3.0064,-3.1454,-3.1533,-3.1934,-3.1963,-3.1533,-3.1943,-3.1963,-3.1523,-3.1934,-3.2955,-3.449,-3.5953,-3.7485,-3.9098,-4.0038,-3.9572,-3.8065,-3.863,-3.7952,-3.6533,-3.7563,-3.799,-3.799,-3.799,-3.8748,-3.9781,-3.9789,-4.1352,-4.3574,0.0,0.0,0.0,0.0,0.0,0.0,0.0,0.0,0.0,0.0,0.0,0.0,0.0,0.0,0.0,0.0,0.0,0.0,0.0,0.0,0.0,0.0,0.0,0.0,-2.248,-2.3125,-2.3603,-2.3965,-2.3965,-2.3799,-2.3486,-2.5819,-2.6875,-2.7054,-3.064,-3.2834,-3.3928,-3.5465,-3.6663,-3.7643,-3.9006,-3.7952,-3.5658,0.0,0.0,0.0,0.0,0.0,0.0,0.0,0.0,0.0,0.0,0.0,0.0,0.0,0.0,0.0,0.0,0.0,0.0,0.0,0.0,0.0,0.0,0.0,0.0,0.0,0.0,0.0,0.0,0.0,0.0,0.0,-2.2405,-2.3978,-2.4343,-2.4862,-2.5403,-2.5888,-2.6012,-2.5887,-2.548,-2.6208,-2.7272,-2.8619,-2.9388,-3.04,-3.1912,-3.21,-3.1963,-3.1533,-3.1943,-3.1963,-3.1523,-3.1641,-3.2585,-3.4431,-3.482,-3.6228,-3.8416,-3.9022,-3.9069,-3.8642,-3.8856,-3.8379,-3.7563,-3.745,-3.7412,-3.7412,-3.7412,-3.8402,-3.9831,-3.9875,-4.134,-4.3186,0.0,0.0,0.0,0.0,0.0,0.0,0.0,0.0,0.0,0.0,0.0,0.0,0.0,0.0,0.0,0.0,0.0,0.0,0.0,0.0,0.0,0.0,0.0,-2.1641,-2.2711,-2.3262,-2.3516,-2.3516,-2.3516,-2.3599,-2.3844,-2.5641,-2.6942,-2.7905,-3.0929,-3.2841,-3.3889,-3.5815,-3.6944,-3.7666,-3.9927,-3.9219,-3.6906,-3.8022,-3.7625,-3.6443,-3.5768,-3.6117,-3.6693,-3.5164,0.0,0.0,0.0,0.0,0.0,0.0,0.0,0.0,0.0,0.0,0.0,0.0,0.0,0.0,0.0,0.0,0.0,0.0,0.0,0.0,0.0,0.0,0.0,0.0,-2.1594,-2.2427,-2.2184,-2.3088,-2.4198,-2.5206,-2.4525,-2.4053,-2.4259,-2.4711,-2.577,-2.7635,-2.861,-2.993,-3.1824,-3.207,-3.1885,-3.1269,-3.167,-3.1592,-3.0967,-3.1152,-3.183,-3.2972,-3.4159,-3.5525,-3.7002,-3.8515,-3.8718,-3.7864,-3.8316,-3.7801,-3.6646,-3.6784,-3.6835,-3.693,0.0,0.0,0.0,0.0,-4.2167,-4.308,0.0,0.0,0.0,0.0,0.0,0.0,0.0,0.0,0.0,0.0,0.0,0.0,0.0,0.0,0.0,0.0,0.0,0.0,0.0,0.0,0.0,-2.3578,-2.2819,-2.2641,-2.329,-2.3299,-2.3222,-2.3091,-2.3091,-2.3671,-2.483,-2.5975,-2.7584,-2.9592,-3.1675,-3.3136,-3.4158,-3.6491,-3.7482,-3.7686,-3.9975,-3.9454,-3.7428,-3.8849,-3.8728,-3.7725,-3.7129,-3.7302,-3.7653,-3.6735,0.0,0.0,0.0,0.0,0.0,0.0,0.0,0.0,0.0,0.0,0.0,0.0,0.0,0.0,0.0,0.0,0.0,0.0,0.0,0.0,0.0,0.0,0.0,0.0,-2.0459,-2.0348,-2.0247,-2.1361,-2.248,-2.3251,-2.2034,-2.1109,-2.1109,-2.2466,-2.407,-2.592,-2.7765,-2.9604,-3.1463,-3.1914,0.0,0.0,0.0,-3.1045,-3.0205,-3.0664,-3.1054,-3.145,-3.397,-3.5397,-3.589,-3.8355,-3.8442,-3.6634,-3.7525,-3.6772,-3.4977,-3.6003,-3.6546,-3.6896,-3.7893,-3.8961,-4.0131,-4.2232,-4.305,-4.3065,0.0,0.0,0.0,0.0,0.0,0.0,0.0,0.0,0.0,0.0,0.0,0.0,0.0,0.0,0.0,0.0,0.0,0.0,0.0,0.0,-2.3128,-2.4781,-2.5097,-2.4992,-2.4489,-2.4457,-2.4006,-2.3091,-2.3091,-2.3671,-2.483,-2.5975,-2.7584,-2.9592,-3.1675,-3.3136,-3.4129,-3.6005,-3.6801,-3.7017,-3.9332,-4.0238,-4.0299,-4.13,-4.1886,-4.2154,-4.203,-4.2043,-4.1924,-4.0668,-3.8873,-3.7251,-3.7897,0.0,0.0,0.0,0.0,0.0,0.0,0.0,0.0,0.0,0.0,0.0,0.0,0.0,0.0,0.0,0.0,0.0,0.0,0.0,0.0,-2.0704,-2.0703,-2.0642,-2.0274,-2.047,-2.0869,-2.1532,-2.1292,-2.1109,-2.1109,-2.1418,-2.2935,-2.6228,-2.6876,-2.8544,-3.19,-3.1787,-3.1416,-3.0908,-3.0976,-3.0752,-3.0205,-3.0664,-3.2102,-3.447,-3.4547,0.0,-3.8832,-3.8478,-3.8103,-3.7688,-3.745,-3.6847,-3.6103,-3.6317,-3.752,-3.9241,-3.9461,-3.9667,-3.9979,-4.0695,-4.1639,-4.2351,0.0,0.0,0.0,0.0,0.0,0.0,0.0,0.0,0.0,0.0,0.0,0.0,0.0,0.0,0.0,0.0,0.0,0.0,0.0,-2.5864,-2.5604,-2.6983,-2.6775,-2.6337,-2.5672,-2.563,-2.5094,-2.3963,-2.451,-2.5094,-2.5672,-2.6789,-2.8645,-3.1098,-3.2136,-3.3614,-3.5374,-3.6676,-3.7395,-3.7876,-3.9472,-4.0274,-4.0675,-4.1849,-4.2523,-4.2912,-4.3257,-4.339,-4.3181,-4.2035,-4.0856,-3.9769,-3.9238,-3.7839,-3.5922,0.0,0.0,0.0,0.0,0.0,0.0,0.0,0.0,0.0,0.0,0.0,0.0,0.0,0.0,-2.208,-2.2725,0.0,-2.0931,-2.1471,-2.0535,-1.9828,-2.0147,-2.0361,-2.0615,-2.1056,-2.1109,-2.1109,-2.1109,-2.1109,-2.2279,-2.5086,-2.5932,-2.7538,-3.0429,-3.094,-3.1006,-3.0557,-3.0771,-3.0664,-3.0205,-3.0664,-3.1662,-3.3088,-3.4274,-3.5802,-3.7518,-3.8172,-3.8278,-3.7977,-3.7425,-3.692,-3.6405,-3.6405,-3.7428,-3.905,-3.9667,-4.0589,-4.1625,-4.1764,-4.2282,-4.2656,0.0,0.0,0.0,0.0,0.0,0.0,0.0,0.0,0.0,0.0,0.0,0.0,0.0,0.0,0.0,0.0,0.0,0.0,0.0,-2.7917,-2.8099,-2.934,-2.8567,-2.7752,-2.7001,-2.6846,-2.6254,-2.5126,-2.6058,-2.6595,-2.6842,-2.7872,-2.9885,-3.2593,-3.2784,-3.4158,-3.6446,-3.7397,-3.8133,-3.8772,-3.9731,-4.0096,-4.0231,-4.1433,-4.1948,-4.2151,-4.2777,-4.3054,-4.3048,-4.215,-4.174,-4.1326,-3.9768,-3.8772,-3.7342,-3.2978,-3.2378,0.0,0.0,0.0,0.0,0.0,0.0,0.0,0.0,-2.2613,-2.2165,-2.2559,-2.2764,-2.3106,-2.3842,-2.1863,-2.0516,-2.1985,-2.0237,-1.9032,-2.0087,-2.0441,-2.0722,-2.1069,-2.1109,-2.1109,-2.1109,-2.1162,-2.1976,-2.3847,-2.5459,-2.7136,-2.8929,-3.0389,-3.0928,-3.0469,-3.0742,-3.0713,-3.0332,-3.0703,-3.117,-3.1777,-3.4136,-3.5629,-3.6205,-3.7922,-3.8442,-3.7965,-3.7312,-3.682,-3.6405,-3.6405,-3.7196,-3.8559,-3.9492,-4.1267,-4.329,-4.329,-4.3215,-4.3075,0.0,0.0,0.0,0.0,0.0,0.0,0.0,0.0,0.0,0.0,0.0,0.0,0.0,0.0,0.0,0.0,0.0,0.0,-2.7494,-2.9173,-3.0453,-3.1098,-3.1,-3.0225,-2.8674,-2.816,-2.74,-2.6307,-2.6431,-2.7005,-2.7924,-2.8907,-3.0527,-3.2629,-3.3449,-3.4495,-3.5733,-3.7175,-3.7851,-3.8064,-3.9506,-4.0096,-4.013,-4.0282,-4.073,-4.1339,-4.1424,-4.188,-4.2314,-4.1546,-4.0775,-3.9972,-3.9072,-3.8217,-3.6954,-3.4028,-3.2639,-3.1201,-2.7126,-2.4329,-2.2694,-2.3136,-2.2977,-2.2977,0.0,-2.4715,-2.5196,-2.5245,-2.5908,-2.6064,-2.488,-2.3633,-2.2409,-2.1271,-2.0083,-1.9499,-2.014,-2.02,-2.0488,-2.1042,-2.1109,-2.1109,-2.1109,-2.1349,-2.221,-2.3869,-2.6208,-2.8078,-2.9359,-3.1091,-3.1826,-3.1387,-3.1055,-3.0869,-3.081,-3.0869,-3.2217,-3.4792,-3.5123,-3.6661,-3.9169,-3.8429,-3.8065,-3.7952,-3.6958,-3.6468,-3.6405,-3.6405,-3.7691,-3.9724,-3.9855,-4.1267,-4.329,-4.329,-4.297,-4.25,0.0,0.0,0.0,0.0,0.0,0.0,0.0,0.0,0.0,0.0,0.0,0.0,0.0,0.0,0.0,0.0,0.0,0.0,-2.7304,-2.9654,-3.1298,-3.1838,-3.1562,-3.092,-2.993,-2.9337,-2.8518,-2.7441,-2.8079,-2.8573,-2.8959,-2.9999,-3.1542,-3.3415,-3.3808,-3.5065,-3.689,-3.7531,-3.8318,-3.9199,-3.985,-4.0096,-4.0096,-4.0096,-4.0299,-4.0468,-3.9662,-3.9592,0.0,0.0,-3.8418,-3.8074,-3.7973,-3.6633,-3.485,-3.3733,-3.1974,-2.9841,-2.7382,-2.6345,-2.5849,-2.5399,-2.5884,-2.6529,-2.651,-2.6307,-2.6182,-2.6426,-2.6768,-2.6609,-2.5381,-2.3797,-2.239,-2.1455,-2.0229,-1.9573,-2.0147,-2.0528,-2.0835,-2.1082,-2.1109,-2.1109,-2.1109,-2.1376,-2.194,-2.2746,-2.5615,-2.7657,-2.829,-3.0531,-3.1709,-3.1523,-3.1103,-3.0889,-3.0889,-3.0889,-3.1498,-3.2768,-3.447,-3.5956,-3.7186,-3.812,-3.8153,-3.7487,-3.6744,-3.6405,-3.6405,-3.6405,-3.7782,-3.9899,-3.9899,-4.1267,-4.329,-4.329,-4.3125,-4.2925,0.0,0.0,0.0,0.0,0.0,0.0,0.0,0.0,0.0,0.0,0.0,0.0,0.0,0.0,0.0,0.0,0.0,0.0,0.0,-2.9997,-3.181,-3.3256,-3.2066,0.0,-3.126,-3.03,-2.9509,-2.8981,-2.9793,-3.0253,-3.0364,-3.1469,-3.2713,-3.4027,-3.4279,-3.5452,-3.7175,-3.7618,-3.843,-3.9506,-3.9927,-4.0096,-4.007,-3.9833,-3.9556,-3.911,-3.8151,-3.7798,0.0,0.0,-3.5912,-3.6136,-3.5629,-3.4394,-3.3003,-3.2447,-3.0351,-2.804,-2.7154,-2.7169,-2.7422,-2.7411,-2.7998,-2.8538,-2.8505,-2.7592,-2.6865,-2.7275,-2.7373,-2.7016,-2.5835,-2.4108,-2.2576,-2.1828,-2.051,-1.978,-2.0287,-2.0722,-2.0962,-2.0875,-2.0869,-2.0835,-2.0755,-2.1309,-2.1757,-2.1971,-2.5352,-2.7462,-2.7554,-3.019,-3.1699,-3.1699,-3.1172,-3.0889,-3.0889,-3.0889,-3.1334,-3.216,-3.4303,-3.5659,-3.6321,-3.7755,-3.7877,-3.6935,-3.6581,-3.6405,-3.6405,-3.6405,-3.7782,-3.9899,-3.9899,-4.1267,-4.329,-4.329,-4.329,-4.329,0.0,0.0,0.0,0.0,0.0,0.0,0.0,0.0,0.0,0.0,0.0,0.0,0.0,0.0,0.0,0.0,0.0,0.0,0.0,-3.0253,-3.2251,-3.5943,-3.3074,-3.1888,-3.2922,-3.0854,-3.0241,-3.1106,-3.1143,-3.1609,-3.2522,-3.3484,-3.3959,-3.4027,-3.5019,-3.5504,-3.5683,-3.7191,-3.7822,-3.8007,-3.9506,-4.0096,-4.002,-3.9236,-3.8157,-3.7078,-3.7061,0.0,0.0,0.0,-3.369,-3.4287,-3.1485,-3.1466,-3.2035,-3.0034,-2.756,-2.5667,-2.6345,-2.5124,-2.4479,-2.7913,-2.7558,-2.695,-2.9129,-2.8614,-2.7744,-2.8164,-2.8252,-2.7805,-2.6354,-2.5087,-2.3747,-2.2216,-2.0942,-2.0314,-2.0621,-2.0681,-2.0581,-2.0294,-2.0261,-2.0147,-1.9867,-2.1136,-2.1977,-2.1984,-2.5855,-2.8056,-2.7708,-3.0528,-3.2148,-3.2148,-3.1328,-3.0889,-3.0889,-3.0889,-3.2332,-3.5178,-3.5245,-3.6512,-3.8755,-3.7739,-3.6971,-3.643,-3.6417,-3.6405,-3.6405,-3.6405,-3.7782,-3.9899,-3.9899,-4.1267,-4.329,-4.329,-4.329,-4.329,0.0,0.0,0.0,0.0,0.0,0.0,0.0,0.0,0.0,0.0,0.0,0.0,0.0,0.0,0.0,0.0,0.0,0.0,0.0,-3.0443,-3.2165,-3.4187,-3.414,-3.3872,-3.3529,-3.2724,-3.2123,-3.1747,-3.2004,-3.2593,-3.3518,-3.3842,-3.4361,-3.5019,-3.5359,-3.6085,-3.7071,-3.7589,-3.8338,-3.9194,-3.9284,-3.9275,-3.9068,-3.7454,-3.6583,-3.5918,0.0,0.0,0.0,0.0,-3.0934,-3.1222,-3.0587,-2.9772,-2.8428,-2.5492,-2.5272,-2.5778,-2.5033,-2.5946,-2.7138,-2.7373,-2.8077,-2.8625,-2.8015,-2.7803,-2.7757,-2.7851,-2.7422,-2.6378,-2.4132,-2.302,-2.1824,-2.0004,-1.9503,-1.9673,-2.0555,-2.0341,-2.0274,-2.0755,-2.0641,-2.0641,-2.0935,-2.1229,-2.1984,-2.3385,-2.6116,-2.8204,-2.9305,-3.0851,-3.1738,-3.1738,-3.1182,-3.0889,-3.0889,-3.0889,-3.1883,-3.3856,-3.5825,-3.7288,-3.8304,-3.8304,-3.7838,-3.6958,-3.6958,-3.6744,-3.6405,-3.6405,-3.7782,-3.9899,-3.9899,-4.1267,-4.329,-4.329,-4.329,-4.329,0.0,0.0,0.0,0.0,0.0,0.0,0.0,0.0,0.0,0.0,0.0,0.0,0.0,0.0,0.0,0.0,0.0,0.0,0.0,0.0,-3.1084,-3.2922,-3.2965,-3.2677,-3.2119,-3.2173,-3.203,-3.1689,-3.2645,-3.3602,-3.4543,-3.4543,-3.4872,-3.5504,-3.5504,-3.6053,-3.7011,-3.7249,-3.8043,-3.8995,-3.8149,-3.7906,-3.7841,-3.555,-3.4393,0.0,0.0,0.0,0.0,0.0,-2.9027,-2.907,-2.8469,-2.6885,-2.5047,-2.4065,-2.4418,-2.5182,-2.5625,-2.7168,-2.8557,-2.838,-2.9015,-2.9431,-2.8237,-2.7813,-2.7757,-2.7861,-2.7207,-2.5929,-2.3683,-2.2475,-2.1278,-1.9448,-1.9137,-1.9419,-2.0381,-2.0194,-2.0201,-2.0875,-2.0788,-2.0828,-2.1266,-2.1256,-2.1983,-2.3747,-2.6009,-2.801,-2.9717,-3.0872,-3.1592,-3.1738,-3.1338,-3.1045,-3.0889,-3.0889,-3.1883,-3.3912,-3.6677,-3.8089,-3.8316,-3.8278,-3.7663,-3.6609,-3.681,-3.6471,-3.5805,-3.6241,-3.7507,-3.9316,-3.9724,-4.1042,-4.2725,-4.3155,-4.329,-4.329,0.0,0.0,0.0,0.0,0.0,0.0,0.0,0.0,0.0,0.0,0.0,0.0,0.0,0.0,0.0,0.0,0.0,0.0,0.0,0.0,0.0,-3.2318,-3.0072,-2.8903,-2.9197,-2.9537,-3.0159,-3.0979,-3.2904,-3.4295,-3.525,-3.5295,-3.531,-3.531,-3.531,-3.5327,-3.5409,-3.6091,-3.6801,-3.7297,-3.6102,-3.6025,-3.627,-3.358,0.0,0.0,0.0,0.0,0.0,-2.7575,-2.7924,-2.7882,-2.5423,-2.3307,-2.2338,-2.5418,-2.4895,-2.4111,-2.7734,-2.8461,-2.8673,-3.0606,-3.0157,-2.9267,-2.9494,-2.8553,-2.7738,-2.7998,-2.7402,-2.6297,-2.4642,-2.3212,-2.1835,-2.0378,-1.9717,-1.9539,-2.0167,-2.018,-2.0347,-2.0661,-2.0715,-2.0728,-2.0742,-2.139,-2.2283,-2.3362,-2.5644,-2.7596,-2.9225,-3.0667,-3.1709,-3.2119,-3.1709,-3.1299,-3.0898,-3.1054,-3.253,-3.521,-3.7749,-3.8881,-3.8756,-3.7688,-3.6621,-3.5571,-3.6169,-3.5793,-3.4889,-3.5931,-3.7057,-3.8198,-3.9417,-4.0618,-4.1726,-4.29,-4.329,-4.329,0.0,0.0,0.0,0.0,0.0,0.0,0.0,0.0,0.0,0.0,0.0,0.0,0.0,0.0,0.0,0.0,0.0,0.0,0.0,0.0,0.0,0.0,0.0,0.0,0.0,0.0,0.0,0.0,0.0,-3.1515,-3.1794,-3.2273,-3.2512,0.0,-3.2512,-3.2837,-3.3426,-3.3622,-3.4066,-3.4638,0.0,-3.3541,-3.3357,0.0,0.0,0.0,0.0,0.0,0.0,-2.7214,-2.7492,-2.7294,-2.6938,-2.576,-2.4469,-2.4092,-2.5046,-2.6251,-2.6402,-2.8172,-2.998,-2.9983,-2.9374,-2.8551,-2.7683,-2.7087,-2.6377,-2.5185,-2.4512,-2.3197,-1.993,-1.9397,-1.9152,-1.8147,-1.8394,-1.9145,-2.0388,-2.0374,-2.0421,-2.0935,-2.1196,-2.148,-2.163,-2.3203,-2.4603,-2.5561,-2.6693,-2.8668,-3.1703,-3.1614,-3.1572,-3.168,-3.1269,-3.0996,-3.0889,-3.3098,-3.4153,-3.4073,-3.7333,-3.8265,-3.7071,-3.755,-3.7199,-3.6182,-3.6782,-3.6584,-3.6015,-3.6292,-3.7057,-3.8198,-3.9417,-4.0618,-4.1726,-4.29,-4.329,-4.329,0.0,0.0,0.0,0.0,0.0,0.0,0.0,0.0,0.0,0.0,0.0,0.0,0.0,0.0,0.0,0.0,0.0,0.0,0.0,0.0,0.0,0.0,0.0,0.0,0.0,0.0,0.0,0.0,0.0,0.0,0.0,-3.1316,-3.1511,-3.1511,-3.1511,-3.1768,-3.2173,0.0,0.0,0.0,0.0,0.0,0.0,0.0,0.0,0.0,0.0,0.0,-2.5978,-2.7438,-2.7322,-2.6773,-2.8135,-2.721,-2.5699,-2.623,-2.6829,-2.7306,-2.7406,-2.8623,-2.9622,-2.892,-2.8254,-2.7353,-2.5792,-2.5491,-2.5088,-2.3545,-2.29,-2.1684,-1.8547,-1.8859,-1.9004,-1.7246,-1.8328,-1.957,-2.0066,-2.0067,-2.0307,-2.1022,-2.137,-2.1836,-2.2318,-2.4154,-2.5801,-2.708,-2.7904,-2.9618,-3.2396,-3.1885,-3.1601,-3.1797,-3.1387,-3.1074,-3.0889,-3.381,-3.4842,-3.4017,-3.7309,-3.829,-3.7098,-3.7475,-3.7048,-3.6031,-3.6584,-3.637,-3.568,-3.6204,-3.6803,-3.7461,-3.8649,-3.9828,-4.1,-4.2126,-4.286,-4.329,0.0,0.0,0.0,0.0,0.0,0.0,0.0,0.0,0.0,0.0,0.0,0.0,0.0,0.0,0.0,0.0,0.0,0.0,0.0,0.0,0.0,0.0,0.0,0.0,0.0,0.0,0.0,0.0,0.0,0.0,0.0,0.0,0.0,0.0,0.0,0.0,0.0,0.0,0.0,0.0,0.0,0.0,0.0,0.0,0.0,0.0,0.0,0.0,-2.6275,-2.7926,-2.753,-2.6765,-2.9238,-2.8335,-2.6892,-2.9603,-2.9176,-2.8097,-2.934,-2.942,-2.8958,-2.815,-2.7454,-2.6472,-2.4531,-2.4153,-2.3867,-2.2529,-2.1875,-2.0942,-1.8886,-1.9844,-2.0124,-1.7711,-1.9105,-2.0288,-1.9672,-1.9804,-2.0241,-2.0962,-2.1383,-2.2069,-2.3113,-2.4778,-2.6538,-2.8418,-2.939,-3.0637,-3.2185,-3.1787,-3.167,-3.2053,-3.1631,-3.126,-3.0898,-3.381,-3.4954,-3.4318,-3.7345,-3.8417,-3.7764,-3.7299,-3.6546,-3.5633,-3.6157,-3.5818,-3.5014,-3.6015,-3.6405,-3.6499,-3.7632,-3.8827,-4.0029,-4.1169,-4.233,-4.329,0.0,0.0,0.0,0.0,0.0,0.0,0.0,0.0,0.0,0.0,-2.9928,-3.0278,0.0,0.0,0.0,0.0,0.0,0.0,0.0,0.0,0.0,0.0,0.0,0.0,0.0,0.0,0.0,-2.5522,-2.637,0.0,0.0,0.0,0.0,0.0,0.0,0.0,0.0,0.0,0.0,0.0,0.0,0.0,0.0,0.0,0.0,0.0,0.0,-2.495,0.0,0.0,-2.8726,-2.892,-3.0619,-3.0783,-3.0231,-2.9453,-2.9917,-3.0444,-2.9327,-2.9974,-3.0663,-2.9545,-2.8781,-2.7807,-2.6114,-2.4525,-2.2953,-2.128,-2.0283,-1.939,-1.8228,-1.911,-2.0104,-2.0403,-2.0435,-2.0522,-2.0635,-2.078,-2.0848,-2.0762,-2.1436,-2.2741,-2.4853,-2.6197,-2.7905,-3.0201,-3.1523,-3.2357,-3.2685,-3.1943,-3.1396,-3.1123,-3.1045,-3.0967,-3.0889,-3.381,-3.4775,-3.3763,-3.6725,-3.7626,-3.6681,-3.6593,-3.6443,-3.6267,-3.6367,-3.6304,-3.6141,-3.6329,-3.6405,-3.6499,-3.7632,-3.8827,-4.0029,-4.1169,-4.233,-4.329,0.0,0.0,0.0,0.0,0.0,0.0,0.0,-2.7499,-2.7946,-2.9175,-2.9315,-2.99,-3.1432,-3.0766,-3.0578,0.0,0.0,0.0,0.0,0.0,0.0,0.0,0.0,0.0,0.0,-2.5789,-2.5477,-2.5556,0.0,-2.6377,-2.7157,-2.7157,-2.7371,-2.7753,-2.7423,0.0,0.0,0.0,0.0,0.0,0.0,0.0,0.0,0.0,0.0,0.0,0.0,0.0,0.0,0.0,-2.8326,-2.9078,-3.1496,-3.2064,-3.1405,-2.9322,-2.999,-3.0941,-2.8802,-2.9539,-3.0592,-2.9369,-2.8556,-2.7286,-2.4262,-2.3043,-2.1858,-1.9441,-1.876,-1.8363,-1.7579,-1.8771,-2.006,-2.0654,-2.1433,-2.2144,-2.2688,-2.2356,-2.2107,-2.2183,-2.211,-2.2738,-2.465,-2.6207,-2.7853,-2.9654,-3.102,-3.21,-3.2764,-3.1982,-3.1328,-3.0898,-3.0889,-3.11,-3.1576,-3.3756,-3.4659,-3.436,-3.6541,-3.7149,-3.6405,-3.6405,-3.6405,-3.6405,-3.6405,-3.6078,-3.5554,-3.6179,-3.6065,-3.5646,-3.6747,-3.8302,-3.9986,-4.049,-4.1823,-4.329,0.0,0.0,0.0,0.0,0.0,0.0,0.0,-2.7241,-2.7682,-2.875,-2.9001,-2.969,-3.1209,-3.0452,-3.0176,0.0,0.0,0.0,0.0,0.0,0.0,0.0,0.0,0.0,0.0,0.0,0.0,-2.6264,-2.6384,0.0,0.0,0.0,0.0,0.0,-2.722,-2.7196,-2.7196,0.0,0.0,0.0,0.0,-2.7635,0.0,0.0,0.0,0.0,0.0,-2.5536,-2.595,-2.708,-2.767,-2.8386,-3.1069,-3.1689,-3.0997,-2.9221,-2.9706,-3.046,-2.8726,-2.9562,-3.0584,-2.9376,-2.8637,-2.7098,-2.3088,-2.1963,-2.0996,-1.834,-1.7832,-1.7802,-1.765,-1.8853,-2.0205,-2.1095,-2.1907,-2.296,-2.4522,-2.3606,-2.3104,-2.4055,-2.3634,-2.3898,-2.5439,-2.6856,-2.8289,-2.9608,-3.0567,-3.1426,-3.2334,-3.1748,-3.123,-3.0898,-3.0889,-3.1377,-3.241,-3.3879,-3.4797,-3.52,-3.669,-3.701,-3.6405,-3.6405,-3.6405,-3.6405,-3.6405,-3.5742,-3.4813,-3.5952,-3.5717,-3.4826,-3.5931,-3.7691,-3.9536,-3.9812,-4.1183,-4.2981,0.0,0.0,0.0,0.0,0.0,0.0,0.0,-2.7002,-2.7682,-2.875,-2.939,-2.9982,-3.0631,-3.0172,-2.9844,0.0,0.0,0.0,0.0,0.0,0.0,0.0,0.0,0.0,0.0,0.0,0.0,-2.7177,-2.7683,0.0,0.0,0.0,0.0,0.0,0.0,-2.7797,-2.793,-2.793,0.0,0.0,0.0,0.0,0.0,0.0,0.0,0.0,0.0,-2.6801,-2.6587,-2.7657,-2.7733,-2.7462,-2.7928,-2.8345,-2.8742,-2.9183,-2.921,-2.9239,-3.0161,-3.1424,-3.2195,-3.097,-3.0323,-2.915,-2.6074,-2.3224,-2.0839,-1.9414,-1.8223,-1.7886,-1.9354,-1.9778,-2.0819,-2.3599,-2.1582,-2.1033,-2.4959,-2.373,-2.334,-2.5679,-2.6791,-2.8081,-3.0039,-3.0211,-3.0895,-3.2347,-3.1793,-3.1348,-3.1084,-3.0986,-3.0928,-3.0889,-3.0889,-3.1584,-3.3004,-3.4504,-3.5374,-3.5746,-3.7195,-3.7374,-3.6405,-3.6405,-3.6405,-3.6405,-3.6405,-3.5742,-3.4813,-3.5952,-3.5717,-3.4826,-3.5931,-3.715,-3.8379,-3.9492,-4.0703,-4.1891,0.0,0.0,0.0,0.0,0.0,0.0,-2.6989,-2.7419,-2.8172,-2.9302,-2.9942,-3.0369,-3.0595,-3.0419,-3.0156,-2.9829,0.0,0.0,0.0,0.0,0.0,0.0,0.0,0.0,0.0,0.0,-2.7996,-2.777,-2.7996,0.0,0.0,0.0,0.0,0.0,0.0,-2.7993,-2.8074,-2.8074,0.0,0.0,0.0,0.0,0.0,0.0,0.0,0.0,0.0,0.0,-2.7002,-2.7115,-2.6402,-2.5385,-2.4832,-2.4257,-2.397,-2.4926,-2.7522,-2.9901,-2.8781,-3.0974,-3.3216,-3.1634,-3.0312,-2.846,-2.504,-2.2894,-2.1103,-1.9277,-1.8496,-1.834,-1.8987,-1.9365,-2.0185,-2.2136,-2.1551,-2.2179,-2.5894,-2.503,-2.5011,-2.7879,-2.7663,-2.815,-3.0256,-2.9923,-3.0035,-3.1151,-3.0684,-3.0508,-3.0869,-3.0889,-3.0889,-3.0889,-3.0889,-3.1856,-3.3857,-3.4448,-3.5409,-3.664,-3.7256,-3.7111,-3.6405,-3.6405,-3.6405,-3.6405,-3.6405,-3.5412,-3.3872,-3.5676,-3.5361,-3.3909,-3.5713,-3.7103,-3.8243,-3.9448,-4.0618,-4.1767,0.0,0.0,0.0,0.0,0.0,-2.7128,-2.7291,-2.7758,-2.8574,-2.9867,-3.0507,-3.0909,-3.1072,-3.1085,-3.0871,-3.0319,-2.998,0.0,0.0,0.0,0.0,0.0,0.0,0.0,0.0,0.0,-2.8524,-2.8348,-2.8524,-2.8599,0.0,0.0,-2.8511,-2.8348,0.0,0.0,0.0,0.0,0.0,0.0,0.0,0.0,0.0,0.0,0.0,0.0,0.0,0.0,0.0,0.0,0.0,-2.3664,-2.2614,0.0,0.0,-2.2104,-2.5573,-2.8739,-2.736,-3.0166,-3.3095,-3.1836,-3.0002,-2.7706,-2.483,-2.2809,-2.0986,-1.9199,-1.8792,-1.8792,-1.8792,-1.9082,-1.9756,-2.1191,-2.1489,-2.2683,-2.5976,-2.5628,-2.6136,-2.8989,-2.8622,-2.8826,-3.0779,-3.0288,-3.0086,-3.0519,-3.0195,-3.0234,-3.0859,-3.0889,-3.0889,-3.0889,-3.0889,-3.205,-3.4376,-3.4419,-3.5358,-3.7186,-3.7186,-3.6722,-3.5893,-3.6267,-3.6229,-3.594,-3.6267,-3.5336,-3.3709,-3.5638,-3.5299,-3.3746,-3.5676,-3.6883,-3.7756,-3.8917,-4.0088,-4.1253,0.0,0.0,0.0,0.0,0.0,0.0,-2.7241,-2.7758,-2.8712,-3.0382,-3.106,-3.1587,-3.2139,-3.219,-3.1976,-3.1424,-3.0407,0.0,0.0,0.0,0.0,0.0,0.0,0.0,0.0,0.0,-2.949,-2.8888,-2.949,-2.9779,-2.9779,-2.9779,-2.9465,-2.8888,0.0,0.0,0.0,0.0,0.0,0.0,0.0,0.0,0.0,0.0,0.0,0.0,0.0,0.0,0.0,0.0,0.0,0.0,0.0,-2.1041,0.0,0.0,-2.344,-2.4842,-2.6554,-2.9252,-3.1617,-3.1617,-2.9634,-2.7482,-2.6653,-2.3442,-2.037,-1.9463,-1.9277,-1.9277,-1.9277,-1.9287,-1.9863,-2.1602,-2.1207,-2.1728,-2.4693,-2.5158,-2.6126,-2.8626,-3.005,-3.1337,-3.2676,-3.2412,-3.1982,-3.1533,-3.1113,-3.0879,-3.0889,-3.0889,-3.0889,-3.0889,-3.0889,-3.205,-3.4376,-3.4419,-3.5358,-3.7186,-3.7186,-3.6332,-3.4776,-3.5868,-3.5768,-3.4801,-3.5893,-3.573,-3.4788,-3.5952,-3.5705,-3.4813,-3.5931,-3.6405,-3.6534,-3.7723,-3.8872,-4.0073,0.0,0.0,0.0,0.0,0.0,0.0,0.0,-2.7758,-2.8712,-3.0394,-3.1072,-3.1599,-3.2152,-3.2215,-3.1989,-3.1436,-3.1085,0.0,0.0,0.0,0.0,0.0,0.0,0.0,0.0,0.0,-3.0068,-3.0608,-3.0068,-2.998,-3.0344,-2.9967,-2.9691,-2.9515,-2.9515,-2.9428,0.0,0.0,0.0,0.0,0.0,0.0,-2.9664,0.0,0.0,0.0,0.0,0.0,0.0,0.0,0.0,0.0,0.0,0.0,0.0,0.0,-2.2574,-2.4721,-2.5194,-2.7128,-2.8972,-2.8606,-2.6985,-2.5137,-2.4008,-2.2353,-2.0771,-1.9902,-1.9717,-1.9717,-1.9717,-1.9961,-2.0635,-2.208,-2.2346,-2.3271,-2.6015,-2.6927,-2.8132,-3.0411,-3.21,-3.2881,-3.2412,-3.1719,-3.124,-3.1103,-3.041,-3.0254,-3.0859,-3.0889,-3.0889,-3.0889,-3.0889,-3.205,-3.4376,-3.4419,-3.5358,-3.7186,-3.7186,-3.632,-3.4763,-3.5855,-3.5755,-3.4776,-3.5893,-3.5742,-3.4813,-3.5952,-3.5717,-3.4826,-3.5931,-3.6405,-3.6534,-3.7678,-3.8334,-3.8948,0.0,0.0,0.0,0.0,0.0,0.0,0.0,-2.8197,-2.9013,-3.0683,-3.1185,-3.1687,-3.2453,-3.2541,-3.2403,-3.2051,-3.2026,0.0,0.0,0.0,0.0,0.0,0.0,0.0,0.0,-3.057,-3.0721,-3.1386,-3.0721,-3.0358,-3.0225,-2.988,-2.9468,-2.8999,-2.8847,-2.8791,0.0,0.0,0.0,0.0,0.0,0.0,-2.8627,0.0,0.0,0.0,0.0,0.0,0.0,0.0,0.0,0.0,0.0,0.0,0.0,0.0,-2.1828,-2.3274,-2.3815,-2.5506,-2.6985,-2.666,-2.5117,-2.3535,-2.29,-2.1709,-2.0625,-2.0244,-2.0557,-2.0742,-2.0244,-2.0781,-2.1465,-2.1953,-2.3066,-2.4316,-2.5615,-2.71,-2.8672,-3.0342,-3.1914,-3.2617,-3.1982,-3.1435,-3.1064,-3.0898,-3.0381,-3.0312,-3.0859,-3.0723,-3.0635,-3.0635,-3.1124,-3.227,-3.4097,-3.4449,-3.5404,-3.692,-3.692,-3.6119,-3.4763,-3.5855,-3.5755,-3.4776,-3.5893,-3.6015,0.0,-3.6128,-3.6003,-3.5416,-3.6141,-3.6405,-3.6499,-3.7196,-3.7723,-3.8334,0.0,0.0,0.0,0.0,0.0,0.0,0.0,-2.8888,-2.9477,-3.1173,-3.1386,-3.1813,-3.2998,-3.3124,-3.3124,-3.3124,0.0,0.0,0.0,0.0,0.0,0.0,0.0,0.0,-3.1313,-3.137,-3.1342,-3.1253,-3.126,-3.0663,-2.9484,-2.9449,-2.8777,-2.7621,-2.7262,-2.7104,0.0,0.0,0.0,0.0,-2.6705,-2.6657,0.0,0.0,0.0,0.0,0.0,0.0,0.0,0.0,0.0,0.0,0.0,0.0,0.0,0.0,0.0,0.0,0.0,-2.4095,-2.5323,-2.5323,-2.3857,-2.248,-2.2934,-2.1416,0.0,-2.0644,-2.167,-2.2139,-2.0967,-2.1768,-2.2363,-2.1463,-2.3447,-2.4851,-2.4043,-2.6172,-2.8086,-2.8877,-3.0185,-3.1133,-3.1396,-3.1484,-3.1338,-3.0928,-3.0889,-3.0879,-3.084,-3.043,-3.0242,-3.0317,-3.1579,-3.2705,-3.3543,-3.45,-3.5453,-3.6292,-3.6367,-3.5742,-3.465,-3.578,-3.5705,-3.4726,-3.5818,-3.6355,-3.6355,-3.6392,-3.6405,-3.6405,-3.6405,-3.6405,-3.6405,-3.6405,-3.7057,-3.7984,0.0,0.0,0.0,0.0,0.0,0.0,0.0,0.0,0.0,0.0,-3.1386,-3.1813,-3.2998,-3.3124,-3.3124,0.0,0.0,0.0,0.0,0.0,0.0,0.0,0.0,0.0,-3.0657,-3.1121,-3.0887,-2.9869,-2.996,-2.9442,-2.8307,-2.7878,-2.7538,-2.7229,-2.716,-2.7104,0.0,0.0,0.0,0.0,-2.5633,-2.5779,0.0,0.0,0.0,0.0,-2.4212,-2.3316,0.0,0.0,0.0,0.0,0.0,0.0,0.0,0.0,-2.124,-2.1094,-2.1152,0.0,-2.1787,-2.1787,-2.1437,-2.1085,0.0,0.0,0.0,0.0,0.0,-2.2422,-2.2109,-2.3105,-2.3691,-2.2789,-2.4033,-2.5117,-2.5254,-2.749,-2.9189,-2.9394,-3.1152,-3.1865,-3.0625,-3.1123,-3.1338,-3.0928,-3.0889,-3.0732,-3.0371,-3.0254,-3.0538,-3.1278,-3.2244,-3.2892,-3.3146,-3.4376,-3.5029,-3.5115,-3.6003,-3.5387,-3.352,-3.5039,-3.514,-3.4161,-3.5265,-3.5683,-3.5768,-3.6194,-3.6405,-3.6405,-3.6405,-3.6405,-3.6405,-3.6405,-3.6581,-3.693,0.0,0.0,0.0,0.0,0.0,0.0,0.0,0.0,0.0,0.0,0.0,0.0,0.0,0.0,0.0,0.0,0.0,0.0,0.0,0.0,0.0,0.0,0.0,-3.2025,-3.0795,-3.1137,-3.0696,-2.9407,-2.9267,-2.8627,-2.7422,-2.6943,-2.641,-2.5839,-2.5672,-2.5588,-2.5556,-2.5125,-2.5178,-2.5439,-2.4428,0.0,0.0,0.0,0.0,0.0,-2.3002,-2.2534,0.0,-2.1686,-2.124,-2.0977,0.0,0.0,0.0,0.0,-2.1689,-2.1484,-2.128,-2.1025,-2.1016,-2.1602,-2.1309,-2.1035,-2.1662,0.0,0.0,0.0,0.0,-2.2744,-2.2549,-2.3398,-2.3906,-2.3198,-2.4053,-2.5205,-2.6445,-2.7988,-2.8984,-2.8984,-3.0019,-3.0518,-2.9961,-3.0713,-3.1133,-3.0908,-3.0889,-3.0693,-3.0225,-3.0601,-3.0993,-3.128,-3.2849,-3.3733,-3.3901,-3.5045,-3.5313,-3.4693,-3.5843,-3.5512,-3.3872,-3.4969,-3.5169,-3.4663,-3.4751,-3.4893,-3.5119,-3.5215,-3.5529,-3.5994,-3.5994,-3.6144,-3.6405,-3.6405,-3.6405,-3.6499,0.0,0.0,0.0,0.0,0.0,0.0,0.0,0.0,0.0,0.0,0.0,0.0,0.0,0.0,0.0,0.0,0.0,0.0,0.0,0.0,0.0,0.0,0.0,-3.1928,-3.0559,-3.0737,-3.011,-2.8635,-2.8499,-2.7728,-2.6401,-2.6087,-2.5325,-2.4307,-2.3945,-2.3789,-2.376,-2.3276,-2.351,-2.416,-2.3383,0.0,0.0,0.0,0.0,0.0,0.0,0.0,0.0,-2.1982,-2.165,-2.1337,-2.2168,0.0,0.0,0.0,0.0,0.0,-2.1807,-2.166,-2.1756,-2.2906,-2.2233,-2.167,-2.3012,0.0,0.0,0.0,0.0,-2.3218,-2.3047,-2.3867,-2.4287,-2.3344,-2.4072,-2.5381,-2.7295,-2.8096,-2.8437,-2.831,-2.8584,-2.8994,-2.9577,-3.0371,-3.0889,-3.0889,-3.1043,-3.0922,-3.0448,-3.1302,-3.1742,-3.1548,-3.3396,-3.4601,-3.5057,-3.5874,-3.5692,-3.4613,-3.5629,-3.5542,-3.4487,-3.4994,-3.5245,-3.5207,-3.4399,0.0,-3.4575,-3.4361,-3.4776,-3.5508,-3.5596,-3.5956,-3.6405,-3.6405,-3.6405,-3.6405,0.0,0.0,0.0,0.0,0.0,0.0,0.0,0.0,0.0,0.0,0.0,0.0,0.0,0.0,0.0,0.0,0.0,0.0,0.0,0.0,0.0,-2.9954,-2.9954,-2.9216,-2.7578,-2.8622,-2.7861,-2.5191,-2.6184,-2.5875,-2.4291,-2.4222,-2.4057,-2.3887,-2.3818,-2.3789,-2.376,-2.3276,-2.3169,-2.3276,-2.3149,0.0,0.0,0.0,0.0,0.0,0.0,0.0,0.0,-2.2412,-2.1853,-2.1278,-2.1826,0.0,0.0,0.0,0.0,0.0,-2.1435,-2.2029,-2.2935,-2.3545,-2.2734,-2.2119,-2.3408,0.0,0.0,0.0,-2.4651,-2.4434,-2.507,-2.6775,-2.7158,-2.417,-2.5039,-2.6328,-2.7021,-2.8418,-2.9101,-2.8379,-2.9912,-3.0644,-2.9668,-3.0371,-3.0889,-3.0889,-3.1566,-3.1836,-3.1391,-3.2306,-3.3123,-3.3863,-3.4225,-3.4752,-3.5407,-3.5565,-3.5069,-3.4035,-3.4675,-3.4387,-3.3345,-3.3897,-3.4161,-3.4173,-3.4462,-3.4374,-3.4123,-3.5487,-3.5818,-3.5545,-3.6056,-3.6329,-3.6405,-3.6405,-3.6405,-3.6405,0.0,0.0,0.0,0.0,0.0,0.0,0.0,0.0,0.0,0.0,0.0,0.0,0.0,0.0,0.0,0.0,0.0,0.0,0.0,0.0,0.0,-2.808,-2.7412,-2.7003,-2.6896,-2.7259,-2.6438,-2.4414,-2.4761,-2.4541,-2.3779,-2.3545,-2.3437,-2.3437,-2.3437,-2.3437,-2.3428,-2.3179,-2.3091,-2.3091,0.0,0.0,0.0,0.0,0.0,0.0,0.0,0.0,0.0,0.0,-2.1758,-2.1268,-2.1748,0.0,0.0,0.0,0.0,0.0,-2.1317,-2.196,-2.3184,-2.4795,-2.3877,-2.3257,-2.5664,-2.3818,-2.2578,-2.6064,-2.4971,-2.3867,-2.5401,-2.6338,-2.6631,-2.5986,-2.7539,-2.8633,-2.8115,-2.8721,-2.8984,-2.8369,-2.9375,-2.9883,-2.9277,-3.0234,-3.1218,-3.2045,-3.2142,-3.2374,-3.2781,-3.3598,-3.4198,-3.4397,-3.4799,-3.5172,-3.5508,-3.4906,-3.4399,-3.3909,-3.4462,-3.4299,-3.3533,-3.3784,-3.3897,-3.3884,0.0,-3.3395,-3.352,-3.4318,-3.4788,-3.5107,-3.5705,-3.6094,-3.6405,-3.6405,-3.6405,-3.6405,0.0,0.0,0.0,0.0,0.0,0.0,0.0,0.0,0.0,0.0,0.0,0.0,0.0,0.0,0.0,0.0,0.0,0.0,0.0,0.0,-2.6687,-2.6336,-2.5318,-2.5222,-2.616,-2.5854,-2.5178,-2.4121,-2.3799,-2.3633,-2.3633,-2.3247,-2.3091,-2.3091,-2.3091,-2.3091,-2.3091,-2.3091,-2.3091,-2.3091,0.0,0.0,0.0,0.0,0.0,0.0,0.0,0.0,0.0,0.0,0.0,0.0,0.0,0.0,0.0,-2.1074,-2.1387,-2.166,-2.1288,-2.1934,-2.3193,-2.5381,0.0,-2.4111,-2.7764,-2.5264,-2.331,-2.7337,-2.5605,-2.4023,-2.5977,-2.5889,-2.6143,-2.7885,-2.9502,-3.0332,-2.9629,-2.9443,-2.9258,-2.8935,-2.918,-2.9486,-2.9853,-3.0834,-3.1994,-3.3303,-3.3177,-3.3343,-3.403,-3.4878,-3.5184,-3.4896,-3.5303,-3.5433,-3.5307,-3.4387,-3.3897,-3.3897,-3.4198,-3.411,-3.3709,-3.3709,-3.3709,-3.3671,-3.293,-3.2792,-3.3106,-3.3495,-3.4073,-3.4788,-3.5466,-3.5994,-3.6405,-3.6405,-3.6405,-3.6405,0.0,0.0,0.0,0.0,0.0,0.0,0.0,0.0,0.0,0.0,0.0,0.0,0.0,0.0,0.0,0.0,0.0,0.0,0.0,0.0,-2.4631,-2.4601,-2.4137,-2.3922,-2.4012,-2.3983,-2.3722,-2.3188,-2.3159,-2.314,-2.314,-2.311,-2.3091,-2.3091,-2.3091,-2.3091,-2.3091,-2.3091,-2.3091,-2.3091,-2.3091,0.0,0.0,0.0,0.0,0.0,0.0,0.0,0.0,0.0,0.0,0.0,0.0,0.0,-2.0654,-2.0654,-2.0928,-2.1239,-2.12,-2.2158,-2.335,-2.4316,-2.3793,-2.4248,-2.8506,-2.6143,-2.4222,-2.8555,-2.7666,-2.6523,-2.7861,-2.7432,-2.7432,-2.915,-2.956,-3.0059,-3.1172,-3.0996,-3.0742,-3.0703,-3.0732,-3.1291,-3.2648,-3.2912,-3.3338,-3.4238,-3.5085,-3.5384,-3.4917,-3.5806,-3.6301,-3.6263,-3.5784,-3.5257,-3.4743,-3.4198,-3.3897,-3.3884,-3.342,-3.3169,-3.3174,-3.3174,-3.3174,-3.3156,-3.3596,-3.3508,-3.3237,-3.4726,-3.5069,-3.4826,-3.5893,-3.6367,-3.6405,-3.6405,-3.6405,-3.6405,0.0,0.0,0.0,0.0,0.0,0.0,0.0,0.0,0.0,0.0,0.0,0.0,0.0,0.0,0.0,0.0,0.0,0.0,0.0,-2.4532,-2.4307,-2.4043,-2.3877,-2.3662,-2.3344,-2.3344,-2.3257,-2.3091,-2.3091,-2.3091,-2.3091,-2.3091,-2.3091,-2.3091,-2.3091,-2.3091,-2.3091,-2.3091,-2.3091,-2.3091,-2.3091,-2.3091,0.0,0.0,0.0,0.0,0.0,0.0,0.0,0.0,-2.0957,-2.082,0.0,-2.0742,-2.0605,-2.0605,-2.0723,-2.082,-2.082,-2.1572,-2.2832,-2.4756,-2.4134,-2.4222,-2.8584,-2.707,-2.5849,-2.9941,-2.8437,-2.6455,-2.666,-2.7744,-2.8818,-2.9463,-3.0254,-3.0957,-3.1445,-3.1152,-3.0889,-3.0889,-3.171,-3.2483,-3.3077,-3.3901,-3.4857,-3.5746,-3.578,-3.5958,-3.6346,-3.6408,-3.6207,-3.5868,-3.5316,-3.4718,-3.4211,-3.3658,-3.3382,-3.3382,-3.3224,-3.3257,-3.3583,-3.3232,-3.3124,-3.3124,-3.3294,-3.3269,-3.3224,-3.45,-3.4868,-3.4826,-3.5931,-3.6405,-3.6405,-3.6405,-3.6405,-3.6405,0.0,0.0,0.0,0.0,0.0,0.0,0.0,0.0,0.0,0.0,0.0,0.0,0.0,0.0,0.0,0.0,0.0,0.0,-2.3628,-2.3857,-2.3887,-2.3594,-2.3584,-2.3447,-2.3101,-2.3091,-2.3091,-2.3091,-2.3091,-2.3091,-2.3091,-2.3091,-2.3091,-2.3091,-2.3091,-2.3091,-2.3091,-2.3091,-2.3091,-2.3091,-2.3091,-2.3091,0.0,0.0,0.0,0.0,0.0,0.0,0.0,0.0,0.0,0.0,0.0,0.0,0.0,0.0,-2.0703,-2.0781,-2.0781,-2.1416,-2.2598,-2.4729,0.0,-2.4473,-2.8789,-2.7783,-2.6973,-3.0576,-2.9443,-2.7637,-2.7051,-2.8271,-2.9414,-2.9607,-3.0703,-3.1716,-3.2126,-3.2271,-3.2275,-3.2275,-3.3201,-3.3957,-3.4448,-3.5252,-3.6089,-3.7058,-3.6589,-3.643,-3.69,-3.6619,-3.6107,-3.552,-3.4969,-3.4462,-3.3909,-3.3357,-3.3124,-3.3124,-3.3124,-3.3269,-3.3621,-3.3257,-3.3124,-3.3124,-3.3124,-3.3124,-3.3156,-3.4274,-3.4926,-3.5316,-3.6116,-3.6405,-3.6405,-3.6405,-3.6405,-3.6405,0.0,0.0,0.0,0.0,0.0,0.0,0.0,0.0,0.0,0.0,0.0,0.0,0.0,0.0,0.0,0.0,0.0,0.0,-2.3091,-2.3091,-2.3091,-2.3091,-2.3091,-2.3091,-2.3091,-2.3091,-2.3091,-2.3091,-2.3091,-2.3091,-2.3091,-2.3091,-2.3091,-2.3091,-2.311,-2.311,-2.3091,-2.311,-2.311,-2.3091,-2.3091,-2.3091,-2.3003,0.0,0.0,0.0,0.0,0.0,0.0,0.0,-2.0605,0.0,0.0,0.0,0.0,0.0,-2.0898,-2.121,-2.122,-2.1834,-2.2822,-2.4102,-2.4111,-2.4969,-2.9189,-2.8213,-2.7256,-3.0273,-3.0889,-3.0605,-2.9773,-2.9219,-2.9072,-2.9548,-3.086,-3.2296,-3.355,-3.4642,-3.5288,-3.5288,-3.5288,-3.589,-3.7358,-3.7042,-3.7058,-3.7941,-3.75,-3.6996,-3.6443,-3.6405,-3.6107,-3.5508,-3.4956,-3.4449,-3.3884,-3.3345,-3.3111,-3.3056,-3.3111,-3.3111,-3.3111,-3.3124,-3.3124,-3.3111,-3.3124,-3.3124,-3.3156,-3.4274,-3.5366,-3.6405,-3.6405,-3.6405,-3.6405,-3.6405,-3.6405,-3.6405,0.0,0.0,0.0,0.0,0.0,0.0,0.0,0.0,0.0,0.0,0.0,0.0,0.0,0.0,0.0,0.0,0.0,0.0,-2.3091,-2.3091,-2.3091,-2.3091,-2.3091,-2.3091,-2.3091,-2.3091,-2.3091,-2.3091,-2.3091,-2.3091,-2.3091,-2.3091,-2.3091,-2.314,-2.4092,-2.3994,-2.3149,-2.4111,-2.3965,-2.3071,-2.2779,-2.2705,-2.2565,0.0,0.0,0.0,0.0,0.0,0.0,0.0,0.0,0.0,0.0,0.0,0.0,-2.2259,-2.206,-2.1885,-2.2793,-2.2783,-2.29,-2.4482,-2.5862,-2.7022,-2.7779,-2.7842,-2.833,-3.0449,-3.04,-2.9697,-2.8828,-3.0399,-3.1587,-3.0774,-3.2673,-3.4406,-3.478,-3.5102,-3.5288,-3.5288,-3.6217,-3.7026,-3.7465,-3.7926,-3.8189,-3.799,-3.75,-3.6996,-3.6443,-3.5994,-3.5483,-3.4944,-3.4437,-3.3684,-3.2717,-3.2955,-3.2679,-3.1901,-3.229,-3.2466,-3.2478,-3.2893,-3.2855,-3.2491,-3.2905,-3.3124,-3.3156,-3.4274,-3.514,-3.583,-3.6207,-3.6405,-3.6405,-3.6405,-3.6405,-3.6405,0.0,0.0,0.0,0.0,0.0,0.0,0.0,0.0,0.0,0.0,0.0,0.0,0.0,0.0,0.0,0.0,0.0,0.0,0.0,-2.3091,-2.3091,-2.3091,-2.3091,-2.3091,-2.3091,-2.3091,-2.3091,-2.3091,-2.3091,-2.3091,-2.3091,-2.3091,-2.3091,-2.314,-2.4131,-2.3935,-2.2906,-2.3896,-2.3662,-2.2637,-2.2549,-2.2412,-2.2227,0.0,0.0,0.0,0.0,0.0,0.0,0.0,0.0,0.0,0.0,0.0,0.0,-2.2699,-2.2773,-2.3187,-2.4559,-2.4652,-2.5104,-2.7994,-2.8496,-2.8369,-2.8645,-2.928,-3.0348,-3.243,-3.2602,-3.2234,-3.174,-3.2897,-3.3687,-3.2922,-3.4695,-3.6162,-3.6162,-3.6661,-3.7049,-3.7049,-3.7808,-3.8275,-3.8056,-3.8362,-3.8291,-3.7726,-3.7174,-3.6621,-3.6069,-3.5683,-3.5144,-3.4424,-3.4073,-3.3357,-3.2227,-3.2554,-3.2277,-3.1386,-3.1725,-3.1775,-3.1612,-3.2378,-3.2541,-3.224,-3.283,-3.3206,-3.347,-3.4361,-3.5006,-3.5558,-3.6144,-3.6405,-3.6405,-3.6405,-3.6405,-3.6405,0.0,0.0,0.0,0.0,0.0,0.0,0.0,0.0,0.0,0.0,-2.3091,0.0,0.0,0.0,0.0,0.0,0.0,0.0,0.0,0.0,-2.3091,-2.3091,-2.3091,-2.3091,-2.3091,-2.3091,-2.3091,-2.3091,-2.3091,-2.3091,-2.3091,-2.3091,-2.3071,-2.3062,-2.3613,-2.333,-2.249,-2.2945,-2.2685,-2.1924,-2.2305,-2.2227,-2.1924,-2.2305,0.0,0.0,0.0,0.0,0.0,0.0,0.0,0.0,0.0,0.0,-2.3525,-2.248,-2.335,-2.5009,-2.6543,-2.7182,-2.8459,-3.2694,-3.1234,-2.9345,-3.1602,-3.2373,-3.3228,-3.5456,-3.6256,-3.6565,-3.6598,-3.6027,-3.5508,-3.5508,-3.6757,-3.769,-3.769,-3.8856,-3.9697,-3.9697,-3.9647,-3.9421,-3.8969,-3.8304,-3.7726,-3.7224,-3.6719,-3.6119,-3.552,-3.5445,-3.4944,-3.3935,-3.3796,-3.3219,-3.2152,-3.2139,-3.1838,-3.1248,-3.1298,-3.1047,-3.0583,-3.17,-3.224,-3.2328,-3.2855,-3.3382,-3.3935,-3.45,-3.5006,-3.5558,-3.6144,-3.6405,-3.6405,-3.6405,-3.6405,-3.6405,0.0,0.0,0.0,0.0,0.0,0.0,0.0,0.0,0.0,0.0,0.0,0.0,0.0,0.0,0.0,0.0,0.0,0.0,0.0,0.0,-2.3091,-2.3091,-2.3091,-2.3091,-2.3091,-2.3091,-2.3091,-2.3091,-2.3091,-2.3091,-2.3091,-2.3091,-2.2916,-2.2695,-2.3789,-2.3437,-2.209,-2.3184,-2.2969,-2.1894,-2.1982,-2.1963,-2.1894,-2.1992,-2.1963,0.0,0.0,0.0,0.0,0.0,0.0,0.0,-2.1992,-2.2529,-2.3418,-2.417,-2.5487,-2.7117,-2.9268,-2.9083,-2.8679,-3.0093,-3.0056,-3.1232,-3.7238,-3.7886,-3.7133,-3.6616,-3.5781,-3.5408,-3.596,-3.6619,-3.7026,-3.7026,-3.8243,-3.9245,-3.9245,-3.953,-3.9697,-3.9697,-3.932,-3.9057,-3.8932,-3.7952,-3.7312,-3.7199,-3.6719,-3.6119,-3.552,-3.5094,-3.4587,-3.3922,-3.3043,-3.2252,-3.1574,-3.1574,-3.1085,-3.0143,-3.057,-3.0495,-3.0018,-3.1524,-3.2466,-3.2893,-3.3018,-3.3382,-3.3935,-3.45,-3.5006,-3.5558,-3.6144,-3.6405,-3.6405,-3.6405,-3.6405,-3.6405,0.0,0.0,0.0,0.0,0.0,0.0,0.0,0.0,0.0,0.0,0.0,0.0,0.0,0.0,0.0,0.0,0.0,0.0,0.0,0.0,-2.3091,-2.3091,-2.3091,-2.3091,-2.3091,-2.3091,-2.3091,-2.3091,-2.3091,-2.2994,-2.2789,-2.2789,-2.2617,-2.2246,-2.3115,-2.2783,-2.1631,-2.251,-2.2256,-2.1329,-2.1709,-2.1768,-2.1641,-2.2256,-2.2353,-2.2207,-2.2412,0.0,0.0,0.0,0.0,0.0,0.0,0.0,-2.4033,-2.3887,-2.5115,-2.6882,-2.8317,-2.9683,-3.1086,-3.2983,-3.482,-3.6813,-3.9149,-4.0049,-4.0105,-3.909,-3.838,-3.7947,-3.8093,-3.8328,-3.857,-3.857,-3.9193,-3.9697,-3.9697,-3.9697,-3.9697,-3.9697,-3.9207,-3.8806,-3.8479,-3.7688,-3.7073,-3.6857,-3.6282,-3.573,-3.5144,-3.4625,-3.4073,-3.352,-3.2667,-3.1951,-3.1399,-3.1148,-3.0608,-2.9792,-3.008,-3.0218,-3.0218,-3.1323,-3.2127,-3.2679,-3.2955,-3.3244,-3.3545,-3.4098,-3.4605,-3.5157,-3.5755,-3.6132,-3.6405,-3.6405,-3.6405,-3.6405,0.0,0.0,0.0,0.0,0.0,0.0,0.0,0.0,0.0,0.0,0.0,0.0,0.0,0.0,0.0,0.0,0.0,0.0,0.0,0.0,0.0,-2.3091,-2.3091,-2.3091,-2.3091,-2.3091,-2.3091,-2.3091,-2.3023,-2.2964,-2.2949,-2.2949,-2.2734,-2.2334,-2.2607,-2.2178,-2.121,-2.1533,-2.1279,-2.0752,-2.1562,-2.1709,-2.1541,-2.2662,-2.2877,-2.2666,-2.2974,-2.3091,-2.3091,-2.3091,0.0,0.0,0.0,0.0,-2.4453,-2.3037,-2.4165,-2.5972,-2.6673,-2.9902,-3.3814,-3.7084,-3.9896,-4.139,-3.9825,-4.073,-4.1769,-4.1363,-4.1213,-4.0974,-4.0475,-3.9998,-3.9697,-3.9697,-3.9697,-3.9697,-3.9697,-3.9697,-3.9659,-3.9559,-3.9069,-3.8492,-3.7914,-3.7362,-3.6908,-3.6443,-3.6029,-3.5474,-3.4751,-3.4275,-3.37,-3.2986,-3.229,-3.1725,-3.126,-3.0733,-3.0244,-2.9792,-2.9792,-3.003,-3.0495,-3.1022,-3.1612,-3.224,-3.283,-3.3131,-3.3257,-3.3709,-3.4223,-3.4718,-3.5182,-3.573,-3.6267,-3.6267,-3.6329,-3.6405,0.0,0.0,0.0,0.0,0.0,0.0,0.0,0.0,0.0,0.0,-2.3091,-2.3091,0.0,0.0,0.0,0.0,0.0,0.0,0.0,0.0,0.0,-2.3091,-2.3091,-2.3091,-2.3091,-2.3091,-2.3091,-2.3091,-2.273,-2.333,-2.4773,-2.4773,-2.4492,-2.4062,-2.376,-2.2734,-2.1171,-2.0879,-2.0898,-2.1191,-2.1689,-2.207,-2.2402,-2.2886,-2.3062,-2.3023,-2.3071,-2.3091,-2.3091,-2.3091,-2.3091,0.0,0.0,0.0,-2.3305,-2.3081,-2.4642,-2.6689,-2.7654,-3.0714,-3.4394,-3.7578,-3.7769,-3.8016,-4.1636,-4.1535,-4.0852,-4.12,-4.0912,-4.0463,-3.991,-3.9747,-3.9697,-3.9697,-3.9697,-3.9697,-3.9697,-3.9697,-3.9521,-3.9032,-3.8467,-3.7902,-3.7349,-3.6845,-3.6493,-3.6417,-3.6715,-3.6238,-3.4796,-3.4637,-3.3869,-3.2395,-3.1361,-3.0796,-3.0721,-3.0168,-2.9867,-2.9792,-2.9792,-2.9829,-2.993,-3.047,-3.126,-3.224,-3.283,-3.3345,-3.3796,-3.3872,-3.4223,-3.4726,-3.4756,-3.5119,-3.5608,-3.5608,-3.5956,-3.6405,0.0,0.0,0.0,0.0,0.0,0.0,0.0,0.0,0.0,0.0,0.0,-2.3091,0.0,0.0,0.0,0.0,0.0,0.0,0.0,0.0,0.0,-2.3091,-2.3091,-2.3091,-2.3091,-2.3091,-2.2984,-2.274,-2.2607,-2.376,-2.6162,-2.6406,-2.5771,-2.4443,-2.5,-2.3887,-2.1631,-2.2148,-2.207,-2.1611,-2.1807,-2.2139,-2.2539,-2.2715,-2.2886,-2.3091,-2.3091,-2.3091,-2.3091,-2.3091,-2.3091,-2.3052,-2.2818,0.0,0.0,0.0,-2.3494,-2.5499,-2.9332,-3.1586,-3.4083,-3.9279,-3.9115,-3.863,-4.2173,-4.1706,-4.0764,-4.1618,-4.1116,-4.035,-3.9798,-3.9697,-3.9697,-3.9697,-3.9697,-3.9697,-3.9697,-3.9697,-3.9484,-3.8931,-3.8366,-3.7789,-3.7236,-3.6732,-3.6405,-3.6405,-3.6554,-3.6319,-3.5644,-3.5229,-3.4687,-3.394,-3.2774,-3.1911,-3.1397,-3.0829,-3.0317,-2.9792,-2.9792,-2.9792,-2.9817,-3.0369,-3.1035,-3.1788,-3.2353,-3.2918,-3.3432,-3.3432,-3.3759,-3.4299,-3.46,-3.4818,-3.5119,-3.578,-3.5968,-3.5943,0.0,0.0,0.0,0.0,0.0,0.0,0.0,0.0,0.0,0.0,0.0,0.0,0.0,0.0,0.0,0.0,0.0,0.0,0.0,0.0,0.0,-2.2945,-2.3042,-2.3042,-2.2935,-2.2935,-2.273,-2.2353,-2.2246,-2.3686,-2.6658,-2.7363,-2.6973,-2.5762,-2.6533,-2.5566,-2.3379,-2.3779,-2.3467,-2.2685,-2.2568,-2.2519,-2.2519,-2.2627,-2.2818,-2.3081,-2.2974,-2.3003,-2.3062,-2.2847,-2.2916,-2.3003,-2.2519,-2.2604,0.0,0.0,0.0,-2.4151,-2.955,-3.1471,-3.3351,-3.9052,-3.9346,-3.8856,-4.1191,-4.0877,-4.0325,-4.1207,-4.1003,-4.0513,-3.9823,-3.9697,-3.9697,-3.9697,-3.9697,-3.9697,-3.9697,-3.9697,-3.9433,-3.873,-3.8266,-3.7739,-3.7048,-3.6644,-3.6546,-3.6803,-3.6742,-3.6724,-3.6767,-3.6097,-3.5541,-3.5082,-3.4034,-3.2921,-3.1827,-3.1142,-3.0482,-2.9792,-2.9792,-2.9792,-2.9804,-3.0218,-3.0771,-3.1424,-3.1976,-3.2541,-3.3124,-3.3124,-3.3319,-3.3734,-3.4148,-3.4399,-3.4613,-3.5429,-3.5655,-3.5558,0.0,0.0,0.0,0.0,0.0,0.0,0.0,0.0,0.0,0.0,0.0,0.0,-2.3091,-2.3091,-2.3091,-2.3091,-2.3091,0.0,0.0,0.0,0.0,-2.2568,-2.2886,0.0,-2.2549,-2.2549,-2.2344,-2.1924,-2.1504,-2.2799,-2.5781,-2.708,-2.8305,-2.9323,-2.8525,-2.7881,-2.7288,-2.5234,-2.459,-2.491,-2.4453,-2.3574,-2.2559,-2.2916,-2.3081,-2.3042,-2.2685,-2.276,-2.2974,-2.2217,-2.248,-2.2955,-2.2178,-2.2207,-2.2373,0.0,0.0,0.0,-2.6811,-2.9549,-3.2159,-3.5127,-3.6172,-3.6835,-3.8002,-3.863,-3.902,-3.9082,-4.0249,-4.0912,-3.9885,-3.9697,-3.9697,-3.9697,-3.9697,-3.9697,-3.9697,-3.9697,-3.9283,-3.8191,-3.8027,-3.7588,-3.6556,-3.643,-3.6849,-3.7939,-3.7885,-3.7882,-3.8007,-3.7327,-3.6148,-3.4509,-3.391,-3.2827,-3.127,-3.033,-2.9869,-2.9792,-2.9792,-2.9792,-2.9792,-2.9829,-3.0407,-3.1424,-3.1976,-3.2541,-3.3124,-3.3124,-3.3136,-3.3119,-3.3156,-3.3483,-3.3947,-3.401,-3.4675,-3.5495,0.0,0.0,0.0,0.0,0.0,0.0,0.0,0.0,0.0,0.0,0.0,0.0,0.0,-2.3091,-2.3091,-2.3091,-2.3091,0.0,0.0,0.0,0.0,-2.2877,-2.3013,-2.3023,-2.2877,-2.2646,-2.2305,-2.1885,-2.1445,-2.2311,-2.4512,-2.5527,-2.6887,-2.8481,-3.0332,-2.957,-2.6865,-2.7178,-2.5957,-2.3935,-2.5185,-2.457,-2.2945,-2.3647,-2.4131,-2.4248,-2.3271,-2.3545,-2.4209,-2.3076,-2.2847,-2.2945,-2.2148,-2.2178,-2.2402,-2.1826,-2.2844,-2.4651,-2.6896,-2.8633,-3.0721,-3.454,-3.458,-3.4474,-3.7349,-3.8454,-3.8768,-3.8391,-3.9923,-4.0902,-3.9433,-3.9459,-3.9697,-3.9697,-3.9697,-3.9697,-3.9697,-3.9697,-3.9408,-3.8655,-3.8228,-3.7713,-3.696,-3.7275,-3.7678,-3.8062,-3.7394,-3.7557,-3.9003,-3.6587,-3.5534,-3.6291,-3.4716,-3.2993,-3.1217,-3.0279,-2.9792,-2.9792,-2.9792,-2.9792,-2.9804,-3.0168,-3.0708,-3.1424,-3.1976,-3.2541,-3.3124,-3.3124,-3.3124,-3.3106,-3.347,-3.3721,-3.3985,-3.4655,-3.5157,-3.5558,0.0,0.0,0.0,0.0,0.0,0.0,0.0,0.0,-2.3091,-2.3091,0.0,0.0,0.0,0.0,-2.3091,-2.3091,-2.3091,-2.3033,-2.2896,-2.3013,-2.3033,-2.2886,-2.3023,-2.3033,-2.2886,-2.2656,-2.2236,-2.167,-2.1337,-2.1853,-2.3174,-2.4316,-2.5625,-2.7129,-2.9707,-2.9834,-2.8164,-2.8994,-2.7861,-2.5566,-2.6299,-2.5732,-2.4446,-2.4912,-2.5264,-2.5487,-2.4863,-2.4932,-2.5166,-2.4251,-2.3773,-2.3418,-2.2578,-2.2109,-2.1836,-2.1709,-2.3029,-2.4785,-2.605,-2.7493,-2.9414,-3.2737,-3.2767,-3.2667,-3.5429,-3.7224,-3.809,-3.7337,-3.9258,-4.0676,-3.9383,-3.9446,-3.9697,-3.9697,-3.9697,-3.9697,-3.9697,-3.9697,-3.9484,-3.8931,-3.8366,-3.7789,-3.7236,-3.7751,-3.8289,-3.8693,-3.7952,-3.826,-4.012,-3.7485,-3.6241,-3.6911,-3.4431,-3.2464,-3.1217,-3.0279,-2.9792,-2.9792,-2.9792,-2.9892,-3.008,-3.0457,-3.0997,-3.1687,-3.2051,-3.2541,-3.3124,-3.3124,-3.3224,-3.337,-3.3558,-3.3847,-3.4248,-3.4788,-3.5182,-3.5558,0.0,0.0,0.0,0.0,0.0,0.0,0.0,0.0,-2.3091,-2.3091,0.0,0.0,0.0,0.0,0.0,-2.3091,-2.3091,-2.2925,-2.2559,-2.2867,-2.2916,-2.2549,0.0,0.0,-2.2519,-2.25,-2.2038,-2.119,-2.1181,-2.1435,-2.1885,-2.3545,-2.4738,-2.5615,-2.6543,-2.8574,-3.1279,-3.0478,-3.0078,-2.9824,-2.79,-2.7041,-2.6865,-2.6572,-2.6416,-2.6465,-2.7334,-2.6836,-2.5723,-2.5723,-2.5138,-2.4307,-2.3462,-2.2004,-2.0703,-2.1103,-2.2311,-2.359,0.0,0.0,0.0,-2.9465,-3.0532,-3.1474,-3.2039,-3.4713,-3.6784,-3.5671,-3.8091,-4.0275,-3.9747,-3.9672,-3.9697,-3.9697,-3.9697,-3.9697,-3.9697,-3.9697,-3.9496,-3.9007,-3.8379,-3.7814,-3.7262,-3.7811,-3.8662,-3.9812,-3.9698,-4.0095,-4.1331,-4.0061,-3.8242,-3.5985,-3.2864,-3.118,-3.118,-3.0241,-2.9792,-2.9792,-2.9792,-3.0068,-3.0595,-3.062,-3.121,-3.219,-3.2227,-3.2554,-3.3124,-3.3124,-3.3395,-3.3822,-3.3307,-3.3771,-3.4663,-3.4135,-3.4638,-3.552,0.0,0.0,0.0,0.0,0.0,-2.3091,-2.3091,-2.3091,-2.3091,0.0,0.0,0.0,-2.3091,-2.3091,-2.3091,-2.3091,-2.3091,-2.3042,-2.2925,-2.3033,-2.3042,-2.2925,-2.3033,-2.2896,-2.2519,-2.2217,-2.1787,-2.119,-2.0908,-2.081,-2.0987,-2.1748,-2.2412,-2.3008,-2.4482,-2.5771,-2.6943,-2.8262,-2.7373,-2.5313,-2.8545,-2.7568,-2.4456,-2.7197,-2.706,-2.5586,-2.6777,-2.6963,-2.666,-2.666,-2.6035,-2.5011,-2.3262,-2.1934,-2.1184,-2.2025,-2.2853,-2.3737,-2.4914,0.0,0.0,0.0,0.0,0.0,-3.0834,-3.3006,-3.4726,-3.4424,-3.6671,-3.8655,-3.8504,-3.9145,-3.9697,-3.9697,-3.9697,-3.9697,-3.9697,-3.9697,-3.9634,-3.9484,-3.8969,-3.8404,-3.7839,-3.9117,-3.9943,-3.9883,-3.9039,-3.9379,-4.1287,-3.8576,-3.6108,-3.4329,-3.228,-3.0871,-3.0177,-2.9934,-2.9792,-2.9792,-2.9792,-2.988,-3.0043,-3.0821,-3.1336,-3.1662,-3.2478,-3.293,-3.3124,-3.3124,-3.3212,-3.3332,-3.3583,-3.411,-3.4705,-3.4956,-3.5529,-3.6132,0.0,0.0,0.0,0.0,0.0,-2.3091,-2.3091,-2.3091,-2.3091,0.0,0.0,0.0,-2.3091,-2.3091,-2.3091,-2.3091,-2.3091,-2.3091,-2.3091,-2.3091,-2.3091,-2.3091,-2.3091,-2.2984,-2.2783,-2.2363,-2.1934,-2.1504,-2.1064,-2.0752,-2.0615,-2.083,-2.1094,-2.1377,-2.2373,-2.3057,-2.3584,-2.5391,-2.5918,-2.5703,-2.8076,-2.8057,-2.6795,-2.873,-2.8516,-2.7383,-2.8691,-2.8935,-2.8633,-2.8633,-2.7578,-2.6084,-2.5058,-2.3464,-2.2302,-2.3943,-2.4244,-2.4209,-2.5104,-2.5931,-2.6763,-2.7833,0.0,0.0,-3.0018,-3.2152,-3.396,-3.4198,-3.6445,-3.8228,-3.7751,-3.8203,-3.8642,-3.8642,-3.8642,-3.8894,-3.9597,-3.9697,-3.9697,-3.9697,-3.9207,-3.888,-3.8764,-3.9945,-4.0683,-4.0617,-4.0148,-4.0026,-4.03,-3.7203,-3.4783,-3.3383,-3.1591,-3.0343,-2.9792,-2.9792,-2.9792,-2.9792,-2.9792,-3.003,-3.0482,-3.1097,-3.165,-3.2127,-3.2792,-3.3124,-3.3124,-3.3124,-3.3206,-3.3458,-3.3771,-3.4374,-3.5031,-3.5119,-3.5692,-3.6367,0.0,0.0,-2.3091,-2.3091,-2.3091,-2.3091,-2.3091,-2.3091,-2.3091,0.0,-2.3091,-2.3091,-2.3091,-2.3091,-2.3091,-2.3091,-2.3091,-2.3091,-2.3091,-2.3091,-2.3091,-2.3091,-2.3091,-2.3071,-2.3023,-2.2662,-2.2305,0.0,0.0,0.0,0.0,-2.0674,-2.0674,-2.0674,-2.0625,-2.081,-2.1268,-2.2461,-2.5039,-2.8242,-2.707,-2.8379,-3.0967,-3.0469,-3.0098,-3.0039,-3.1504,-3.1445,-3.0674,-3.0732,-2.9251,-2.741,-2.7544,-2.5634,-2.3737,-2.5945,-2.5666,-2.4761,-2.5145,-2.5853,-2.6738,-2.767,-2.8009,0.0,-2.9377,-3.1599,-3.3633,-3.4311,-3.6408,-3.7877,-3.7061,-3.691,-3.691,-3.691,-3.691,-3.75,-3.9182,-3.9572,-3.9622,-3.9433,-3.9145,-3.9193,-3.9764,-4.0426,-4.0972,-4.138,-4.1712,-4.0984,-3.8914,-3.6069,-3.4058,-3.3027,-3.0983,-2.9854,-2.9792,-2.9792,-2.9792,-2.9792,-2.9792,-3.0319,-3.1298,-3.1361,-3.1976,-3.298,-3.3056,-3.3124,-3.3124,-3.3124,-3.337,-3.3822,-3.3872,-3.45,-3.5257,-3.4831,-3.5378,-3.6194,0.0,-2.3091,-2.3091,-2.3091,-2.3091,-2.3091,-2.3091,-2.3091,-2.3091,-2.3091,-2.3091,-2.3091,-2.3091,-2.3091,-2.3091,-2.3091,-2.3091,-2.3091,-2.3091,-2.3091,-2.3091,-2.3091,-2.3091,-2.2935,-2.2604,-2.2549,-2.2305,-2.1885,0.0,0.0,0.0,-2.1064,-2.1064,-2.1094,-2.0723,-2.081,-2.121,-2.1463,-2.2842,-2.4971,-2.707,-2.791,-2.8105,-3.0019,-2.9453,-2.7939,-3.0293,-3.0351,-2.9355,-2.9707,-2.9768,-2.9198,-2.6488,-2.5253,-2.4872,-2.5241,-2.4579,-2.4221,-2.6308,-2.6686,-2.6549,-2.6763,-2.7444,0.0,-2.8386,-2.9553,-3.0997,-3.2416,-3.3131,-3.3859,-3.5002,-3.5203,-3.5203,-3.5203,-3.5203,-3.578,-3.7437,-3.8843,-3.9195,-3.7839,-3.8781,-3.9613,-3.9803,-4.0746,-4.1031,-4.0272,-3.9369,-3.8823,-3.8808,-3.5709,-3.3661,-3.304,-3.1354,-3.0244,-2.9792,-2.9792,-2.9792,-2.9792,-2.9792,-3.0131,-3.0783,-3.1198,-3.175,-3.2403,-3.288,-3.3124,-3.3124,-3.3124,-3.3144,-3.3282,-3.3721,-3.4035,-3.4261,-3.46,-3.5094,-3.5646,-2.314,-2.3276,-2.3398,-2.313,-2.3091,-2.3091,-2.3091,-2.3091,-2.3091,-2.3091,-2.3091,-2.3091,-2.3091,-2.3091,-2.3091,-2.3091,-2.3091,-2.3091,-2.3091,-2.3091,-2.3091,-2.3091,-2.3091,-2.3003,-2.2789,-2.2617,-2.2412,-2.2197,0.0,0.0,0.0,0.0,-2.1405,-2.119,-2.1221,-2.1103,-2.0918,-2.1103,-2.2227,-2.3994,-2.6387,-2.7588,-2.8184,-3.0146,-3.0078,-2.9121,-3.042,-3.0469,-2.9863,-2.9648,-3.0433,-3.1031,-2.8552,-2.7571,-2.7317,-2.7357,-2.6023,-2.485,-2.6782,-2.6914,-2.6562,-2.6839,-2.7494,0.0,0.0,-2.9591,-3.0896,-3.1989,-3.2654,-3.3144,-3.342,-3.347,-3.347,-3.347,-3.347,-3.3759,-3.4587,-3.686,-3.8442,-3.8442,-3.9182,-3.974,-3.9803,-4.0321,-4.0458,-3.9952,-3.8766,-3.7938,-3.7661,-3.5184,-3.3302,-3.2222,-3.1151,-3.0357,-2.9804,-2.9792,-2.9792,-2.9792,-2.9792,-3.008,-3.0633,-3.1148,-3.1687,-3.224,-3.283,-3.3124,-3.3124,-3.3124,-3.3124,-3.3131,-3.3684,-3.3897,-3.3935,-3.4211,-3.4793,-3.5458,-2.3315,-2.3545,-2.3652,-2.3169,-2.3091,-2.3091,-2.3091,-2.3091,-2.3091,-2.3091,-2.3091,-2.3159,-2.3325,-2.312,-2.3071,-2.3325,-2.3266,-2.3188,-2.3101,-2.3247,-2.3227,-2.2984,-2.3052,-2.3052,-2.2974,-2.2721,-2.2637,-2.2637,0.0,0.0,0.0,0.0,-2.1816,-2.1453,-2.168,-2.1592,-2.1368,-2.1611,-2.2725,-2.4443,-2.6182,-2.7549,-2.8721,-3.0293,-3.0732,-3.0537,-3.0703,-3.081,-3.0732,-2.9678,-3.062,-3.1929,-3.0673,-2.9536,-2.8856,-2.9729,-2.7759,-2.5656,-2.7189,-2.7241,-2.6927,-2.7331,-2.7858,-2.8386,0.0,0.0,0.0,-3.165,-3.2466,-3.283,-3.1913,-3.175,-3.175,-3.175,-3.175,-3.1851,-3.2177,-3.4525,-3.6772,-3.8241,-3.8417,-3.857,-3.8937,-3.9217,-3.95,-3.9853,-3.8611,-3.7406,-3.6565,-3.471,-3.3013,-3.1603,-3.1035,-3.0507,-2.9955,-2.9842,-2.9792,-2.9792,-2.9892,-3.0231,-3.0783,-3.1311,-3.1851,-3.2403,-3.2867,-3.3124,-3.3124,-3.3124,-3.3124,-3.3162,-3.3571,-3.3746,-3.3759,-3.3859,-3.4525,-3.5295,-2.3877,-2.375,-2.3652,-2.3169,-2.3091,-2.3091,-2.3091,-2.3091,-2.3091,-2.3091,-2.3091,-2.3383,-2.4189,-2.3262,-2.3037,-2.417,-2.3935,-2.3555,-2.312,-2.3803,-2.376,-2.2637,-2.2896,-2.2916,-2.2598,-2.2857,-2.3023,-2.3023,0.0,0.0,0.0,0.0,-2.2412,-2.2334,-2.158,-2.2262,-2.3955,-2.3633,-2.4502,-2.624,-2.7949,-2.8066,-2.75,-2.9961,-3.0166,-2.9248,-3.0,-3.0537,-3.0635,-2.8994,-2.9389,-3.0432,-2.9584,-2.7882,-2.679,-2.9679,-2.7929,-2.5579,-2.805,-2.8335,-2.7934,-2.7996,-2.8423,-2.8813,-2.8875,0.0,-2.9993,-3.0055,0.0,-3.0218,-3.0093,0.0,0.0,-3.0068,-3.0068,-3.057,-3.2014,-3.2541,-3.3043,-3.3746,-3.3834,-3.4417,-3.594,-3.7054,-3.8283,-3.9788,-3.7912,-3.6638,-3.6509,-3.438,-3.2832,-3.2139,-3.1587,-3.1047,-3.052,-3.0043,-2.9792,-2.9804,-3.0281,-3.0796,-3.1323,-3.1863,-3.2428,-3.298,-3.3056,-3.3124,-3.3124,-3.3124,-3.3124,-3.3124,-3.3187,-3.3212,-3.3232,-3.3721,-3.4286,-3.4831,-2.3955,-2.3984,-2.3935,-2.3208,-2.3091,-2.3091,-2.3091,-2.3091,-2.3091,-2.3091,-2.3091,-2.3564,-2.4668,-2.4316,-2.4512,-2.581,-2.5762,-2.5586,-2.54,-2.5019,-2.4551,-2.4014,-2.3447,-2.3013,-2.2838,-2.3003,-2.3091,-2.3091,-2.3091,0.0,0.0,0.0,-2.2701,-2.251,-2.235,-2.2935,-2.4062,-2.4121,-2.5019,-2.6426,-2.6885,-2.7051,-2.7275,-2.96,-2.999,-2.9248,-2.8867,-2.9326,-2.9785,-2.7559,-2.9694,-3.2721,-2.9405,-2.9316,-3.0639,-3.1324,-2.9076,-2.6917,-2.9613,-2.9967,-2.9628,-2.9942,-3.0181,-3.0432,-3.0758,-3.0294,-2.9792,-2.9792,0.0,0.0,0.0,0.0,0.0,0.0,-2.9792,-3.003,-3.0708,-3.052,-3.1235,-3.3734,-3.3746,-3.3978,-3.4981,-3.4363,-3.4605,-3.6293,-3.5245,-3.438,-3.4045,-3.3736,-3.3144,-3.224,-3.1989,-3.1461,-3.062,-3.0382,-3.0105,-2.9804,-3.0357,-3.0733,-3.0972,-3.1825,-3.234,-3.2591,-3.293,-3.3124,-3.3124,-3.3124,-3.3124,-3.3124,-3.3124,-3.3124,-3.3144,-3.3696,-3.4248,-3.4756,-2.4287,-2.4385,-2.4326,-2.3422,-2.3276,-2.3227,-2.311,-2.3393,-2.3662,-2.3662,-2.3662,-2.4121,-2.5303,-2.4893,-2.5166,-2.6709,-2.6846,-2.6846,-2.6846,-2.5957,-2.537,-2.5125,-2.3828,-2.3149,-2.3276,-2.3159,-2.3091,-2.3091,-2.3091,0.0,0.0,0.0,0.0,-2.2652,-2.2838,-2.3398,-2.418,-2.4727,-2.5781,-2.709,-2.7129,-2.7373,-2.7861,-2.918,-2.9629,-2.9489,-2.8389,-2.8682,-2.9264,-2.726,-2.9865,-3.3396,-3.0354,-3.0968,-3.2817,-3.3061,-3.0879,-2.8963,-3.1398,-3.18,-3.1537,-3.1599,-3.1612,-3.1599,-3.1562,-3.0633,-2.9792,-2.9792,-2.9792,0.0,0.0,0.0,-2.9792,-2.9792,0.0,-2.9792,-2.9792,-2.9428,-3.0269,-3.3201,-3.366,-3.3631,-3.3357,-3.2762,-3.2538,-3.296,-3.3221,-3.2958,-3.2014,-3.3056,-3.3294,-3.2466,-3.2303,-3.1838,-3.106,-3.0909,-3.062,-3.0244,-3.0783,-3.106,-3.1085,-3.2026,-3.2453,-3.2466,-3.2893,-3.3124,-3.3124,-3.3124,-3.3124,-3.3124,-3.3124,-3.3124,-3.3156,-3.3872,-3.4474,-3.4981,-2.5117,-2.5086,-2.4822,-2.3916,-2.3769,-2.3623,-2.3159,-2.4199,-2.5057,-2.5057,-2.5057,-2.5352,-2.625,-2.4463,-2.4017,-2.6221,-2.6406,-2.6406,-2.6406,-2.6367,-2.5967,-2.5155,-2.3828,-2.3286,-2.376,-2.3315,-2.3091,-2.3091,-2.3091,0.0,0.0,0.0,0.0,-2.3052,-2.2705,-2.3457,-2.5135,-2.5957,-2.7295,-2.8945,-3.0215,-3.0225,-2.9404,-2.8643,-2.8857,-2.9567,-2.9043,-2.918,-2.9518,-2.9033,-2.9329,-3.0327,-3.2895,-3.1961,-3.0674,-3.4302,-3.3428,-3.1645,-3.3383,-3.3809,-3.3533,-3.2453,-3.219,-3.1775,-3.0231,-2.9829,-2.9792,-2.9792,-2.9792,-2.9792,-2.9792,-2.9792,-2.9792,-2.9792,-2.9792,0.0,0.0,-2.9779,-3.0005,-3.067,-3.2214,-3.2371,-3.016,-3.2887,-3.3634,-3.0905,-3.2721,-3.322,-3.1531,-3.2533,-3.3124,-3.3056,-3.2503,-3.219,-3.2164,-3.1637,-3.1361,-3.1348,-3.1901,-3.2164,-3.2177,-3.278,-3.3056,-3.3056,-3.3111,-3.3124,-3.3124,-3.3124,-3.3124,-3.3124,-3.3124,-3.3124,-3.3206,-3.4299,-3.4994,-3.5545,-2.5654,-2.5508,-2.5234,-2.4355,-2.3975,-2.3643,-2.3159,-2.376,-2.447,-2.5037,-2.5322,-2.6162,-2.7881,-2.7402,-2.7373,-2.8408,-2.9033,-2.8994,-2.8115,-2.8057,-2.7685,-2.6877,-2.6094,-2.5234,-2.4228,-2.4346,-2.3994,-2.3091,-2.3091,-2.3091,0.0,0.0,0.0,-2.3091,-2.2945,-2.3564,-2.4736,-2.6182,-2.7305,-2.8125,-2.8574,-2.8408,-2.7939,-2.8496,-2.8711,-2.8701,-2.8555,-2.9166,-2.9927,-2.9262,-3.0932,-3.335,-3.3375,-3.346,-3.3986,-3.5996,-3.4902,-3.3429,-3.5111,-3.5818,-3.5981,-3.5604,-3.4675,-3.3734,-3.3181,-3.1361,-2.9792,-2.9792,-2.9792,-2.9792,-2.9792,-2.9792,-2.9792,-2.9792,-2.9792,-2.9792,0.0,-2.9465,-2.9289,-2.9439,-2.9694,-2.9808,-2.9793,-2.9527,-2.922,-2.8988,-2.935,-2.9132,-2.8196,-3.0557,-3.18,-3.1461,-3.2315,-3.2604,-3.2215,-3.2026,-3.175,-3.1399,-3.1951,-3.2215,-3.2227,-3.2805,-3.3124,-3.3124,-3.3124,-3.3124,-3.3124,-3.3124,-3.3124,-3.3124,-3.3124,-3.3307,-3.3709,-3.4449,-3.4793,-3.5082,-2.5859,-2.5693,-2.546,-2.4775,-2.417,-2.3848,-2.3988,-2.4297,-2.4951,-2.6269,-2.6435,-2.706,-2.874,-2.8652,-2.8711,-2.9287,-2.9726,-2.9795,-2.9404,-2.8525,-2.8047,-2.8105,-2.6963,-2.6016,-2.5361,-2.501,-2.4658,-2.4251,-2.3471,-2.3325,0.0,0.0,0.0,-2.3091,-2.3091,-2.3315,-2.3877,-2.5928,-2.6865,-2.7012,-2.7314,-2.7539,-2.7715,-2.7939,-2.8223,-2.8496,-2.834,-2.9154,-3.0275,-3.0181,-3.2277,-3.483,-3.4398,-3.4994,-3.6019,-3.6923,-3.6182,-3.5341,-3.6634,-3.7224,0.0,-3.6747,-3.5805,-3.4868,-3.4512,-3.278,-3.1311,-3.1499,-3.1549,-3.1298,-3.0507,-3.052,-3.0394,-2.9616,-2.9654,-2.9792,0.0,-2.9126,-2.8787,-2.9189,-2.944,-2.9335,-2.8698,-2.8418,-2.7812,-2.6725,-2.7042,-2.6989,-2.6223,-2.9315,-3.0959,-3.062,-3.2215,-3.2893,-3.2516,-3.2516,-3.234,-3.2001,-3.2353,-3.2516,-3.2528,-3.2905,-3.3124,-3.3124,-3.3124,-3.3124,-3.3124,-3.3124,-3.3124,-3.3124,-3.3124,-3.342,-3.396,-3.4512,-3.4977,-3.5403,-2.5859,-2.5693,-2.5605,-2.5223,-2.4443,-2.4326,-2.5499,-2.5742,-2.6512,-2.8594,-2.8223,-2.8066,-2.8867,-2.8281,-2.8115,-2.8828,-2.8564,-2.8848,-2.999,-2.7861,-2.7256,-2.8848,-2.6611,-2.585,-2.6992,-2.543,-2.5195,-2.6387,-2.4268,-2.3867,0.0,0.0,0.0,0.0,-2.3091,-2.2847,-2.2656,-2.5369,-2.6251,-2.5908,-2.6592,-2.7666,-2.8652,-2.7012,-2.7441,-2.8867,-2.8437,-2.9207,-3.0566,-3.1876,-3.3304,-3.4727,-3.6013,-3.6405,-3.6518,-3.6985,-3.7161,-3.7299,-3.7826,-3.799,-3.7638,-3.6047,-3.5583,-3.5232,-3.4261,-3.396,-3.4048,-3.4575,-3.4675,-3.4048,-3.1938,-3.1888,-3.1499,-2.9389,-2.949,-2.9792,-2.9792,-2.8825,-2.8499,-2.9578,-3.1045,-3.0574,-2.6955,-2.9399,-2.9232,-2.4438,-2.5937,-2.664,-2.5649,-2.8687,-3.0507,-3.062,-3.2114,-3.3011,-3.3124,-3.3061,-3.3061,-3.3124,-3.3124,-3.3124,-3.3124,-3.3124,-3.3124,-3.3124,-3.3124,-3.3124,-3.3124,-3.3124,-3.3124,-3.3124,-3.3106,-3.347,-3.4048,-3.4562,-3.5403,-3.6329,-2.5859,-2.5693,-2.5654,-2.5538,-2.5654,-2.5732,-2.5684,-2.6553,-2.7363,-2.792,-2.8623,-2.916,-2.9385,-2.9795,-2.9629,-2.8555,-2.8935,-2.8975,-2.8359,-2.8594,-2.8799,-2.8916,-2.8896,-2.8301,-2.7041,-2.7207,-2.7002,-2.6387,-2.5166,-2.4736,-2.5086,0.0,0.0,0.0,-2.3091,-2.2691,-2.232,-2.6237,-2.7979,-2.7973,-2.5882,-2.6055,-2.7422,-2.668,-2.7441,-2.8867,-2.8437,-2.9817,-3.1825,-3.218,-3.3897,-3.5966,-3.631,-3.6405,-3.643,-3.6581,-3.6908,-3.7211,-3.7362,-3.7701,-3.8002,-3.8015,-3.6772,-3.5533,0.0,-3.4776,-3.3935,-3.4085,-3.411,-3.406,-3.3897,-3.2616,-3.1549,-3.1399,-3.0482,-2.9792,-2.9792,-2.8825,-2.821,-2.8499,-2.7817,-2.757,-2.8234,-2.7563,-2.6566,-2.5292,-2.4569,-2.4575,-2.5548,-2.7205,-2.89,-3.057,-3.0633,-3.1424,-3.3056,-3.224,-3.224,-3.3124,-3.3124,-3.3124,-3.3124,-3.3124,-3.3124,-3.3124,-3.3124,-3.3124,-3.3124,-3.3124,-3.3124,-3.3162,-3.3533,-3.4274,-3.5094,-3.5232,-3.5253,-3.5265,-2.5859,-2.5693,-2.5693,-2.5693,-2.6562,-2.7139,-2.6894,-2.7314,-2.8061,-2.901,-2.9365,-2.9773,-3.0107,-3.0596,-3.0498,-2.9512,-2.917,-2.9033,-2.9072,-2.8569,-2.8486,-2.918,-2.9131,-2.8437,-2.7041,-2.749,-2.7568,-2.7217,-2.5586,-2.5166,-2.5879,0.0,0.0,0.0,-2.3091,-2.273,-2.2399,-2.6241,-2.83,-2.8887,-2.7579,-2.7917,0.0,-2.8449,-2.9078,-3.0358,-3.0151,-3.103,-3.2381,-3.3005,-3.4654,-3.6405,-3.6405,-3.6405,-3.6455,-3.6694,-3.6935,-3.7186,-3.7186,-3.7412,-3.7663,-3.78,-3.701,-3.6345,-3.6646,-3.6194,-3.5692,-3.5692,-3.5692,-3.5491,-3.4839,-3.3495,-3.219,-3.1298,-3.0382,-2.9704,-2.9453,-2.9289,-2.8938,-2.8197,-2.7708,-2.7733,-2.8499,-2.6339,-2.4996,-2.5234,-2.4362,-2.4136,-2.4858,-2.7105,-2.8511,-2.8787,-3.0131,-3.111,-3.1637,-3.1248,-3.1486,-3.234,-3.234,-3.2646,-3.3124,-3.3124,-3.3124,-3.3124,-3.3124,-3.3124,-3.3124,-3.3124,-3.3124,-3.3131,-3.3684,-3.4424,-3.5144,-3.5144,-3.5245,-3.5584,-2.5781,-2.5645,-2.5703,-2.5762,-2.71,-2.8203,-2.8428,-2.8252,-2.8775,-3.0488,-3.0146,-3.0047,-3.0644,-3.082,-3.084,-3.0732,-2.9336,-2.9101,-3.0625,-2.8203,-2.7578,-2.9548,-2.8457,-2.7627,-2.7187,-2.7236,-2.7656,-2.8457,-2.5918,-2.5478,0.0,0.0,0.0,-2.3091,-2.2984,-2.3006,-2.3256,-2.5719,-2.7598,-2.9014,-3.0008,-3.0945,-3.1728,-3.0914,-3.1356,-3.2331,-3.2493,-3.2593,-3.2744,-3.397,-3.5271,-3.6405,-3.6405,-3.6405,-3.6505,-3.6935,-3.7073,-3.7073,-3.7073,-3.7073,-3.6973,-3.6619,-3.682,-3.7098,-3.7161,-3.755,-3.7902,-3.7902,-3.7902,-3.7337,-3.5491,-3.4412,-3.2955,-3.0419,-2.9829,-2.9453,-2.8762,-2.9804,-2.9942,-2.8109,-2.8825,0.0,-2.7996,-2.5661,-2.4443,-2.4996,-2.4863,-2.4669,-2.433,-2.7457,-2.8486,-2.6876,-2.9892,-3.1097,-3.0118,-3.0382,-3.0922,-3.1712,-3.1499,-3.1976,-3.3124,-3.3124,-3.3124,-3.3124,-3.3124,-3.3124,-3.3124,-3.3124,-3.3162,-3.3232,-3.3709,-3.4236,-3.4668,-3.4638,-3.5357,-3.6476,-2.543,-2.5478,-2.5801,-2.6211,-2.6807,-2.7715,-2.9131,-2.9902,-3.0205,-2.9844,-3.0303,-3.0439,-2.9863,-3.0459,-3.0596,-2.9863,-2.9521,-2.9473,-2.9785,-2.8975,-2.8799,-2.9597,-2.9014,-2.8506,-2.8076,-2.8408,-2.8838,-2.9346,-2.7129,-2.6377,-2.6953,-2.4004,-2.2769,-2.3062,-2.2412,-2.3657,-2.6219,-2.5359,-2.6335,-2.8619,-2.9875,-2.9855,-2.9299,-3.1246,-3.2107,-3.2431,-3.3613,-3.403,-3.408,-3.4337,-3.5271,-3.6405,-3.6405,-3.6405,-3.643,-3.6518,-3.6556,-3.6556,-3.6556,-3.6556,-3.6631,-3.6948,-3.682,-3.6669,-3.7073,-3.7262,-3.7324,-3.7324,-3.7324,-3.7349,-3.7412,-3.5127,-3.2754,-3.1336,-2.9967,-2.8725,-2.7708,-2.9327,-2.9654,-2.709,-2.7366,-2.7505,-2.6851,-2.5875,-2.5561,-2.6172,-2.5335,-2.5172,-2.6021,-2.6226,-2.6992,0.0,-2.8273,-2.9315,0.0,0.0,-3.1122,-3.3445,-3.2051,-3.1976,-3.3124,-3.3124,-3.3124,-3.3124,-3.3124,-3.3124,-3.3124,-3.3124,-3.3345,-3.3771,-3.3859,-3.4236,-3.4663,-3.4211,-3.499,-3.641,-2.583,-2.5371,-2.5185,-2.5625,-2.6611,-2.7705,-2.875,-3.0039,-3.0732,-3.0312,-3.0625,-3.0732,-3.0303,-3.0635,-3.0723,-3.0293,-2.9834,-2.9658,-2.9883,-2.9072,-2.8789,-2.9219,-2.8818,-2.8291,-2.7646,-2.8262,-2.8691,-2.8906,-2.6992,-2.6269,-2.6631,-2.3818,-2.251,-2.25,-2.2764,-2.3825,-2.5426,-2.6396,-2.7577,-2.8953,-3.1462,-3.2076,-3.172,-3.3664,-3.4447,-3.4496,-3.521,-3.5415,-3.5415,-3.5415,-3.587,-3.6405,-3.6405,-3.6405,-3.6405,-3.6405,-3.6405,-3.6405,-3.6405,-3.6405,-3.6468,-3.6732,-3.682,-3.6832,-3.6807,-3.6973,-3.7098,-3.6857,-3.6807,-3.6659,-3.6358,-3.524,-3.3897,-3.2491,-3.111,-2.9829,-2.8737,-2.9515,-2.9465,-2.7544,-2.8323,-2.8561,-2.7419,-2.7067,-2.654,-2.5674,-2.5372,-2.5209,-2.5184,-2.654,-2.7557,0.0,0.0,0.0,-3.0947,0.0,-3.1022,-3.2591,-3.1775,-3.1976,-3.3124,-3.3124,-3.3124,-3.3124,-3.3124,-3.3124,-3.3124,-3.3124,-3.3407,-3.3872,-3.3583,-3.3985,-3.4658,-3.4387,-3.5184,-3.6465,-2.6455,-2.5752,-2.5273,-2.5791,-2.6943,-2.8037,-2.874,-2.9844,-3.0674,-3.0869,-3.0889,-3.0889,-3.0889,-3.0889,-3.082,-3.0625,-3.0146,-2.9834,-2.9795,-2.9023,-2.8633,-2.8779,-2.8467,-2.7978,-2.7295,-2.7949,-2.834,-2.8428,-2.6894,-2.623,-2.6338,-2.4004,-2.2598,-2.2122,-2.3747,-2.4374,0.0,0.0,-2.8875,-2.9159,-3.2598,-3.397,-3.4117,-3.5463,-3.6156,-3.6405,-3.6405,-3.6405,-3.6405,-3.6405,-3.6405,-3.6405,-3.6405,-3.6405,-3.6405,-3.6405,-3.6405,-3.6405,-3.6405,-3.6405,-3.6405,-3.6405,-3.6732,-3.6945,-3.6505,-3.6744,-3.6885,-3.6505,-3.6405,-3.6179,-3.5378,-3.5169,0.0,-3.3307,-3.1938,-3.0595,-2.9264,-2.9591,-2.9465,-2.8097,-2.9415,-2.9729,-2.7921,-2.7758,-2.6892,-2.4808,-2.5134,-2.5172,-2.4556,-2.6766,-2.7821,0.0,0.0,-3.0269,-3.0306,0.0,-3.1122,-3.2089,-3.1612,-3.1976,-3.3124,-3.3124,-3.3124,-3.3124,-3.3124,-3.3124,-3.3124,-3.3124,-3.3332,-3.3684,-3.3244,-3.377,-3.4736,-3.4858,-3.5793,-3.7064,-2.6943,-2.7178,-2.7617,-2.8418,-2.8379,-2.8779,-3.04,-3.0107,-2.998,-3.0791,-3.0889,-3.0889,-3.0889,-3.0889,-3.0566,-2.9766,-3.0351,-3.0107,-2.8574,-2.9092,-2.9121,-2.8389,-2.831,-2.8252,-2.8174,-2.8252,-2.8476,-2.8857,-2.7939,-2.7109,-2.6357,-2.4912,-2.3603,-2.2572,0.0,0.0,0.0,-2.76,-2.8429,-2.8579,-3.1396,-3.2493,-3.2644,-3.4068,-3.5319,-3.6405,-3.6405,-3.6405,-3.6405,-3.6405,-3.6405,-3.6405,-3.6405,-3.6405,-3.6405,-3.6405,-3.6405,-3.6405,-3.6405,-3.6405,-3.6405,-3.6405,-3.6455,-3.6468,-3.6417,-3.6455,-3.6468,-3.6417,-3.6405,-3.6531,-3.6885,-3.5366,-3.3847,-3.3181,-3.1311,-2.9202,-2.7102,-2.895,-2.9754,-2.762,-2.885,-2.9013,-2.6864,-2.665,-2.5933,-2.4205,-2.4582,-2.5285,-2.621,-2.5573,-2.5837,-2.7278,-2.8448,-2.9979,-3.1976,-3.1072,-3.1888,-3.4387,-3.2353,-3.1976,-3.3124,-3.3124,-3.3124,-3.3124,-3.3124,-3.3124,-3.3124,-3.3124,-3.3106,-3.3156,-3.3136,-3.3734,-3.4763,-3.5297,-3.6811,-3.8689,-2.8105,-2.7685,-2.7471,-2.8066,-2.8447,-2.8994,-2.9951,-3.0244,-3.0488,-3.084,-3.0889,-3.0889,-3.0889,-3.0889,-3.0752,-3.0391,-3.0684,-3.0371,-2.9141,-2.943,-2.9189,-2.833,-2.8291,-2.8291,-2.8291,-2.8291,-2.8496,-2.8916,-2.7295,-2.6338,-2.5967,-2.4339,0.0,0.0,0.0,-2.6475,-2.6241,-2.7712,-2.8326,-2.8548,-3.1224,-3.228,-3.2532,-3.4763,-3.5918,-3.6405,-3.6405,-3.6405,-3.6405,-3.6405,-3.6405,-3.6405,-3.6405,-3.6405,-3.6405,-3.6405,-3.6405,-3.6405,-3.6405,-3.6405,-3.6405,-3.6405,-3.6405,-3.6405,-3.6405,-3.6405,-3.6405,-3.6405,-3.6405,-3.648,-3.6694,-3.6245,-3.5366,-3.3822,-3.3106,-3.1964,-2.9729,-3.0105,-3.052,-3.0269,-2.9377,-2.8825,-2.895,-2.748,-2.6361,-2.6,-2.6176,-2.6352,-2.6487,-2.6979,-2.8047,-2.9691,0.0,-3.0821,-3.3696,-3.1964,-3.2139,-3.4211,-3.2993,-3.2641,-3.3124,-3.3124,-3.3124,-3.3124,-3.3124,-3.3124,-3.3124,-3.3124,-3.3269,-3.3533,-3.3206,-3.396,-3.5288,-3.6209,-3.7791,-3.9584,-2.9209,-2.8574,-2.8096,-2.8535,-2.9101,-2.9512,-2.956,-3.0322,-3.0801,-3.0537,-3.0732,-3.0889,-3.0889,-3.0889,-3.0732,-3.0342,-3.0664,-3.0303,-2.8906,-2.9297,-2.9186,-2.8154,-2.8223,-2.8291,-2.8291,-2.8291,-2.8379,-2.8555,-2.7168,-2.6181,-2.5664,0.0,0.0,0.0,-2.6596,-2.726,-2.6826,-2.7861,-2.8548,-2.9049,-3.0979,-3.2191,-3.3155,-3.5054,-3.6061,-3.6405,-3.6405,-3.6405,-3.6405,-3.6405,-3.6405,-3.6405,-3.6405,-3.6405,-3.6405,-3.6405,-3.6405,-3.6405,-3.6405,-3.6405,-3.6405,-3.6405,-3.6405,-3.6405,-3.6405,-3.6405,-3.6405,-3.6405,-3.6405,-3.6405,-3.6405,-3.6732,-3.632,-3.4437,-3.4336,-3.3809,-3.1901,-3.1173,-3.1072,-3.1675,-2.9741,-2.875,-2.9779,-2.8097,-2.7002,-2.7065,-2.7494,-2.7381,-2.6549,-2.757,0.0,0.0,0.0,0.0,-3.3947,-3.2252,-3.2403,-3.4374,-3.3822,-3.347,-3.3319,-3.3156,-3.3124,-3.3124,-3.3124,-3.3124,-3.3124,-3.3124,-3.3307,-3.3677,-3.3801,-3.4611,-3.5922,-3.7645,-3.9113,-4.049,-3.0098,-3.0166,-3.0303,-3.0771,-3.0859,-3.0576,-2.9707,-3.0322,-3.0576,-2.9707,-3.0351,-3.0889,-3.0889,-3.0889,-3.0361,-2.9062,-3.0137,-2.9795,-2.7217,-2.8633,-2.9004,-2.7777,-2.8066,-2.8291,-2.8291,-2.8291,-2.8096,-2.7738,-2.8066,-2.7402,-2.5742,0.0,-2.7383,-2.5791,-2.888,-2.93,-2.7728,-2.8105,-2.9049,-3.0266,-3.0317,-3.1938,-3.4385,-3.4434,-3.5223,-3.6405,-3.6405,-3.6405,-3.6405,-3.6405,-3.6405,-3.6405,-3.6405,-3.6405,-3.6405,-3.6405,-3.6405,-3.6405,-3.6405,-3.6405,-3.6405,-3.6405,-3.6405,-3.6405,-3.6405,-3.6405,-3.6405,-3.6405,-3.6405,-3.6405,-3.6405,-3.6417,-3.6053,-3.4901,0.0,-3.3508,-3.2365,-3.1725,-3.1198,-3.0696,-2.9577,-2.8675,-2.8185,-2.8109,-2.7632,-2.6587,-2.7984,-2.8185,-2.6587,0.0,0.0,-2.7318,-2.7846,0.0,-3.2215,-3.1675,-3.278,-3.547,-3.4919,-3.4412,-3.3872,-3.3319,-3.3124,-3.3124,-3.3124,-3.3124,-3.3124,-3.3124,-3.3124,-3.326,-3.4946,-3.5803,-3.6552,-3.9636,-4.1033,-4.1564,-2.8984,-2.9853,-3.0527,-3.0068,-3.0488,-3.0791,-3.0518,-3.0703,-3.0791,-3.0508,-3.0723,-3.0889,-3.0889,-3.0889,-3.0596,-2.9853,-2.9639,-2.9199,-2.8369,-2.8291,-2.8276,-2.8096,-2.7656,-2.7422,-2.7422,-2.7422,-2.7353,-2.7217,-2.7353,0.0,0.0,-2.7043,-2.729,-2.7141,-2.8373,-2.8628,-2.8105,-2.8232,-2.8548,-2.9102,-3.0927,-3.2191,-3.3143,-3.5054,-3.6013,-3.6405,-3.6405,-3.6405,-3.6405,-3.6405,-3.6405,-3.6405,-3.6405,-3.6405,-3.6405,-3.6405,-3.6405,-3.6405,-3.6405,-3.6405,-3.6405,-3.6405,-3.6405,-3.6405,-3.6405,-3.6405,-3.6405,-3.6405,-3.6405,-3.6405,-3.6405,-3.6405,-3.5927,-3.4399,-3.4951,-3.4926,-3.3068,-3.2303,-3.175,-3.121,-2.9164,-2.8185,-2.9164,-2.8561,-2.8109,-2.8134,-2.9001,-2.9114,0.0,0.0,0.0,0.0,-3.0658,0.0,-3.4405,-3.2792,-3.3156,-3.5495,-3.4944,-3.4437,-3.3884,-3.3332,-3.3124,-3.3124,-3.3124,-3.3124,-3.3124,-3.3124,-3.3513,-3.4246,-3.4778,-3.6211,-3.8136,-3.9589,-4.0959,-4.2216,-2.9375,-3.0146,-3.0723,-3.0166,-3.0527,-3.0781,-3.0439,-3.0674,-3.0771,-3.0439,-3.0684,-3.0889,-3.0889,-3.0732,-3.0449,-3.0,-2.9473,-2.9023,-2.8701,-2.834,-2.8184,-2.8291,-2.7783,-2.75,-2.75,-2.75,0.0,-2.7256,-2.71,-2.6875,-2.6631,-2.706,-2.7402,-2.7738,-2.8105,-2.8291,-2.8291,-2.8291,-2.89,-2.9964,-3.1633,-3.2932,-3.4044,-3.575,-3.6405,-3.6405,-3.6405,-3.6405,-3.6405,-3.6405,-3.6267,-3.6094,-3.6342,-3.6267,-3.6094,-3.6342,-3.6405,-3.6405,-3.6405,-3.6405,-3.6405,-3.6405,-3.6405,-3.6405,-3.6405,-3.6405,-3.6405,-3.6405,-3.6405,-3.6405,-3.6405,-3.6405,-3.6065,-3.4989,-3.5739,-3.5852,-3.4223,-3.2968,-3.2089,-3.1738,-2.9453,-2.8561,-3.0231,-2.9754,-2.9402,-2.9515,-2.9905,-3.003,0.0,0.0,-3.0997,-3.1813,-3.1549,-3.2528,-3.4856,-3.3545,-3.3859,-3.5843,-3.5245,-3.4625,-3.3884,-3.3545,-3.3269,-3.3124,-3.3124,-3.3124,-3.3124,-3.3124,-3.3713,-3.4786,-3.5665,-3.7147,-3.8986,-4.0548,-4.1656,-4.25,-3.0723,-3.081,-3.0869,-3.081,-3.085,-3.0615,-2.9785,-3.0361,-3.0596,-2.9832,-3.0381,-3.0889,-3.0889,-3.0449,-3.0,-2.96,0.0,0.0,-2.834,-2.8603,-2.8643,-2.831,-2.8232,-2.8203,-2.8203,-2.8203,-2.8047,-2.7767,-2.7305,-2.71,-2.7109,-2.7519,-2.7767,-2.7777,-2.8115,-2.8291,-2.8291,-2.8398,-2.9859,-3.218,-3.2392,-3.3995,-3.6263,-3.6358,-3.6405,-3.6405,-3.6405,-3.6405,-3.6405,-3.6405,-3.6031,-3.5646,-3.6194,-3.6006,-3.5658,-3.6267,-3.6405,-3.6405,-3.6405,-3.6405,-3.6405,-3.6405,-3.6405,-3.6405,-3.6405,-3.6405,-3.6405,-3.6405,-3.6405,-3.6405,-3.6405,-3.6405,-3.6405,-3.6405,-3.6405,-3.6166,-3.537,-3.3477,-3.2139,-3.1951,-3.0179,0.0,-3.1235,-3.1461,-3.1311,-3.0821,-3.0783,0.0,0.0,0.0,-3.067,-3.0156,-3.1097,-3.239,-3.3997,-3.401,-3.4801,-3.6405,-3.5805,-3.4969,-3.401,-3.3935,-3.3621,-3.3131,-3.3136,-3.3124,-3.3124,-3.3197,-3.3839,-3.5017,-3.7318,-3.8529,-3.9339,-4.2199,-4.291,-4.2545,0.0,-2.998,-3.0674,-3.0,-3.0439,-3.082,-3.0605,-3.0762,-3.082,-3.0605,-3.0762,-3.0889,-3.0889,-3.0185,-2.9678,-2.9636,-2.8736,-2.8164,-2.8281,-2.7773,-2.7715,-2.8271,-2.7666,-2.7314,-2.7314,-2.7314,-2.7588,-2.8144,-2.8037,-2.7988,-2.7988,-2.8096,-2.8144,-2.8144,-2.8252,-2.8291,-2.8398,-2.9408,-3.0214,-3.0979,-3.3055,-3.4276,-3.4981,-3.6013,-3.6405,-3.6405,-3.6405,-3.6405,-3.6405,-3.6405,-3.6329,-3.6194,-3.6367,-3.6317,-3.6194,-3.6367,-3.6405,-3.6405,-3.6405,-3.6405,-3.6405,-3.6405,-3.6405,-3.6405,-3.6405,-3.6405,-3.6405,-3.6405,-3.6405,-3.6405,-3.6405,-3.6405,-3.6405,-3.6405,-3.6405,-3.5613,-3.3319,-3.2541,-3.1436,-2.9327,-2.9754,-3.052,-3.1311,-3.2177,-3.2629,0.0,-3.2491,-3.2554,-3.2667,-3.3357,-3.3696,-3.3558,-3.3809,-3.4336,-3.5107,-3.5107,-3.5567,-3.6405,-3.5805,-3.5357,-3.5082,-3.4286,-3.3822,-3.3684,-3.3257,-3.3124,-3.3154,-3.3995,-3.4925,-3.6042,-3.7907,-3.9523,-4.0931,-4.2145,-4.2806,-4.3045,-2.957,-3.0244,-3.0742,-3.0264,-3.0566,-3.0889,-3.0889,-3.0889,-3.0889,-3.0889,-3.0889,-3.0889,-3.0889,-3.0098,-2.9626,-2.9626,-2.8584,-2.8047,-2.8281,-2.7861,-2.7803,-2.8271,-2.7851,-2.7598,-2.7598,-2.7598,-2.7832,-2.8291,-2.8291,-2.8291,-2.8291,-2.8291,-2.8291,-2.8291,-2.8291,-2.8291,-2.8344,-2.9059,-2.9765,-3.0421,-3.1949,-3.3266,-3.4483,-3.5223,-3.587,-3.6405,-3.6405,-3.6405,-3.6405,-3.6405,-3.6194,-3.6031,-3.6329,-3.6194,-3.6031,-3.6329,-3.6405,-3.6405,-3.6405,-3.6405,-3.6405,-3.6405,-3.6405,-3.6405,-3.6405,-3.6405,-3.6405,-3.6405,-3.6405,-3.6405,-3.6405,-3.6405,-3.6329,-3.6031,-3.5567,-3.4525,-3.2503,-3.1574,-3.0821,-3.0068,-3.057,-3.1486,-3.2792,-3.347,-3.3822,-3.3822,-3.3596,0.0,-3.4173,-3.4537,-3.4793,-3.5044,-3.5341,-3.5617,-3.5918,-3.5918,-3.5943,-3.5994,-3.5943,-3.5655,-3.5107,-3.455,-3.4135,-3.3872,-3.3319,-3.3124,-3.3154,-3.3713,-3.4726,-3.6008,-3.7276,-3.8922,-4.067,-4.1317,-4.1927,-4.2432,-3.0889,-3.0889,-3.0889,-3.0889,-3.0889,-3.0889,-3.0889,-3.0889,-3.0889,-3.0889,-3.0889,-3.0889,-3.0889,-3.0156,-2.9695,-2.9636,-2.8848,-2.8359,-2.8301,-2.8291,-2.8291,-2.8291,-2.8291,-2.8291,-2.8291,-2.8291,-2.8291,-2.8291,-2.8291,-2.8291,-2.8291,-2.8291,-2.8291,-2.8291,-2.8291,-2.8291,-2.8291,-2.8495,-2.926,-3.0317,-3.0525,-3.1988,-3.4068,-3.4046,-3.4751,-3.5786,-3.5961,-3.6046,-3.6108,-3.631,-3.6056,-3.5708,-3.6267,-3.6044,-3.5768,-3.6267,-3.6405,-3.6405,-3.6405,-3.6405,-3.6405,-3.6405,-3.6405,-3.6405,-3.6405,-3.6405,-3.6405,-3.6405,-3.6405,-3.6405,-3.6405,-3.6405,-3.6157,-3.547,-3.4562,-3.3445,-3.2152,0.0,-3.0733,-3.1951,-3.1964,-3.2667,-3.4605,-3.4731,-3.4788,-3.4951,-3.4462,-3.46,-3.5571,-3.5182,-3.519,-3.5608,-3.6119,-3.6405,-3.6405,-3.6405,-3.6119,-3.5621,-3.6144,-3.5868,-3.4964,-3.4876,-3.455,-3.3985,-3.3432,-3.3156,-3.3124,-3.3371,-3.4281,-3.5587,-3.6583,-3.8048,-3.9693,-4.044,-4.1013,-4.1459,-3.0889,-3.0889,-3.0889,-3.0889,-3.0889,-3.0889,-3.0889,-3.0889,-3.0889,-3.0889,-3.0889,-3.0889,-3.0889,-3.042,-2.9961,-2.9655,-2.9111,-2.8672,-2.831,-2.8291,-2.8291,-2.8291,-2.8291,-2.8291,-2.8291,-2.8291,-2.8291,-2.8291,-2.8291,-2.8291,-2.8291,-2.8291,-2.8291,-2.8291,-2.8291,-2.8291,-2.8398,-2.9503,-3.011,-3.0421,-3.1531,-3.223,-3.2598,-3.2241,-3.248,-3.3025,-3.3814,-3.439,-3.4872,-3.6013,-3.6355,-3.6304,-3.638,-3.6355,-3.6304,-3.638,-3.6405,-3.6405,-3.6405,-3.6405,-3.6405,-3.6405,-3.6405,-3.6405,-3.6405,-3.6405,-3.6405,-3.6405,-3.6405,-3.6405,-3.6405,-3.6405,-3.6031,-3.5014,-3.4311,-3.3194,-3.1148,0.0,-3.2303,-3.1599,-3.3106,-3.448,-3.5295,-3.4956,-3.5115,-3.6078,-3.5604,-3.5567,-3.6194,-3.6204,-3.6191,-3.6279,-3.6367,-3.6405,-3.6405,-3.6405,-3.6367,-3.6279,-3.6367,-3.6317,-3.6141,-3.5629,-3.5069,-3.4562,-3.401,-3.3508,-3.3192,-3.4584,-3.5286,-3.5743,-3.8183,-3.9342,-3.9729,-4.087,-4.1345,-4.1384,-3.0889,-3.0889,-3.0889,-3.0889,-3.0889,-3.0889,-3.0889,-3.0889,-3.0889,-3.0889,-3.0889,-3.0889,-3.0889,-3.0478,-3.0117,-2.9922,-2.9521,-2.9092,-2.8662,-2.8418,-2.8291,-2.8291,-2.8291,-2.8291,-2.8291,-2.8291,-2.8291,-2.8291,-2.8291,-2.8291,-2.8291,-2.8291,-2.8291,-2.8291,-2.8291,-2.8291,-2.8344,-2.8953,-2.9197,-2.926,-2.9911,-3.0577,-3.1203,-3.1037,-3.2001,-3.3479,-3.3906,-3.4667,-3.5571,-3.6216,-3.6405,-3.6405,-3.6405,-3.6405,-3.6405,-3.6405,-3.6405,-3.6405,-3.6405,-3.6405,-3.6405,-3.6405,-3.6405,-3.6405,-3.6405,-3.6405,-3.6405,-3.6405,-3.6405,-3.6405,-3.6405,-3.6405,-3.6094,-3.5257,-3.4211,-3.3106,-3.2089,-3.2328,-3.2641,-3.2729,-3.4186,-3.5332,-3.5931,-3.5755,-3.5818,-3.6367,-3.6119,-3.6094,-3.6405,-3.6405,-3.6405,-3.6405,-3.6405,-3.6405,-3.6405,-3.6405,-3.6405,-3.6405,-3.6405,-3.6207,-3.5906,-3.5353,-3.4756,-3.4248,-3.3696,-3.3319,-3.3205,-3.4198,-3.4812,-3.5226,-3.7115,-3.8173,-3.8843,-4.0006,-4.0622,-4.095,-3.0889,-3.0889,-3.0889,-3.0889,-3.0889,-3.0889,-3.0889,-3.0889,-3.0889,-3.0889,-3.0889,-3.0889,-3.0889,-3.0576,-3.0312,-3.0205,-2.9902,-2.9492,-2.8955,-2.8613,-2.8398,-2.8301,-2.8291,-2.8291,-2.8291,-2.8291,-2.8291,-2.8291,-2.8291,-2.8291,-2.8291,-2.8291,-2.8291,-2.8291,-2.8291,-2.8291,-2.8291,-2.8291,-2.8291,-2.8291,-2.8291,-2.89,-2.9849,-3.0099,-3.1545,-3.3502,-3.4036,-3.4969,-3.5966,-3.631,-3.6405,-3.6405,-3.6405,-3.6405,-3.6405,-3.6405,-3.6405,-3.6405,-3.6405,-3.6405,-3.6405,-3.6405,-3.6405,-3.6405,-3.6405,-3.6405,-3.6405,-3.6405,-3.6405,-3.6405,-3.6405,-3.6405,-3.6144,-3.542,0.0,-3.3269,-3.3269,-3.2893,-3.3018,-3.4148,-3.514,-3.5893,-3.6367,-3.6405,-3.6405,-3.6405,-3.6405,-3.6405,-3.6405,-3.6405,-3.6405,-3.6405,-3.6405,-3.6405,-3.6405,-3.6405,-3.6405,-3.6405,-3.6405,-3.6144,-3.5671,-3.5119,-3.4568,-3.406,-3.3646,-3.3319,-3.3144,-3.3947,-3.4374,-3.4672,-3.6136,-3.7099,-3.7882,-3.9287,-4.0053,-4.0561,-3.0889,-3.0889,-3.0889,-3.0889,-3.0889,-3.0889,-3.0889,-3.0889,-3.0889,-3.0889,-3.0889,-3.0889,-3.0889,-3.0859,-3.0664,-3.0234,-3.0166,-2.9805,-2.8975,-2.8887,-2.8701,-2.831,-2.8291,-2.8291,-2.8291,-2.8291,-2.8291,-2.8291,-2.8291,-2.8291,-2.8291,-2.8291,-2.8291,-2.8291,-2.8291,-2.8291,-2.8291,-2.8291,-2.8291,-2.8291,-2.8291,-2.8344,-2.8552,-2.9405,-3.0104,-3.0874,-3.2969,-3.4114,-3.4727,-3.5966,-3.6405,-3.6405,-3.6405,-3.6405,-3.6405,-3.6405,-3.6405,-3.6405,-3.6405,-3.6405,-3.6405,-3.6405,-3.6405,-3.6405,-3.6405,-3.6405,-3.6405,-3.6405,-3.6405,-3.6405,-3.6405,-3.6405,-3.6065,-3.4951,0.0,0.0,-3.3847,-3.3796,-3.4186,-3.5245,-3.5943,-3.6367,-3.6405,-3.6405,-3.6405,-3.6405,-3.6405,-3.6405,-3.6405,-3.6405,-3.6405,-3.6405,-3.6405,-3.6405,-3.6405,-3.6405,-3.6405,-3.6405,-3.6405,-3.6392,-3.6329,-3.573,-3.5144,-3.4663,-3.4613,-3.4022,-3.3206,-3.4731,-3.4806,-3.4218,-3.6795,-3.7552,-3.7422,-3.9534,-4.0368,-4.0502,-3.0889,-3.0889,-3.0889,-3.0889,-3.0889,-3.0889,-3.0889,-3.0889,-3.0889,-3.0889,-3.0889,-3.0889,-3.0889,-3.0889,-3.0703,-3.0234,-3.0195,-2.9834,-2.8975,-2.8916,-2.873,-2.831,-2.8291,-2.8291,-2.8291,-2.8291,-2.8291,-2.8291,-2.8291,-2.8291,-2.8291,-2.8291,-2.8291,-2.8291,-2.8291,-2.8291,-2.8291,-2.8291,-2.8291,-2.8291,-2.8291,-2.8291,-2.8325,-2.872,-2.9464,-3.0545,-3.2229,-3.3499,-3.4581,-3.5966,-3.6405,-3.6405,-3.6405,-3.6405,-3.6405,-3.6405,-3.6405,-3.6405,-3.6405,-3.6405,-3.6405,-3.6405,-3.6405,-3.6405,-3.6405,-3.6405,-3.6405,-3.6405,-3.6405,-3.6405,-3.6405,-3.6405,-3.6267,-3.5805,0.0,-3.5039,-3.5378,-3.514,-3.5203,-3.5956,-3.6279,-3.6405,-3.6405,-3.6405,-3.6405,-3.6405,-3.6405,-3.6405,-3.6405,-3.6405,-3.6405,-3.6405,-3.6405,-3.6405,-3.6405,-3.6405,-3.6405,-3.6405,-3.6405,-3.6182,-3.583,-3.5232,-3.4726,-3.4198,-3.3847,-3.347,-3.3156,-3.4123,-3.4274,-3.4085,-3.5772,-3.6297,-3.6344,-3.8229,-3.9394,-4.011,-3.0889,-3.0889,-3.0889,-3.0889,-3.0889,-3.0889,-3.0889,-3.0889,-3.0889,-3.0889,-3.0889,-3.0889,-3.0889,-3.0889,-3.0703,-3.0234,-3.0195,-2.9834,-2.8975,-2.8789,-2.8594,-2.8301,-2.8291,-2.8291,-2.8291,-2.8291,-2.8291,-2.8291,-2.8291,-2.8291,-2.8291,-2.8291,-2.8291,-2.8291,-2.8291,-2.8291,-2.8291,-2.8291,-2.8291,-2.8291,-2.8291,-2.8291,-2.8344,-2.8751,-2.9513,-3.0473,-3.1836,-3.2853,-3.3734,-3.505,-3.5503,-3.561,-3.6,-3.6267,-3.6405,-3.6405,-3.6405,-3.6405,-3.6405,-3.6405,-3.6405,-3.6405,-3.6405,-3.6405,-3.6405,-3.6405,-3.6405,-3.6405,-3.6405,-3.6405,-3.6405,-3.6405,-3.6405,-3.6405,-3.6044,-3.5931,-3.6355,-3.6031,-3.5943,-3.6367,-3.6405,-3.6405,-3.6405,-3.6405,-3.6405,-3.6405,-3.6405,-3.6405,-3.6405,-3.6405,-3.6405,-3.6405,-3.6405,-3.6405,-3.6405,-3.6405,-3.6405,-3.6405,-3.6405,-3.6157,-3.578,-3.5052,-3.4512,-3.4123,-3.3571,-3.3275,-3.3131,-3.3859,-3.396,-3.3777,-3.5014,-3.5492,-3.5743,-3.7579,-3.8875,-3.9823,-3.0889,-3.0889,-3.0889,-3.0889,-3.0889,-3.0889,-3.0889,-3.0889,-3.0889,-3.0889,-3.0889,-3.0889,-3.0889,-3.0889,-3.0703,-3.0234,-3.0195,-2.9834,-2.8975,-2.8525,-2.8291,-2.8291,-2.8291,-2.8291,-2.8291,-2.8291,-2.8291,-2.8291,-2.8291,-2.8291,-2.8291,-2.8291,-2.8291,-2.8291,-2.8291,-2.8291,-2.8291,-2.8291,-2.8291,-2.8291,-2.8291,-2.8291,-2.8441,-2.9755,-3.0255,-3.0463,-3.1825,-3.2028,-3.1871,-3.3086,-3.3589,-3.3946,-3.5112,-3.5931,-3.6405,-3.6405,-3.6405,-3.6405,-3.6405,-3.6405,-3.6405,-3.6405,-3.6405,-3.6405,-3.6405,-3.6405,-3.6405,-3.6405,-3.6405,-3.6405,-3.6405,-3.6405,-3.6405,-3.6405,-3.6405,-3.6405,-3.6405,-3.6405,-3.6405,-3.6405,-3.6405,-3.6405,-3.6405,-3.6405,-3.6405,-3.6405,-3.6405,-3.6405,-3.6405,-3.6405,-3.6405,-3.6405,-3.6405,-3.6405,-3.6405,-3.6405,-3.6405,-3.6405,-3.6405,-3.6405,-3.6367,-3.5228,-3.468,-3.4675,-3.4135,-3.3583,-3.3156,-3.4261,-3.406,-3.3248,-3.4858,-3.5479,-3.5761,-3.7966,-3.9129,-3.9654,-3.0771,-3.0625,-3.0508,-3.083,-3.0889,-3.0889,-3.0889,-3.0889,-3.0889,-3.0889,-3.0889,-3.0889,-3.0889,-3.0889,-3.0586,-2.9824,-2.9756,-2.9394,-2.8535,-2.8359,-2.8291,-2.8291,-2.8291,-2.8291,-2.8291,-2.8291,-2.8291,-2.8291,-2.8291,-2.8291,-2.8291,-2.8291,-2.8291,-2.8291,-2.8291,-2.8291,-2.8291,-2.8291,-2.8291,-2.8291,-2.8291,-2.8115,-2.7904,-2.8304,-2.8503,-2.8649,-2.9998,-3.116,-3.2318,-3.3686,-3.4775,-3.567,-3.6013,-3.6279,-3.6405,-3.6405,-3.6405,-3.6405,-3.6405,-3.6405,-3.6405,-3.6405,-3.6405,-3.6405,-3.6405,-3.6405,-3.6405,-3.6405,-3.6405,-3.6405,-3.6405,-3.6405,-3.6405,-3.6405,-3.6405,-3.6405,-3.6405,-3.6405,-3.6405,-3.6405,-3.6405,-3.6405,-3.6405,-3.6405,-3.6405,-3.6405,-3.6405,-3.6405,-3.6405,-3.6405,-3.6405,-3.6405,-3.6405,-3.6405,-3.6405,-3.6405,-3.6405,-3.6405,-3.6405,-3.6157,-3.5768,-3.5052,-3.4512,-3.411,-3.3558,-3.3275,-3.3106,-3.3432,-3.337,-3.3174,-3.4051,-3.4155,-3.4153,-3.6788,-3.7827,-3.8102,-3.0478,-3.0391,-3.0342,-3.081,-3.0889,-3.0889,-3.0889,-3.0889,-3.0889,-3.0889,-3.0732,-3.0615,-3.0615,-3.0615,-3.0264,-2.9394,-2.916,-2.8848,-2.833,-2.8291,-2.8291,-2.8291,-2.8291,-2.8291,-2.8291,-2.8291,-2.8291,-2.8291,-2.8291,-2.8291,-2.8291,-2.8125,-2.8047,-2.8037,-2.7861,-2.7793,-2.7803,-2.7969,-2.8047,-2.8047,-2.8047,-2.7891,-2.7699,-2.7471,-2.7402,-2.7506,-2.834,-2.9642,-3.1213,-3.2569,-3.4378,-3.6081,-3.6329,-3.6405,-3.6405,-3.6405,-3.6405,-3.6405,-3.6405,-3.6405,-3.6405,-3.6405,-3.6405,-3.6405,-3.6405,-3.6405,-3.6405,-3.6405,-3.6405,-3.6405,-3.6405,-3.6405,-3.6405,-3.6405,-3.6405,-3.6405,-3.6405,-3.6405,-3.6405,-3.6405,-3.6405,-3.6405,-3.6405,-3.6405,-3.6405,-3.6405,-3.6405,-3.6405,-3.6405,-3.6405,-3.6405,-3.6405,-3.6405,-3.6405,-3.6405,-3.6405,-3.6405,-3.6405,-3.6144,-3.5868,-3.547,-3.4705,-3.4211,-3.3872,-3.3319,-3.3124,-3.3124,-3.3124,-3.3124,-3.3106,-3.3445,-3.3508,-3.3682,-3.5818,-3.6585,-3.6716,-3.0107,-3.0166,-3.0283,-3.0752,-3.083,-3.082,-3.0781,-3.0801,-3.081,-3.0781,-3.04,-3.0137,-3.0137,-3.0137,-2.9805,-2.8984,-2.8535,-2.8291,-2.8291,-2.8291,-2.8291,-2.8291,-2.8291,-2.8291,-2.8291,-2.8291,-2.8291,-2.8291,-2.8291,-2.8291,-2.8281,-2.7861,-2.7718,-2.7699,-2.7207,-2.7012,-2.7041,-2.7441,-2.766,-2.766,-2.766,-2.764,-2.7562,-2.7109,-2.6963,-2.6963,-2.6963,-2.7875,-2.9254,-3.0517,-3.2865,-3.5369,-3.5965,-3.6235,-3.6329,-3.6329,-3.6329,-3.6329,-3.6329,-3.6329,-3.6342,-3.6405,-3.6405,-3.6405,-3.6405,-3.6405,-3.6405,-3.6405,-3.6405,-3.6405,-3.6405,-3.6405,-3.6405,-3.6405,-3.6405,-3.6405,-3.6405,-3.6405,-3.6405,-3.6405,-3.6405,-3.6405,-3.6405,-3.6405,-3.6405,-3.6405,-3.6405,-3.6405,-3.6405,-3.6405,-3.6405,-3.6405,-3.6367,-3.6367,-3.6405,-3.6317,-3.6317,-3.6405,-3.5855,-3.5545,-3.547,-3.4512,-3.3985,-3.3872,-3.342,-3.3212,-3.3124,-3.3174,-3.3156,-3.3156,-3.3156,-3.3458,-3.4029,-3.5174,-3.5534,-3.561,-2.9812,-2.9932,-2.9844,-3.0273,-3.0342,-3.0244,-2.9912,-3.0137,-3.0225,-2.9893,-2.9766,-2.9707,-2.9707,-2.9707,-2.9492,-2.8965,-2.8535,-2.8291,-2.8291,-2.8291,-2.8291,-2.8291,-2.8291,-2.8291,-2.8291,-2.8291,-2.8291,-2.8291,-2.8291,-2.8291,-2.8281,-2.7861,-2.7718,-2.7699,-2.7207,-2.7012,-2.7021,-2.7119,-2.7158,-2.7158,-2.7158,-2.6953,-2.666,-2.6562,-2.6523,-2.6523,-2.6523,-2.7824,-2.974,-3.1064,-3.2389,-3.3558,-3.4136,-3.4932,-3.5683,-3.5683,-3.5683,-3.5683,-3.5683,-3.5683,-3.583,-3.6304,-3.6405,-3.6405,-3.6405,-3.6405,-3.6405,-3.6405,-3.6405,-3.6405,-3.6405,-3.6405,-3.6405,-3.6405,-3.6405,-3.6405,-3.6405,-3.6405,-3.6405,-3.6405,-3.6405,-3.6405,-3.6405,-3.6405,-3.6405,-3.6405,-3.6405,-3.6405,-3.6405,-3.6405,-3.6405,-3.6405,-3.5943,-3.5931,-3.6405,-3.5504,-3.5504,-3.6405,-3.6292,-3.5968,-3.5495,-3.5257,-3.4668,-3.3922,-3.4223,-3.3872,-3.3106,-3.3545,-3.3721,-3.3721,-3.3721,-3.3796,-3.4067,-3.5704,-3.5669,-3.5138,-2.7203,-2.7902,-2.8361,-2.8766,-2.942,-2.9824,-2.96,-2.9756,-2.9824,-2.9655,-2.9385,-2.9258,-2.9258,-2.9258,-2.917,-2.8935,-2.8535,-2.8291,-2.8291,-2.8291,-2.8291,-2.8291,-2.8291,-2.8291,-2.8291,-2.8291,-2.8291,-2.8291,-2.8291,-2.8291,-2.8281,-2.7656,-2.7363,-2.7334,-2.6689,-2.6356,-2.6366,-2.6631,-2.6719,-2.6719,-2.6719,-2.6582,-2.6367,-2.6162,-2.6084,-2.6103,-2.6309,-2.7673,-2.9561,-3.0925,-3.1629,-3.2135,-3.3031,-3.3749,-3.4379,-3.4957,-3.5107,-3.5107,-3.5107,-3.5307,-3.5571,-3.5893,-3.6169,-3.6405,-3.6405,-3.6405,-3.6405,-3.6405,-3.6405,-3.6405,-3.6405,-3.6405,-3.6405,-3.6405,-3.6405,-3.6405,-3.6405,-3.6405,-3.6405,-3.6405,-3.6405,-3.6405,-3.6405,-3.6405,-3.6405,-3.6405,-3.6405,-3.6292,-3.5994,-3.6267,-3.6292,-3.5981,-3.5943,-3.6069,-3.6405,-3.5793,-3.5793,-3.6405,-3.583,-3.5567,-3.5483,-3.4956,-3.4449,-3.3897,-3.3922,-3.3608,-3.3106,-3.3382,-3.3508,-3.3508,-3.3508,-3.3508,-3.3658,-3.482,-3.5187,-3.5269,-2.4366,-2.5453,-2.6412,-2.6733,-2.807,-2.909,-2.9012,-2.9293,-2.9434,-2.9421,-2.9033,-2.8809,-2.8809,-2.8809,-2.8809,-2.8809,-2.8496,-2.8291,-2.8291,-2.8291,-2.8291,-2.8291,-2.8291,-2.8291,-2.8291,-2.8291,-2.8291,-2.8291,-2.8291,-2.8252,-2.8164,-2.7383,-2.6973,-2.6875,-2.6035,-2.5693,-2.5713,-2.6123,-2.6279,-2.6279,-2.6279,-2.6279,-2.624,-2.583,-2.5693,-2.5732,-2.6143,-2.7211,-2.8624,-2.9813,-3.0456,-3.0925,-3.2066,-3.2732,-3.3252,-3.4247,-3.4575,-3.46,-3.47,-3.5006,-3.5408,-3.5596,-3.6031,-3.6405,-3.6405,-3.6405,-3.6405,-3.6405,-3.6405,-3.6405,-3.6405,-3.6405,-3.6405,-3.6405,-3.6405,-3.6405,-3.6405,-3.6405,-3.6405,-3.6405,-3.6329,-3.6304,-3.6405,-3.6329,-3.6304,-3.6405,-3.6405,-3.6157,-3.5658,-3.6119,-3.6157,-3.5658,-3.6031,-3.6317,-3.6405,-3.6216,-3.6216,-3.6392,-3.524,-3.5019,-3.5608,-3.4738,-3.4223,-3.4022,-3.3658,-3.3332,-3.3124,-3.3224,-3.3262,-3.3206,-3.3162,-3.3174,-3.3257,-3.3621,-3.4564,-3.566,-2.4244,-2.466,-2.479,-2.4889,-2.6104,-2.6957,-2.6655,-2.7967,-2.8877,-2.8516,-2.8418,-2.8379,-2.8379,-2.8379,-2.8379,-2.8379,-2.833,-2.8291,-2.8291,-2.8291,-2.8291,-2.8291,-2.8291,-2.8291,-2.8291,-2.8291,-2.8291,-2.8291,-2.8291,-2.8105,-2.7796,-2.7246,-2.6816,-2.6455,-2.5908,-2.5693,-2.5693,-2.5752,-2.5771,-2.5771,-2.5771,-2.5771,-2.5771,-2.5713,-2.5693,-2.5693,-2.5752,-2.5957,-2.6251,-2.6814,-2.8189,-2.9722,-3.0336,-3.2023,-3.3776,-3.3966,-3.401,-3.411,-3.4587,-3.4731,-3.5064,-3.6006,-3.6355,-3.6405,-3.6405,-3.6405,-3.6405,-3.6405,-3.6405,-3.6405,-3.6405,-3.6405,-3.6405,-3.6405,-3.6405,-3.6405,-3.6405,-3.6405,-3.6405,-3.6405,-3.5943,-3.5843,-3.6367,-3.5931,-3.5855,-3.6367,-3.6405,-3.6367,-3.6304,-3.6367,-3.6367,-3.6304,-3.5868,-3.5881,-3.6405,-3.5416,-3.5416,-3.6392,-3.524,-3.5253,-3.6292,-3.6141,-3.5504,-3.4625,-3.4994,-3.4399,-3.3162,-3.3596,-3.3784,-3.3746,-3.3269,-3.337,-3.3746,-3.3332,-3.445,-3.6123,-2.1537,-2.2318,-2.2873,-2.2873,-2.4117,-2.5018,-2.4846,-2.6254,-2.7257,-2.7079,-2.778,-2.8291,-2.8291,-2.8291,-2.8291,-2.8291,-2.8291,-2.8291,-2.8291,-2.8291,-2.8291,-2.8291,-2.8291,-2.8291,-2.8291,-2.8291,-2.8174,-2.7939,-2.7939,-2.7851,-2.7699,-2.6982,-2.6562,-2.6367,-2.5937,-2.5693,-2.5693,-2.5693,-2.5693,-2.5693,-2.5693,-2.5693,-2.5693,-2.5693,-2.5693,-2.5693,-2.5693,-2.5889,-2.6094,-2.6045,-2.6589,-2.7515,-2.8473,-2.9511,-3.0663,-3.1994,-3.2625,-3.311,-3.4008,-3.4668,-3.5257,-3.578,-3.6132,-3.6405,-3.6405,-3.6405,-3.6405,-3.6405,-3.6405,-3.6405,-3.6405,-3.6405,-3.6405,-3.6405,-3.6405,-3.6405,-3.6405,-3.6405,-3.6405,-3.6405,-3.5881,-3.5768,-3.6355,-3.5868,-3.5768,-3.6367,-3.6405,-3.6267,-3.5931,-3.6194,-3.6267,-3.5918,-3.5968,-3.6119,-3.6405,-3.5881,-3.5881,-3.6405,-3.5868,-3.573,-3.5881,-3.5265,-3.4726,-3.4261,-3.4198,-3.3759,-3.3136,-3.3345,-3.3432,-3.342,-3.3169,-3.3219,-3.3407,-3.3212,-3.4066,-3.544]}]]